     2              OBSERVATION DATA    GPS                 RINEX VERSION / TYPE
ASHTORIN MIT 09                                             PGM / RUN BY / DATE
                                                            COMMENT
Original Marker Name: FRIN                                  COMMENT
Campaign Name: STRC/NBC 1997                                COMMENT
4-Character Station Name: FRIN                              COMMENT
6-Character Antenna Code: DMRCHT                            COMMENT
Vertical Measurement Point: BCR                             COMMENT
Vertical Offset to Rinex Ref. Point: 0.0349                 COMMENT
Radial Measurement Point: ECF                               COMMENT
Radial Offset to Rinex Ref. Point: 0.1896                   COMMENT
Antenna Height from Field Measurement: 1.3330 m             COMMENT
Additional Antenna Identification Info.:                    COMMENT
Turborogue and Ashtech Choke Ring                           COMMENT
Original XYZ: 0.0000 0.0000 0.0000                          COMMENT
New XYZ position is based on association with SCEC monument COMMENT
E1D0J4A3+0011. Position of that monument is believed to be  COMMENT
valid to within 1 m horizontally; vertical accuracy         COMMENT
should be no worse than 3-times this value.                 COMMENT
                                                            COMMENT
Revised Rinex header created by UCSD GPS archive for        COMMENT
GSAC on 12-Apr-1999 (1999:102) 06:13:02 GMT                 COMMENT
For assistance contact dagnew@ucsd.edu or hjohnson@ucsd.edu COMMENT
                                                            COMMENT
FRINK 1934                                                  MARKER NAME
                                                            MARKER NUMBER
PTL UNAVCO                                                  OBSERVER / AGENCY
378 ASHTECH Z12-XII3 1E951D0                                REC # / TYPE / VERS
740 DORNE-MARGOL. TYPE T                                    ANT # / TYPE
 -2308056.0000 -4807160.0000  3487357.0000                  APPROX POSITION XYZ
        1.2845        0.0000        0.0000                  ANTENNA: DELTA H/E/N
     1     1     0                                          WAVELENGTH FACT L1/2
     7    L1    L2    C1    P1    P2    D1    D2            # / TYPES OF OBSERV
    30                                                      INTERVAL
  1997     3     7     0     0   30.000000                  TIME OF FIRST OBS
  1997     3     7    16    22   60.000000                  TIME OF LAST OBS
     0                                                      # OF SATELLITES
                                                            END OF HEADER
 97  3  7  0  0 30.0000000  0  7  4  2  9 24  7 16  5                0.000000000
 -36472783.549 9 -27845039.90049  20755953.463    20755953.3324   20755956.9634
        -0.000          -0.000
 -30016463.907 9 -23375431.33246  24074380.858    24074380.0534   24074386.2504
        -0.000          -0.000
 -30373573.000 9 -23344251.13148  21466873.989    21466873.5334   21466877.6444
        -0.000          -0.000
 -29877245.911 9 -23254984.97348  20936083.667    20936083.1714   20936088.1754
        -0.000          -0.000
 -30479004.163 9 -23718861.31946  23003249.348    23003248.3334   23003253.1144
        -0.000          -0.000
  -8045994.882 9  -5888780.32446  24724813.333    24724812.5184   24724818.1334
        -0.000          -0.000
 -21404446.753 9 -16402364.01047  22495494.898    22495494.0534   22495498.4344
        -0.000          -0.000
 97  3  7  0  1  0.0000000  0  7  4  2  9 24  7 16  5                0.000500888
 -36474408.168 9 -27846305.82149  20755644.297    20755644.1574   20755647.7904
        -0.000          -0.000
 -29959389.391 9 -23330957.75546  24085241.776    24085240.8754   24085247.2734
        -0.000          -0.000
 -30388494.732 9 -23355878.45548  21464034.549    21464034.0584   21464038.1534
        -0.000          -0.000
 -29955965.920 9 -23316325.20848  20921103.743    20921103.2424   20921108.2364
        -0.000          -0.000
 -30441396.440 9 -23689556.60246  23010405.816    23010404.8584   23010409.5974
        -0.000          -0.000
  -8074533.157 9  -5911017.90646  24719382.511    24719381.8284   24719387.5144
        -0.000          -0.000
 -21511676.874 9 -16485919.91847  22475089.614    22475088.7804   22475093.1814
        -0.000          -0.000
 97  3  7  0  1 30.0000000  0  7  4  2  9 24  7 16  5                0.000483092
 -36475574.535 9 -27847214.66449  20755422.362    20755422.2404   20755425.8454
        -0.000          -0.000
 -29902138.782 9 -23286346.90046  24096136.266    24096135.3444   24096141.7064
        -0.000          -0.000
 -30402932.622 9 -23367128.76148  21461287.141    21461286.6104   21461290.7354
        -0.000          -0.000
 -30034270.856 9 -23377342.01248  20906202.776    20906202.2874   20906207.2414
        -0.000          -0.000
 -30403839.473 9 -23660291.42046  23017552.882    23017551.7814   23017556.4404
        -0.000          -0.000
  -8102648.733 9  -5932926.11046  24714032.112    24714031.4924   24714037.3104
        -0.000          -0.000
 -21618838.192 9 -16569422.23147  22454697.600    22454696.7374   22454701.0624
        -0.000          -0.000
 97  3  7  0  2  0.0000000  0  7  4  2  9 24  7 16  5                0.000465324
 -36476202.750 9 -27847704.17049  20755302.864    20755302.7134   20755306.3274
        -0.000          -0.000
 -29844630.576 9 -23241535.35646  24107079.722    24107078.8664   24107085.0724
        -0.000          -0.000
 -30416807.172 9 -23377940.10048  21458646.874    21458646.3684   21458650.4834
        -0.000          -0.000
 -30112081.082 9 -23437973.32748  20891395.969    20891395.4984   20891400.4454
        -0.000          -0.000
 -30366258.343 9 -23631007.43346  23024704.249    23024703.1294   23024707.9044
        -0.000          -0.000
  -8130258.603 9  -5954440.29946  24708778.305    24708777.5394   24708783.4534
        -0.000          -0.000
 -21725853.793 9 -16652810.98447  22434333.379    22434332.3854   22434336.6504
        -0.000          -0.000
 97  3  7  0  2 30.0000000  0  7  4  2  9 24  7 16  5                0.000447572
 -36476294.144 9 -27847775.37449  20755285.477    20755285.2954   20755288.9134
        -0.000          -0.000
 -29786874.858 9 -23196530.94645  24118070.495    24118069.6184   24118075.6514
        -0.000          -0.000
 -30430126.863 9 -23388319.07648  21456112.282    21456111.7134   21456115.8854
        -0.000          -0.000
 -30189405.084 9 -23498225.76948  20876681.702    20876681.2144   20876686.1554
        -0.000          -0.000
 -30328649.626 9 -23601701.95546  23031860.951    23031859.8554   23031864.6704
        -0.000          -0.000
  -8157371.693 9  -5975567.33145  24703618.664    24703617.9314   24703623.8434
        -0.000          -0.000
 -21832736.830 9 -16736096.43247  22413994.120    22413993.1664   22413997.4554
        -0.000          -0.000
 97  3  7  0  3  0.0000000  0  7  4  2  9 24  7 16  5                0.000429826
 -36475835.633 9 -27847418.08049  20755372.695    20755372.5454   20755376.1964
        -0.000          -0.000
 -29728862.378 8 -23151326.46645  24129109.834    24129108.7864   24129115.1724
        -0.000          -0.000
 -30442898.776 9 -23398271.21848  21453681.802    21453681.2664   21453685.4594
        -0.000          -0.000
 -30266235.256 9 -23558093.40348  20862061.362    20862060.8764   20862065.8474
        -0.000          -0.000
 -30291004.597 9 -23572368.16446  23039024.623    23039023.5264   23039028.2514
        -0.000          -0.000
  -8183989.375 8  -5996308.35545  24698553.328    24698552.5994   24698558.6994
        -0.000          -0.000
 -21939492.882 9 -16819282.93747  22393678.874    22393678.0694   22393682.4144
        -0.000          -0.000
 97  3  7  0  3 30.0000000  0  7  4  2  9 24  7 16  5                0.000412029
 -36474875.306 9 -27846669.76449  20755555.386    20755555.2284   20755558.9004
        -0.000          -0.000
 -29670658.060 8 -23105972.47045  24140185.599    24140184.6884   24140191.0504
        -0.000          -0.000
 -30455197.435 9 -23407854.59148  21451341.441    21451340.8864   21451345.1124
        -0.000          -0.000
 -30342618.519 9 -23617612.80148  20847526.132    20847525.6284   20847530.6104
        -0.000          -0.000
 -30253377.995 9 -23543048.77146  23046184.592    23046183.5594   23046188.3534
        -0.000          -0.000
  -8210172.179 8  -6016710.53645  24693571.015    24693570.2364   24693576.1124
        -0.000          -0.000
 -22046194.615 9 -16902427.10847  22373374.177    22373373.3864   22373377.7004
        -0.000          -0.000
 97  3  7  0  4  0.0000000  0  7  4  2  9 24  7 16  5                0.000394196
 -36473353.211 9 -27845483.70749  20755844.964    20755844.8284   20755848.4984
        -0.000          -0.000
 -29612232.679 9 -23060446.29545  24151303.679    24151302.7614   24151309.0254
        -0.000          -0.000
 -30466968.858 9 -23417027.13048  21449101.367    21449100.8464   21449105.0664
        -0.000          -0.000
 -30418503.988 9 -23676744.31048  20833085.615    20833085.1054   20833090.0664
        -0.000          -0.000
 -30215703.847 9 -23513692.29546  23053353.689    23053352.8064   23053357.4874
        -0.000          -0.000
  -8235871.808 8  -6036736.18045  24688680.466    24688679.7534   24688685.6234
        -0.000          -0.000
 -22152800.274 9 -16985496.42647  22353087.804    22353086.9804   22353091.3114
        -0.000          -0.000
 97  3  7  0  4 30.0000000  0  7  4  2  9 24  7 16  5                0.000376279
 -36471325.516 9 -27843903.67249  20756230.820    20756230.6614   20756234.3644
        -0.000          -0.000
 -29553651.382 8 -23014798.56045  24162451.643    24162450.4844   24162456.7524
        -0.000          -0.000
 -30478278.674 9 -23425839.97848  21446949.165    21446948.6574   21446952.9154
        -0.000          -0.000
 -30493940.705 9 -23735526.13549  20818730.456    20818729.9534   20818734.9094
        -0.000          -0.000
 -30178057.220 9 -23484357.28446  23060517.651    23060516.7364   23060521.5354
        -0.000          -0.000
  -8261146.507 8  -6056430.73445  24683871.067    24683870.0334   24683875.9314
        -0.000          -0.000
 -22259379.051 9 -17068544.79347  22332806.530    22332805.7004   22332810.0294
        -0.000          -0.000
 97  3  7  0  5  0.0000000  0  7  4  2  9 24  7 16  5                0.000358298
 -36468785.102 9 -27841924.12049  20756714.185    20756714.0564   20756717.7694
        -0.000          -0.000
 -29494909.195 8 -22969025.48845  24173629.819    24173628.6154   24173634.9004
        -0.000          -0.000
 -30489102.198 9 -23434273.89248  21444889.485    21444888.9724   21444893.1634
        -0.000          -0.000
 -30568915.524 9 -23793948.04549  20804463.239    20804462.7404   20804467.6834
        -0.000          -0.000
 -30140435.282 9 -23455041.49546  23067676.874    23067675.9804   23067680.7494
        -0.000          -0.000
  -8285972.923 9  -6075775.97545  24679146.685    24679145.6934   24679151.6254
        -0.000          -0.000
 -22365896.907 9 -17151545.69247  22312537.027    22312536.1124   22312540.3724
        -0.000          -0.000
 97  3  7  0  5 30.0000000  0  7  4  2  9 24  7 16  5                0.000340241
 -36465781.031 9 -27839583.27749  20757285.869    20757285.7304   20757289.4664
        -0.000          -0.000
 -29436052.430 8 -22923163.09745  24184829.859    24184828.7614   24184835.0914
        -0.000          -0.000
 -30499462.586 9 -23442346.92748  21442917.983    21442917.4474   21442921.7074
        -0.000          -0.000
 -30643466.972 9 -23852040.05649  20790276.564    20790276.0414   20790280.9684
        -0.000          -0.000
 -30102869.404 9 -23425769.40347  23074825.424    23074824.4614   23074829.2374
        -0.000          -0.000
  -8310384.807 9  -6094798.20245  24674501.311    24674500.3594   24674506.1114
        -0.000          -0.000
 -22472370.430 9 -17234512.04247  22292275.996    22292274.9294   22292279.1264
        -0.000          -0.000
 97  3  7  0  6  0.0000000  0  7  4  2  9 24  7 16  5                0.000322145
 -36462313.425 9 -27836881.23649  20757945.771    20757945.5934   20757949.2724
        -0.000          -0.000
 -29377056.222 8 -22877192.09845  24196056.462    24196055.4504   24196061.8594
        -0.000          -0.000
 -30509319.003 9 -23450027.25548  21441042.307    21441041.8164   21441046.0704
        -0.000          -0.000
 -30717572.095 9 -23909784.27549  20776174.750    20776174.2444   20776179.1614
        -0.000          -0.000
 -30065350.927 9 -23396534.23047  23081965.008    23081964.0384   23081968.7204
        -0.000          -0.000
  -8334358.409 9  -6113478.92145  24669939.321    24669938.2674   24669944.1164
        -0.000          -0.000
 -22578763.808 9 -17317415.94547  22272030.114    22272028.9754   22272033.1554
        -0.000          -0.000
 97  3  7  0  6 30.0000000  0  7  4  2  9 24  7 16  5                0.000304038
 -36458383.087 9 -27833818.62349  20758693.704    20758693.5164   20758697.1554
        -0.000          -0.000
 -29317883.839 8 -22831083.80245  24207316.648    24207315.6834   24207321.8564
        -0.000          -0.000
 -30518663.553 9 -23457308.72748  21439264.084    21439263.5674   21439267.8584
        -0.000          -0.000
 -30791216.942 9 -23967169.85049  20762160.619    20762160.1064   20762165.0174
        -0.000          -0.000
 -30027883.425 9 -23367338.77847  23089094.887    23089093.9134   23089098.4714
        -0.000          -0.000
  -8357871.206 9  -6131800.56046  24665464.851    24665463.9144   24665469.8044
        -0.000          -0.000
 -22685057.409 9 -17400242.10347  22251803.057    22251801.9684   22251806.1614
        -0.000          -0.000
 97  3  7  0  7  0.0000000  0  7  4  2  9 24  7 16  5                0.000285943
 -36453972.160 9 -27830381.52749  20759533.139    20759532.9344   20759536.5274
        -0.000          -0.000
 -29258500.409 8 -22784811.04345  24218616.867    24218615.8414   24218622.3094
        -0.000          -0.000
 -30527466.435 9 -23464168.12648  21437588.844    21437588.4064   21437592.7424
        -0.000          -0.000
 -30864389.539 9 -24024187.42949  20748236.313    20748235.8054   20748240.6634
        -0.000          -0.000
 -29990432.387 9 -23338156.15946  23096221.670    23096220.5994   23096225.2554
        -0.000          -0.000
  -8380912.692 9  -6149754.93146  24661080.337    24661079.3504   24661085.0844
        -0.000          -0.000
 -22791223.925 9 -17482969.22447  22231600.119    22231599.1144   22231603.3184
        -0.000          -0.000
 97  3  7  0  7 30.0000000  0  7  4  2  9 24  7 16  5                0.000267865
 -36449055.723 9 -27826550.53049  20760468.706    20760468.5074   20760472.0714
        -0.000          -0.000
 -29198867.193 8 -22738343.65045  24229964.733    24229963.9454   24229970.3474
        -0.000          -0.000
 -30535722.802 9 -23470601.66348  21436017.729    21436017.2544   21436021.6034
        -0.000          -0.000
 -30937062.429 9 -24080815.62649  20734407.138    20734406.5994   20734411.4724
        -0.000          -0.000
 -29952974.979 9 -23308968.58546  23103349.559    23103348.5244   23103353.2734
        -0.000          -0.000
  -8403471.039 9  -6167332.85545  24656787.671    24656786.6724   24656792.4624
        -0.000          -0.000
 -22897256.312 9 -17565591.83547  22211422.652    22211421.7134   22211425.9684
        -0.000          -0.000
 97  3  7  0  8  0.0000000  0  7  4  2  9 24  7 16  5                0.000249796
 -36443626.942 9 -27822320.30149  20761501.746    20761501.5524   20761505.0944
        -0.000          -0.000
 -29138979.882 8 -22691678.26945  24241361.065    24241360.2664   24241366.4184
        -0.000          -0.000
 -30543445.341 9 -23476619.23448  21434548.172    21434547.7014   21434552.0934
        -0.000          -0.000
 -31009243.238 9 -24137060.38849  20720671.511    20720670.9984   20720675.8334
        -0.000          -0.000
 -29915516.501 9 -23279780.16546  23110477.804    23110476.7704   23110481.4124
        -0.000          -0.000
  -8425549.856 8  -6184537.09345  24652586.053    24652585.1404   24652590.9934
        -0.000          -0.000
 -23003164.784 9 -17648117.88447  22191268.797    22191267.9154   22191272.1994
        -0.000          -0.000
 97  3  7  0  8 30.0000000  0  7  4  2  9 24  7 16  5                0.000231731
 -36437676.560 9 -27817683.63049  20762634.070    20762633.8784   20762637.4274
        -0.000          -0.000
 -29078833.310 8 -22644810.84145  24252806.558    24252805.8224   24252811.9034
        -0.000          -0.000
 -30550635.711 9 -23482222.12748  21433179.923    21433179.4394   21433183.8504
        -0.000          -0.000
 -31080933.315 9 -24192922.75549  20707029.288    20707028.7824   20707033.6434
        -0.000          -0.000
 -29878031.604 9 -23250571.14146  23117610.945    23117609.9024   23117614.4454
        -0.000          -0.000
  -8447146.783 8  -6201365.82245  24648475.901    24648475.1564   24648481.1294
        -0.000          -0.000
 -23108947.789 9 -17730546.17347  22171138.895    22171138.0214   22171142.4054
        -0.000          -0.000
 97  3  7  0  9  0.0000000  0  7  4  2  9 24  7 16  5                0.000213624
 -36431261.886 9 -27812685.17649  20763854.726    20763854.5634   20763858.1294
        -0.000          -0.000
 -29018512.181 8 -22597807.38845  24264285.078    24264284.2364   24264290.5914
        -0.000          -0.000
 -30557353.283 9 -23487456.60648  21431901.551    21431901.0944   21431905.5054
        -0.000          -0.000
 -31152182.668 9 -24248441.70549  20693470.953    20693470.4684   20693475.3054
        -0.000          -0.000
 -29840559.498 9 -23221372.12046  23124741.507    23124740.6254   23124745.1494
        -0.000          -0.000
  -8468323.693 8  -6217867.26845  24644446.111    24644445.2364   24644451.2734
        -0.000          -0.000
 -23214646.084 9 -17812908.45448  22151025.015    22151024.1954   22151028.6704
        -0.000          -0.000
 97  3  7  0  9 30.0000000  0  7  4  2  9 24  7 16  5                0.000195501
 -36424352.402 9 -27807301.15749  20765169.533    20765169.3824   20765172.9654
        -0.000          -0.000
 -28957998.440 9 -22550653.85645  24275800.763    24275799.8534   24275806.1374
        -0.000          -0.000
 -30563565.688 9 -23492297.44848  21430719.350    21430718.9224   21430723.3114
        -0.000          -0.000
 -31222934.347 9 -24303572.86149  20680007.357    20680006.8594   20680011.6914
        -0.000          -0.000
 -29803067.358 9 -23192157.47046  23131875.974    23131875.1564   23131879.8064
        -0.000          -0.000
  -8489018.141 8  -6233992.80645  24640508.085    24640507.1924   24640513.1304
        -0.000          -0.000
 -23320207.718 9 -17895164.24948  22130937.172    22130936.4224   22130940.9134
        -0.000          -0.000
 97  3  7  0 10  0.0000000  0  7  4  2  9 24  7 16  5                0.000177378
 -36416925.490 9 -27801513.94449  20766582.795    20766582.6544   20766586.2284
        -0.000          -0.000
 -28897279.887 8 -22503340.78646  24287355.255    24287354.2744   24287360.6714
        -0.000          -0.000
 -30569240.253 9 -23496719.19348  21429639.537    21429639.0904   21429643.4874
        -0.000          -0.000
 -31293157.384 9 -24358292.08349  20666644.347    20666643.8404   20666648.6674
        -0.000          -0.000
 -29765522.914 9 -23162902.06746  23139020.401    23139019.5204   23139024.3894
        -0.000          -0.000
  -8509193.444 9  -6249713.83545  24636668.997    24636668.1294   24636673.9634
        -0.000          -0.000
 -23425600.084 9 -17977288.14348  22110881.568    22110880.8764   22110885.3024
        -0.000          -0.000
 97  3  7  0 10 30.0000000  0  7  4  2  9 24  7 16  5                0.000159211
 -36409043.906 9 -27795372.44249  20768082.608    20768082.4464   20768086.0404
        -0.000          -0.000
 -28836425.163 8 -22455921.59046  24298935.374    24298934.4584   24298941.1694
        -0.000          -0.000
 -30574444.140 9 -23500774.16748  21428649.352    21428648.8954   21428653.2104
        -0.000          -0.000
 -31362903.760 9 -24412639.88149  20653372.048    20653371.5284   20653376.3744
        -0.000          -0.000
 -29727980.720 9 -23133648.41446  23146164.454    23146163.5544   23146168.3764
        -0.000          -0.000
  -8528910.740 9  -6265077.97545  24632917.106    24632916.1374   24632921.7624
        -0.000          -0.000
 -23530876.225 9 -18059321.46948  22090848.176    22090847.4944   22090851.8954
        -0.000          -0.000
 97  3  7  0 11  0.0000000  0  7  4  2  9 24  7 16  5                0.000141004
 -36400695.841 9 -27788867.45349  20769671.182    20769671.0264   20769674.6354
        -0.000          -0.000
 -28775432.247 8 -22408394.68745  24310541.903    24310540.9334   24310547.8934
        -0.000          -0.000
 -30579174.863 9 -23504460.45848  21427749.161    21427748.6784   21427752.9834
        -0.000          -0.000
 -31432172.049 9 -24466615.14649  20640190.645    20640190.1644   20640195.0104
        -0.000          -0.000
 -29690454.790 9 -23104407.42746  23153305.401    23153304.4614   23153309.2114
        -0.000          -0.000
  -8548164.126 9  -6280080.61845  24629253.282    24629252.4234   24629257.8254
        -0.000          -0.000
 -23636022.889 9 -18141253.92048  22070839.461    22070838.7264   22070843.1674
        -0.000          -0.000
 97  3  7  0 11 30.0000000  0  7  4  2  9 24  7 16  5                0.000122758
 -36391861.184 9 -27781983.29749  20771352.343    20771352.1824   20771355.8194
        -0.000          -0.000
 -28714280.076 9 -22360743.70645  24322178.880    24322177.9764   24322184.7864
        -0.000          -0.000
 -30583417.629 9 -23507766.51448  21426941.796    21426941.3474   21426945.5954
        -0.000          -0.000
 -31500967.843 9 -24520222.23349  20627099.238    20627098.7274   20627103.5874
        -0.000          -0.000
 -29652944.290 9 -23075178.46846  23160443.492    23160442.4704   23160447.2024
        -0.000          -0.000
  -8566942.541 9  -6294713.12545  24625679.934    24625679.0974   24625684.4584
        -0.000          -0.000
 -23741057.036 9 -18223098.69148  22050852.179    22050851.4234   22050855.8084
        -0.000          -0.000
 97  3  7  0 12  0.0000000  0  8  4  2  9 24  7 16 30  5             0.000104591
 -36382502.628 9 -27774690.91149  20773133.172    20773133.0294   20773136.6974
        -0.000          -0.000
 -28652925.648 8 -22312935.10645  24333854.356    24333853.4444   24333859.9924
        -0.000          -0.000
 -30587148.839 9 -23510673.95548  21426231.813    21426231.3294   21426235.5404
        -0.000          -0.000
 -31569285.307 9 -24573456.59549  20614098.831    20614098.3374   20614103.1934
        -0.000          -0.000
 -29615415.064 9 -23045934.92046  23167584.995    23167584.0454   23167588.8724
        -0.000          -0.000
  -8585242.491 9  -6308972.82145  24622197.615    24622196.8584   24622202.1544
        -0.000          -0.000
  -5563607.01018  -3728107.41955  24609234.272    24609234.0225   24609238.7805
        -0.000          -0.000
 -23845962.431 9 -18304843.13348  22030889.447    22030888.6734   22030892.9034
        -0.000          -0.000
 97  3  7  0 12 30.0000000  0  8  4  2  9 24  7 16 30  5             0.000086300
 -36372618.442 9 -27766988.94049  20775014.063    20775013.9374   20775017.6064
        -0.000          -0.000
 -28591358.665 8 -22264960.82845  24345570.064    24345569.0544   24345575.7734
        -0.000          -0.000
 -30590357.118 9 -23513173.92048  21425621.292    21425620.8314   21425625.0414
        -0.000          -0.000
 -31637126.381 9 -24626319.74349  20601189.060    20601188.5744   20601193.4614
        -0.000          -0.000
 -29577874.694 9 -23016682.67746  23174728.826    23174727.7804   23174732.6224
        -0.000          -0.000
  -8603058.286 8  -6322855.22045  24618807.075    24618806.4554   24618812.0624
        -0.000          -0.000
  -5690548.750 8  -3827023.02345  24585077.928    24585077.5264   24585082.6864
        -0.000          -0.000
 -23950728.137 9 -18386478.72348  22010953.348    22010952.4854   22010956.6094
        -0.000          -0.000
 97  3  7  0 13  0.0000000  0  8  4  2  9 24  7 16 30  5             0.000068009
 -36362209.394 9 -27758877.98449  20776994.870    20776994.7364   20776998.3784
        -0.000          -0.000
 -28529560.116 8 -22216806.13945  24357329.976    24357328.9934   24357335.8834
        -0.000          -0.000
 -30593017.203 9 -23515246.71448  21425115.201    21425114.6824   21425118.8954
        -0.000          -0.000
 -31704478.580 9 -24678801.94549  20588372.361    20588371.8974   20588376.7774
        -0.000          -0.000
 -29540332.617 9 -22987429.11946  23181872.951    23181871.8144   23181876.6734
        -0.000          -0.000
  -8620371.050 8  -6336345.64545  24615512.336    24615511.9454   24615517.5594
        -0.000          -0.000
  -5817534.221 8  -3925972.64545  24560913.136    24560912.8744   24560918.1874
        -0.000          -0.000
 -24055359.970 9 -18468009.99948  21991042.649    21991041.7294   21991045.8634
        -0.000          -0.000
 97  3  7  0 13 30.0000000  0  8  4  2  9 24  7 16 30  5             0.000049691
 -36351335.524 9 -27750404.83249  20779064.090    20779063.9534   20779067.5514
        -0.000          -0.000
 -28467586.590 8 -22168515.22045  24369123.245    24369122.0994   24369128.8794
        -0.000          -0.000
 -30595179.751 9 -23516931.83048  21424703.572    21424703.1674   21424707.3514
        -0.000          -0.000
 -31771376.091 9 -24730929.85249  20575642.177    20575641.6904   20575646.5624
        -0.000          -0.000
 -29502830.781 9 -22958206.91446  23189009.382    23189008.1934   23189013.0524
        -0.000          -0.000
  -8637222.219 8  -6349476.37345  24612305.721    24612305.2064   24612310.9074
        -0.000          -0.000
  -5944599.135 9  -4024984.24945  24536733.799    24536733.2634   24536738.5924
        -0.000          -0.000
 -24159907.745 9 -18549475.78048  21971147.917    21971147.0214   21971151.1034
        -0.000          -0.000
 97  3  7  0 14  0.0000000  0  8  4  2  9 24  7 16 30  5             0.000031348
 -36340010.719 9 -27741580.30249  20781219.100    20781219.0014   20781222.5874
        -0.000          -0.000
 -28405441.147 8 -22120090.29145  24380949.179    24380948.3514   24380954.9074
        -0.000          -0.000
 -30596838.852 9 -23518224.63748  21424387.948    21424387.4454   21424391.6584
        -0.000          -0.000
 -31837799.427 9 -24782688.27149  20563002.195    20563001.7304   20563006.6074
        -0.000          -0.000
 -29465371.085 9 -22929017.55246  23196137.658    23196136.5684   23196141.4294
        -0.000          -0.000
  -8653618.801 8  -6362252.88445  24609185.198    24609184.8174   24609190.6734
        -0.000          -0.000
  -6071732.372 8  -4124049.05845  24512541.383    24512540.3924   24512545.6704
        -0.000          -0.000
 -24264336.431 9 -18630848.76648  21951275.889    21951274.9784   21951278.9454
        -0.000          -0.000
 97  3  7  0 14 30.0000000  0  8  4  2  9 24  7 16 30  5             0.000012993
 -36328213.198 9 -27732387.42449  20783464.100    20783463.9774   20783467.5834
        -0.000          -0.000
 -28343110.678 8 -22071521.08744  24392810.063    24392808.9204   24392815.4624
        -0.000          -0.000
 -30597966.611 9 -23519103.42448  21424173.296    21424172.8444   21424177.0814
        -0.000          -0.000
 -31903701.106 9 -24834040.20549  20550461.494    20550461.0424   20550465.9264
        -0.000          -0.000
 -29427930.093 9 -22899842.76446  23203262.431    23203261.3374   23203266.2824
        -0.000          -0.000
  -8669530.390 8  -6374651.49345  24606157.182    24606156.7424   24606162.7244
        -0.000          -0.000
  -6198904.103 9  -4223143.83645  24488341.019    24488340.5044   24488345.6494
        -0.000          -0.000
 -24368610.258 9 -18712101.08048  21931433.269    21931432.2954   21931436.2074
        -0.000          -0.000
 97  3  7  0 15  0.0000000  0  8  4  2  9 24  7 16 30  5            -0.000005399
 -36315965.307 9 -27722843.60749  20785794.734    20785794.6144   20785798.2264
        -0.000          -0.000
 -28280631.813 8 -22022836.30945  24404699.492    24404697.9794   24404705.0904
        -0.000          -0.000
 -30598609.782 9 -23519604.60248  21424050.908    21424050.4294   21424054.6474
        -0.000          -0.000
 -31969106.152 9 -24885005.15049  20538015.295    20538014.8384   20538019.7234
        -0.000          -0.000
 -29390527.232 9 -22870697.70146  23210379.881    23210378.8884   23210383.7804
        -0.000          -0.000
  -8684986.505 8  -6386695.21645  24603216.374    24603215.6784   24603221.5754
        -0.000          -0.000
  -6326147.632 9  -4322294.56345  24464127.151    24464126.8974   24464131.9654
        -0.000          -0.000
 -24472751.315 9 -18793249.93348  21911615.736    21911614.8054   21911618.7414
        -0.000          -0.000
 97  3  7  0 15 29.9990000  0  7  4  9 24  7 16 30  5               -0.000023601
 -36303259.395 9 -27712942.88949  20788212.586    20788212.4604   20788216.0604
        -0.000          -0.000
 -30598772.990 9 -23519731.78648  21424019.792    21424019.3404   21424023.6224
        -0.000          -0.000
 -32034020.370 9 -24935587.63349  20525662.511    20525662.0504   20525666.9354
        -0.000          -0.000
 -29353151.310 9 -22841573.61746  23217492.315    23217491.3554   23217496.1564
        -0.000          -0.000
  -8700000.256 9  -6398394.22645  24600359.478    24600358.8264   24600364.5474
        -0.000          -0.000
  -6453458.479 9  -4421497.79345  24439900.713    24439900.3894   24439905.2274
        -0.000          -0.000
 -24576733.225 9 -18874274.77348  21891828.528    21891827.6634   21891831.6974
        -0.000          -0.000
 97  3  7  0 15 59.9990000  0  7  4  9 24  7 16 30  5               -0.000042098
 -36290131.348 9 -27702713.23649  20790710.783    20790710.6504   20790714.2164
        -0.000          -0.000
 -30598497.984 9 -23519517.50548  21424072.153    21424071.7444   21424075.9594
        -0.000          -0.000
 -32098496.462 9 -24985828.72049  20513393.081    20513392.6344   20513397.4984
        -0.000          -0.000
 -29315840.815 9 -22812500.51446  23224592.365    23224591.3404   23224596.1084
        -0.000          -0.000
  -8714616.826 9  -6409783.76645  24597578.083    24597577.4624   24597583.0754
        -0.000          -0.000
  -6580866.836 9  -4520776.99545  24415655.739    24415655.4644   24415660.2384
        -0.000          -0.000
 -24680609.546 9 -18955217.33548  21872061.414    21872060.5884   21872064.7044
        -0.000          -0.000
 97  3  7  0 16 29.9990000  0  7  4  9 24  7 16 30  5               -0.000060649
 -36276565.223 9 -27692142.22049  20793292.327    20793292.1834   20793295.7474
        -0.000          -0.000
 -30597785.238 9 -23518962.12648  21424207.850    21424207.3804   21424211.6334
        -0.000          -0.000
 -32162532.911 9 -25035727.22749  20501207.372    20501206.9204   20501211.7374
        -0.000          -0.000
 -29278578.458 9 -22783464.94046  23231682.996    23231682.0614   23231686.8814
        -0.000          -0.000
  -8728793.290 9  -6420830.37945  24594880.413    24594879.8194   24594885.1824
        -0.000          -0.000
  -6708341.340 9  -4620107.69445  24391398.116    24391397.9274   24391402.8874
        -0.000          -0.000
 -24784372.657 9 -19036071.68848  21852315.767    21852315.0174   21852319.2104
        -0.000          -0.000
 97  3  7  0 16 59.9990000  0  7  4  9 24  7 16 30  5               -0.000079199
 -36262496.688 9 -27681179.72049  20795969.430    20795969.3404   20795972.9374
        -0.000          -0.000
 -30596554.255 9 -23518002.92648  21424442.065    21424441.6684   21424445.9204
        -0.000          -0.000
 -32226075.432 9 -25085240.85649  20489115.630    20489115.1714   20489119.9764
        -0.000          -0.000
 -29241296.907 9 -22754414.39746  23238777.383    23238776.5494   23238781.3874
        -0.000          -0.000
  -8742444.014 9  -6431467.30345  24592282.603    24592282.1984   24592287.4434
        -0.000          -0.000
  -6835802.647 9  -4719428.17545  24367143.008    24367142.8384   24367147.5014
        -0.000          -0.000
 -24887952.457 9 -19116783.19648  21832605.078    21832604.3634   21832608.5834
        -0.000          -0.000
 97  3  7  0 17 29.9990000  0  7  4  9 24  7 16 30  5               -0.000097723
 -36247919.859 9 -27669821.14649  20798743.359    20798743.2504   20798746.8354
        -0.000          -0.000
 -30594779.185 9 -23516619.76448  21424779.925    21424779.4644   21424783.6984
        -0.000          -0.000
 -32289103.589 9 -25134353.68549  20477121.736    20477121.3044   20477126.1214
        -0.000          -0.000
 -29203974.593 9 -22725332.09346  23245879.481    23245878.7434   23245883.6164
        -0.000          -0.000
  -8755558.882 8  -6441686.64945  24589786.949    24589786.3264   24589791.7584
        -0.000          -0.000
  -6963231.963 8  -4818723.67045  24342893.935    24342894.0164   24342898.3334
        -0.000          -0.000
 -24991340.781 9 -19197345.50848  21812930.932    21812930.2324   21812934.4224
        -0.000          -0.000
 97  3  7  0 17 59.9990000  0  7  4  9 24  7 16 30  5               -0.000116236
 -36232859.878 9 -27658086.08749  20801609.153    20801609.0464   20801612.6324
        -0.000          -0.000
 -30592501.615 9 -23514845.04548  21425213.269    21425212.8444   21425217.1484
        -0.000          -0.000
 -32351627.456 9 -25183073.56049  20465223.807    20465223.3614   20465228.1914
        -0.000          -0.000
 -29166629.946 9 -22696232.36946  23252986.025    23252985.1934   23252990.0624
        -0.000          -0.000
  -8768146.084 8  -6451494.82845  24587391.603    24587390.8544   24587396.4434
        -0.000          -0.000
  -7090658.338 8  -4918016.87045  24318645.123    24318645.4324   24318649.9024
        -0.000          -0.000
 -25094559.059 9 -19277775.31048  21793289.163    21793288.4114   21793292.6744
        -0.000          -0.000
 97  3  7  0 18 29.9990000  0  7  4  9 24  7 16 30  5               -0.000134754
 -36217330.265 9 -27645985.08249  20804564.360    20804564.2504   20804567.8114
        -0.000          -0.000
 -30589729.104 9 -23512684.64848  21425740.921    21425740.4384   21425744.7544
        -0.000          -0.000
 -32413644.527 9 -25231398.52649  20453422.333    20453421.9214   20453426.7234
        -0.000          -0.000
 -29129269.280 9 -22667120.19246  23260095.392    23260094.5824   23260099.5494
        -0.000          -0.000
  -8780224.383 8  -6460906.43145  24585093.075    24585092.1954   24585098.0614
        -0.000          -0.000
  -7218105.718 8  -5017326.50345  24294392.591    24294392.7534   24294397.5624
        -0.000          -0.000
 -25197600.058 9 -19358066.98148  21773681.067    21773680.3054   21773684.6474
        -0.000          -0.000
 97  3  7  0 18 59.9990000  0  8  4  9 24  7 16 30  5 10            -0.000153212
 -36201327.172 9 -27633515.13049  20807609.660    20807609.5524   20807613.1044
        -0.000          -0.000
 -30586444.766 9 -23510125.43348  21426365.852    21426365.3864   21426369.7794
        -0.000          -0.000
 -32475119.709 9 -25279301.24449  20441723.990    20441723.5594   20441728.3444
        -0.000          -0.000
 -29091876.334 9 -22637982.83046  23267211.208    23267210.1964   23267215.2224
        -0.000          -0.000
  -8791813.146 8  -6469936.60745  24582887.483    24582886.8914   24582892.7314
        -0.000          -0.000
  -7345569.556 8  -5116648.84645  24270136.920    24270136.8854   24270142.1264
        -0.000          -0.000
 -25300461.142 9 -19438218.45748  21754107.216    21754106.4864   21754110.8134
        -0.000          -0.000
  -5296996.88418  -3827353.14655  24601834.695    24601833.7565   24601840.4445
        -0.000          -0.000
 97  3  7  0 19 29.9990000  0  8  4  9 24  7 16 30  5 10            -0.000171752
 -36184864.308 9 -27620686.92249  20810742.411    20810742.3034   20810745.8744
        -0.000          -0.000
 -30582674.284 9 -23507187.39948  21427083.440    21427082.9694   21427087.3234
        -0.000          -0.000
 -32536051.157 9 -25326780.27349  20430129.208    20430128.7464   20430133.5054
        -0.000          -0.000
 -29054453.778 9 -22608822.40046  23274332.457    23274331.5554   23274336.5474
        -0.000          -0.000
  -8802937.424 9  -6478604.86545  24580770.731    24580770.2364   24580775.9204
        -0.000          -0.000
  -7473067.447 8  -5215997.80845  24245874.869    24245874.7194   24245879.9384
        -0.000          -0.000
 -25403145.772 9 -19518232.42748  21734566.995    21734566.2234   21734570.5174
        -0.000          -0.000
  -5419263.841 8  -3922626.05345  24578567.856    24578567.0124   24578573.7734
        -0.000          -0.000
 97  3  7  0 19 59.9990000  0  8  4  9 24  7 16 30  5 10            -0.000190292
 -36167914.008 9 -27607478.89049  20813967.941    20813967.8504   20813971.4524
        -0.000          -0.000
 -30578384.872 9 -23503845.01048  21427899.648    21427899.1544   21427903.5524
        -0.000          -0.000
 -32596417.444 9 -25373818.91849  20418641.841    20418641.3794   20418646.1364
        -0.000          -0.000
 -29016984.030 9 -22579625.18846  23281462.753    23281461.8594   23281466.7774
        -0.000          -0.000
  -8813569.825 8  -6486889.83945  24578747.639    24578747.1984   24578752.7444
        -0.000          -0.000
  -7600570.935 8  -5315351.14845  24221612.293    24221611.7374   24221616.5384
        -0.000          -0.000
 -25505622.182 9 -19598084.15848  21715066.290    21715065.5834   21715069.8634
        -0.000          -0.000
  -5541613.810 8  -4017963.64345  24555285.810    24555284.7304   24555291.2734
        -0.000          -0.000
 97  3  7  0 20 29.9990000  0  8  4  9 24  7 16 30  5 10            -0.000208861
 -36150532.853 9 -27593935.13149  20817275.476    20817275.3504   20817278.9564
        -0.000          -0.000
 -30573613.880 9 -23500127.35648  21428807.592    21428807.1254   21428811.4374
        -0.000          -0.000
 -32656283.120 9 -25420467.47849  20407249.756    20407249.2954   20407254.0684
        -0.000          -0.000
 -28979521.889 9 -22550433.90846  23288591.579    23288590.6644   23288595.5274
        -0.000          -0.000
  -8823771.373 8  -6494839.10345  24576806.282    24576805.7324   24576811.5514
        -0.000          -0.000
  -7728131.279 8  -5414748.71245  24197338.574    24197337.8214   24197342.4114
        -0.000          -0.000
 -25607951.863 9 -19677821.54948  21695593.546    21695592.8944   21695597.1904
        -0.000          -0.000
  -5664079.210 8  -4113391.28645  24531981.270    24531980.0054   24531986.6334
        -0.000          -0.000
 97  3  7  0 20 59.9990000  0  8  4  9 24  7 16 30  5 10            -0.000227458
 -36132713.797 9 -27580050.14949  20820666.289    20820666.2034   20820669.7914
        -0.000          -0.000
 -30568356.952 9 -23496031.05848  21429807.964    21429807.4934   21429811.7754
        -0.000          -0.000
 -32715654.906 9 -25466731.18749  20395951.660    20395951.1974   20395955.9544
        -0.000          -0.000
 -28942064.785 9 -22521246.54746  23295719.530    23295718.5704   23295723.3734
        -0.000          -0.000
  -8833521.061 8  -6502436.28945  24574951.049    24574950.5354   24574956.0444
        -0.000          -0.000
  -7855753.546 8  -5514194.54445  24173052.472    24173051.9854   24173056.5974
        -0.000          -0.000
 -25710130.098 9 -19757440.93748  21676149.654    21676148.9954   21676153.3224
        -0.000          -0.000
  -5786657.585 8  -4208906.87445  24508655.290    24508653.9614   24508660.3074
        -0.000          -0.000
 97  3  7  0 21 29.9990000  0  8  4  9 24  7 16 30  5 10            -0.000246051
 -36114403.966 9 -27565782.74749  20824150.556    20824150.4614   20824154.0624
        -0.000          -0.000
 -30562569.742 9 -23491521.55248  21430909.214    21430908.7804   21430913.0104
        -0.000          -0.000
 -32774503.056 9 -25512586.86749  20384753.184    20384752.7694   20384757.4934
        -0.000          -0.000
 -28904575.604 9 -22492034.19646  23302853.552    23302852.6204   23302857.4344
        -0.000          -0.000
  -8842750.420 8  -6509627.98645  24573194.459    24573193.8244   24573199.2974
        -0.000          -0.000
  -7983404.727 9  -5613662.92145  24148760.809    24148760.6714   24148765.4154
        -0.000          -0.000
 -25812102.782 9 -19836900.15548  21656744.954    21656744.2684   21656748.5694
        -0.000          -0.000
  -5909294.569 8  -4304468.05945  24485318.569    24485317.3564   24485323.4004
        -0.000          -0.000
 97  3  7  0 21 59.9990000  0  8  4  9 24  7 16 30  5 10            -0.000264666
 -36095652.144 9 -27551170.93249  20827718.944    20827718.8204   20827722.3994
        -0.000          -0.000
 -30556307.587 9 -23486641.95248  21432100.928    21432100.4464   21432104.5794
        -0.000          -0.000
 -32832875.761 9 -25558072.06949  20373645.255    20373644.8094   20373649.5254
        -0.000          -0.000
 -28867117.330 9 -22462845.91846  23309981.591    23309980.6274   23309985.5074
        -0.000          -0.000
  -8851506.464 8  -6516450.83345  24571528.281    24571527.6374   24571533.5174
        -0.000          -0.000
  -8111119.942 9  -5713181.20845  24124457.409    24124457.3054   24124462.1904
        -0.000          -0.000
 -25913921.547 9 -19916239.43748  21637369.561    21637368.8514   21637373.0504
        -0.000          -0.000
  -6032026.309 8  -4400103.09545  24461963.790    24461962.4464   24461968.5334
        -0.000          -0.000
 97  3  7  0 22 29.9990000  0  8  4  9 24  7 16 30  5 10            -0.000283284
 -36076426.090 9 -27536189.58949  20831377.536    20831377.4184   20831380.9754
        -0.000          -0.000
 -30549552.619 9 -23481378.35748  21433386.317    21433385.9164   21433390.0034
        -0.000          -0.000
 -32890732.330 9 -25603155.09049  20362635.513    20362635.0614   20362639.7704
        -0.000          -0.000
 -28829663.051 9 -22433660.78146  23317108.607    23317107.7624   23317112.8654
        -0.000          -0.000
  -8859741.499 8  -6522867.70345  24569961.082    24569960.2714   24569966.0304
        -0.000          -0.000
  -8238850.055 9  -5812711.09545  24100151.289    24100151.0734   24100156.0244
        -0.000          -0.000
 -26015550.043 9 -19995430.45148  21618030.376    21618029.6094   21618033.7254
        -0.000          -0.000
  -6154833.124 8  -4495796.63845  24438594.032    24438592.7254   24438598.9164
        -0.000          -0.000
 97  3  7  0 22 59.9990000  0  8  4  9 24  7 16 30  5 10            -0.000301914
 -36056751.014 9 -27520858.35649  20835121.581    20835121.4664   20835125.0454
        -0.000          -0.000
 -30542326.766 9 -23475747.82848  21434761.398    21434760.9444   21434764.9774
        -0.000          -0.000
 -32948080.946 9 -25647842.30649  20351722.431    20351721.9664   20351726.6644
        -0.000          -0.000
 -28792241.646 9 -22404501.24046  23324229.750    23324228.9214   23324233.9374
        -0.000          -0.000
  -8867476.784 8  -6528895.19945  24568489.196    24568488.3804   24568494.2554
        -0.000          -0.000
  -8366586.912 9  -5912246.24846  24075843.950    24075843.6504   24075848.3714
        -0.000          -0.000
 -26117007.076 9 -20074487.86148  21598723.748    21598722.9654   21598727.0704
        -0.000          -0.000
  -6277741.675 9  -4591569.46445  24415205.041    24415203.7964   24415210.3194
        -0.000          -0.000
 97  3  7  0 23 29.9990000  0  8  4  9 24  7 16 30  5 10            -0.000320527
 -36036588.194 9 -27505147.06549  20838958.420    20838958.3294   20838961.9234
        -0.000          -0.000
 -30534597.434 9 -23469724.98248  21436232.204    21436231.7764   21436235.7964
        -0.000          -0.000
 -33004887.473 9 -25692107.11849  20340912.489    20340912.0204   20340916.7034
        -0.000          -0.000
 -28754814.351 9 -22375337.11346  23331351.909    23331351.1124   23331356.0474
        -0.000          -0.000
  -8874682.405 8  -6534509.95945  24567118.213    24567117.4284   24567123.0544
        -0.000          -0.000
  -8494261.337 9  -6011732.70246  24051548.301    24051548.0104   24051552.5874
        -0.000          -0.000
 -26218254.036 9 -20153381.58248  21579457.085    21579456.2934   21579460.4374
        -0.000          -0.000
  -6400721.647 9  -4687397.96345  24391802.931    24391801.7174   24391808.2654
        -0.000          -0.000
 97  3  7  0 23 59.9990000  0  8  4  9 24  7 16 30  5 10            -0.000339143
 -36015979.998 9 -27489088.72749  20842880.057    20842879.9444   20842883.5244
        -0.000          -0.000
 -30526391.422 9 -23463330.69448  21437793.819    21437793.3744   21437797.3864
        -0.000          -0.000
 -33061189.582 9 -25735978.86949  20330198.520    20330198.0674   20330202.7584
        -0.000          -0.000
 -28717408.190 9 -22346189.47946  23338469.934    23338469.1944   23338474.2884
        -0.000          -0.000
  -8881402.760 8  -6539746.58645  24565839.319    24565838.6644   24565844.3904
        -0.000          -0.000
  -8621882.977 9  -6111178.05446  24027262.361    24027262.1534   24027266.9924
        -0.000          -0.000
 -26319319.135 9 -20232133.59348  21560225.036    21560224.2574   21560228.3724
        -0.000          -0.000
  -6523810.275 9  -4783311.12245  24368379.858    24368378.6044   24368385.1914
        -0.000          -0.000
 97  3  7  0 24 29.9990000  0  8  4  9 24  7 16 30  5 10            -0.000357752
 -35994923.366 9 -27472680.96049  20846886.999    20846886.8814   20846890.4524
        -0.000          -0.000
 -30517683.944 9 -23456545.65948  21439450.782    21439450.3274   21439454.4084
        -0.000          -0.000
 -33116992.780 9 -25779461.86349  20319579.519    20319579.0684   20319583.7504
        -0.000          -0.000
 -28679990.694 9 -22317033.01746  23345590.062    23345589.5054   23345594.5644
        -0.000          -0.000
  -8887627.345 8  -6544596.90845  24564654.878    24564654.2734   24564659.7444
        -0.000          -0.000
  -8749454.954 9  -6210584.74446  24002986.054    24002986.0094   24002990.8194
        -0.000          -0.000
 -26420194.652 9 -20310737.87448  21541029.062    21541028.2674   21541032.3114
        -0.000          -0.000
  -6646997.027 9  -4879300.71345  24344938.046    24344936.8614   24344943.4464
        -0.000          -0.000
 97  3  7  0 24 59.9990000  0  8  4  9 24  7 16 30  5 10            -0.000376370
 -35973434.046 9 -27455936.03149  20850976.266    20850976.1504   20850979.7204
        -0.000          -0.000
 -30508485.834 9 -23449378.30348  21441201.163    21441200.7054   21441204.8164
        -0.000          -0.000
 -33172326.078 9 -25822578.70149  20309049.958    20309049.5084   20309054.1724
        -0.000          -0.000
 -28642552.729 9 -22287860.60446  23352714.518    23352713.7424   23352718.9714
        -0.000          -0.000
  -8893380.710 8  -6549080.02545  24563559.804    24563559.2944   24563564.6954
        -0.000          -0.000
  -8877021.075 9  -6309986.82346  23978711.293    23978711.1634   23978715.7694
        -0.000          -0.000
 -26520901.234 9 -20389210.51648  21521865.167    21521864.3734   21521868.4034
        -0.000          -0.000
  -6770293.552 9  -4975375.86145  24321475.359    24321474.3044   24321481.0214
        -0.000          -0.000
 97  3  7  0 25 29.9990000  0  8  4  9 24  7 16 30  5 10            -0.000394981
 -35951471.372 9 -27438822.25549  20855155.655    20855155.5264   20855159.0884
        -0.000          -0.000
 -30498771.608 9 -23441808.78748  21443049.662    21443049.2064   21443053.4254
        -0.000          -0.000
 -33227165.750 9 -25865310.89349  20298614.290    20298613.8624   20298618.5214
        -0.000          -0.000
 -28605057.409 9 -22258643.48646  23359849.847    23359848.9034   23359854.0444
        -0.000          -0.000
  -8898620.610 8  -6553163.02045  24562562.712    24562561.7424   24562567.6094
        -0.000          -0.000
  -9004577.299 9  -6409381.22346  23954438.015    23954437.8884   23954442.6114
        -0.000          -0.000
 -26621399.245 9 -20467520.63948  21502741.028    21502740.2334   21502744.3154
        -0.000          -0.000
  -6893657.514 9  -5071503.57145  24298000.006    24297998.7654   24298005.4644
        -0.000          -0.000
 97  3  7  0 25 59.9990000  0  8  4  9 24  7 16 30  5 10            -0.000413621
 -35929094.516 9 -27421385.74348  20859413.828    20859413.6984   20859417.2454
        -0.000          -0.000
 -30488594.583 9 -23433878.65048  21444986.276    21444985.8154   21444990.1314
        -0.000          -0.000
 -33281549.038 9 -25907687.46249  20288265.499    20288265.0474   20288269.6934
        -0.000          -0.000
 -28567567.156 9 -22229430.34746  23366984.023    23366983.0644   23366988.2344
        -0.000          -0.000
  -8903398.355 8  -6556885.96345  24561653.528    24561652.5924   24561658.6064
        -0.000          -0.000
  -9132197.432 9  -6508825.43246  23930152.457    23930152.3914   23930157.1924
        -0.000          -0.000
 -26721742.925 9 -20545710.51448  21483646.253    21483645.4724   21483649.5774
        -0.000          -0.000
  -7017121.363 9  -5167709.10045  24274505.354    24274504.2704   24274510.7734
        -0.000          -0.000
 97  3  7  0 26 29.9990000  0  7  4  9 24  7 30  5 10               -0.000432231
 -35906248.961 9 -27403584.01248  20863761.197    20863761.0694   20863764.6494
        -0.000          -0.000
 -30477928.194 9 -23425567.18448  21447015.998    21447015.5504   21447019.8964
        -0.000          -0.000
 -33335413.627 9 -25949659.85549  20278015.398    20278014.9524   20278019.5834
        -0.000          -0.000
 -28530042.777 9 -22200190.58546  23374124.639    23374123.6414   23374128.8924
        -0.000          -0.000
  -9259843.774 9  -6608290.03746  23905862.316    23905862.1164   23905866.9494
        -0.000          -0.000
 -26821874.770 9 -20623735.31248  21464591.811    21464591.0134   21464595.1034
        -0.000          -0.000
  -7140636.174 9  -5263954.32145  24251001.217    24251000.2514   24251006.8344
        -0.000          -0.000
 97  3  7  0 26 59.9990000  0  7  4  9 24  7 30  5 10               -0.000450878
 -35882926.588 9 -27385410.73148  20868199.285    20868199.1564   20868202.7224
        -0.000          -0.000
 -30466782.061 9 -23416881.89448  21449136.992    21449136.5724   21449140.9734
        -0.000          -0.000
 -33388735.788 9 -25991209.57149  20267868.472    20267868.0374   20267872.6754
        -0.000          -0.000
 -28492503.740 9 -22170939.42246  23381268.085    23381267.0454   23381272.3494
        -0.000          -0.000
  -9387490.220 9  -6707754.75345  23881571.998    23881571.7814   23881576.5624
        -0.000          -0.000
 -26921771.220 9 -20701576.68648  21445582.104    21445581.3134   21445585.4264
        -0.000          -0.000
  -7264200.680 8  -5360238.29245  24227487.932    24227486.8814   24227493.3774
        -0.000          -0.000
 97  3  7  0 27 29.9990000  0  7  4  9 24  7 30  5 10               -0.000469558
 -35859193.246 9 -27366917.21248  20872715.596    20872715.4904   20872719.0674
        -0.000          -0.000
 -30455200.053 9 -23407856.96648  21451341.012    21451340.5864   21451344.9484
        -0.000          -0.000
 -33441546.369 9 -26032360.65549  20257818.935    20257818.5044   20257823.1444
        -0.000          -0.000
 -28455022.322 9 -22141733.13746  23388400.668    23388399.6184   23388404.8024
        -0.000          -0.000
  -9515148.971 9  -6807229.07545  23857279.405    23857279.1504   23857283.7434
        -0.000          -0.000
 -27021461.393 9 -20779257.33248  21426611.652    21426610.8764   21426615.0244
        -0.000          -0.000
  -7387855.759 8  -5456592.89145  24203956.923    24203955.7904   24203962.6354
        -0.000          -0.000
 97  3  7  0 27 59.9990000  0  7  4  9 24  7 30  5 10               -0.000488269
 -35835058.620 9 -27348111.00448  20877308.302    20877308.1704   20877311.7534
        -0.000          -0.000
 -30443170.082 9 -23398482.97248  21453630.243    21453629.8114   21453634.1374
        -0.000          -0.000
 -33493824.255 9 -26073096.65449  20247870.787    20247870.3414   20247874.9744
        -0.000          -0.000
 -28417582.137 9 -22112558.96546  23395525.355    23395524.3954   23395529.4044
        -0.000          -0.000
  -9642807.410 8  -6906703.09445  23832986.361    23832986.4174   23832990.9404
        -0.000          -0.000
 -27120931.004 9 -20856766.10348  21407683.189    21407682.4404   21407686.6064
        -0.000          -0.000
  -7511603.190 8  -5553019.42245  24180408.440    24180407.4314   24180414.0294
        -0.000          -0.000
 97  3  7  0 28 29.9990000  0  7  4  9 24  7 30  5 10               -0.000506995
 -35810519.185 9 -27328989.36348  20881977.992    20881977.8684   20881981.4444
        -0.000          -0.000
 -30430671.772 9 -23388744.04248  21456008.620    21456008.1954   21456012.4654
        -0.000          -0.000
 -33545571.278 9 -26113418.99349  20238023.636    20238023.2284   20238027.8554
        -0.000          -0.000
 -28380152.865 9 -22083393.33046  23402647.929    23402646.8854   23402652.0354
        -0.000          -0.000
  -9770441.059 9  -7006157.84745  23808698.025    23808698.3514   23808702.8284
        -0.000          -0.000
 -27220164.681 9 -20934091.02848  21388799.610    21388798.8734   21388803.0254
        -0.000          -0.000
  -7635441.634 8  -5649516.85745  24156843.040    24156842.0254   24156847.8864
        -0.000          -0.000
 97  3  7  0 28 59.9990000  0  7  4  9 24  7 30  5 10               -0.000525748
 -35785605.833 9 -27309576.35948  20886718.814    20886718.7064   20886722.2784
        -0.000          -0.000
 -30417717.587 9 -23378649.88748  21458473.757    21458473.3084   21458477.5514
        -0.000          -0.000
 -33596822.941 9 -26153355.34149  20228270.752    20228270.3104   20228274.9484
        -0.000          -0.000
 -28342752.514 9 -22054250.20346  23409765.096    23409764.0684   23409769.0824
        -0.000          -0.000
  -9898076.098 9  -7105613.67745  23784410.290    23784410.2954   23784414.5724
        -0.000          -0.000
 -27319202.661 9 -21011263.47048  21369953.340    21369952.5704   21369956.7504
        -0.000          -0.000
  -7759390.332 8  -5746100.17345  24133256.341    24133255.2364   24133261.0444
        -0.000          -0.000
 97  3  7  0 29 29.9990000  0  7  4  9 24  7 30  5 10               -0.000544519
 -35760295.545 9 -27289854.05248  20891535.181    20891535.1114   20891538.6474
        -0.000          -0.000
 -30404288.501 9 -23368185.67748  21461029.237    21461028.7894   21461032.9664
        -0.000          -0.000
 -33647579.642 9 -26192906.00149  20218612.061    20218611.6364   20218616.2634
        -0.000          -0.000
 -28305351.345 9 -22025106.42946  23416882.443    23416881.2714   23416886.3264
        -0.000          -0.000
 -10025722.245 9  -7205078.14945  23760120.456    23760120.1714   23760124.4824
        -0.000          -0.000
 -27418043.490 9 -21088282.28548  21351144.596    21351143.8114   21351147.9464
        -0.000          -0.000
  -7883416.615 8  -5842744.02245  24109654.800    24109653.6354   24109659.7384
        -0.000          -0.000
 97  3  7  0 29 59.9990000  0  7  4  9 24  7 30  5 10               -0.000563275
 -35734513.754 9 -27269764.33948  20896441.289    20896441.2254   20896444.7734
        -0.000          -0.000
 -30390341.848 9 -23357318.17048  21463683.212    21463682.7924   21463686.9594
        -0.000          -0.000
 -33697801.674 9 -26232040.03249  20209055.089    20209054.6934   20209059.3094
        -0.000          -0.000
 -28267880.734 9 -21995908.55446  23424012.924    23424011.7044   23424016.8074
        -0.000          -0.000
 -10153340.580 8  -7304520.98445  23735835.291    23735835.0844   23735839.4014
        -0.000          -0.000
 -27516637.826 9 -21165109.02348  21332382.765    21332381.9394   21332386.0524
        -0.000          -0.000
  -8007459.436 8  -5939400.72745  24086050.232    24086048.9754   24086055.1504
        -0.000          -0.000
 97  3  7  0 30 29.9990000  0  7  4  9 24  7 30  5 10               -0.000582037
 -35708289.192 9 -27249329.61248  20901431.644    20901431.5704   20901435.1384
        -0.000          -0.000
 -30375927.816 9 -23346086.47248  21466426.175    21466425.7334   21466429.9204
        -0.000          -0.000
 -33747541.364 9 -26270798.21449  20199589.935    20199589.5354   20199594.1574
        -0.000          -0.000
 -28230393.082 9 -21966697.41846  23431146.420    23431145.2864   23431150.3624
        -0.000          -0.000
 -10280958.445 9  -7403963.41945  23711549.912    23711549.9664   23711554.4794
        -0.000          -0.000
 -27615032.207 9 -21241779.95748  21313658.908    21313658.0924   21313662.1924
        -0.000          -0.000
  -8131545.951 9  -6036091.47145  24062437.478    24062436.1724   24062442.4374
        -0.000          -0.000
 97  3  7  0 30 59.9990000  0  7  4  9 24  7 30  5 10               -0.000600818
 -35681621.438 9 -27228549.54348  20906506.316    20906506.2574   20906509.8544
        -0.000          -0.000
 -30361072.218 9 -23334510.69248  21469253.153    21469252.6564   21469256.8394
        -0.000          -0.000
 -33796786.302 9 -26309170.87749  20190218.894    20190218.4934   20190223.1194
        -0.000          -0.000
 -28192901.030 9 -21937482.82446  23438281.045    23438279.8274   23438284.9174
        -0.000          -0.000
 -10408594.741 9  -7503420.23545  23687261.595    23687261.7604   23687265.7364
        -0.000          -0.000
 -27713226.816 9 -21318295.21948  21294972.974    21294972.2374   21294976.2944
        -0.000          -0.000
  -8255674.427 9  -6132814.87345  24038816.445    24038815.2254   24038821.4474
        -0.000          -0.000
 97  3  7  0 31 29.9990000  0  7  4  9 24  7 30  5 10               -0.000619614
 -35654526.968 9 -27207436.96848  20911662.196    20911662.1484   20911665.7364
        -0.000          -0.000
 -30345764.473 9 -23322582.59548  21472166.033    21472165.5894   21472169.8414
        -0.000          -0.000
 -33845527.795 9 -26347151.24549  20180943.695    20180943.2944   20180947.9564
        -0.000          -0.000
 -28155406.701 9 -21908266.47946  23445415.854    23445414.8174   23445419.8114
        -0.000          -0.000
 -10536241.504 9  -7602885.22346  23662971.567    23662971.4864   23662975.1924
        -0.000          -0.000
 -27811198.670 9 -21394636.91248  21276329.532    21276328.7944   21276332.8764
        -0.000          -0.000
  -8379841.319 9  -6229568.25746  24015188.146    24015187.0714   24015193.0754
        -0.000          -0.000
 97  3  7  0 31 59.9990000  0  7  4  9 24  7 30  5 10               -0.000638423
 -35627016.712 9 -27186000.39948  20916897.199    20916897.1444   20916900.7404
        -0.000          -0.000
 -30330004.089 9 -23310301.79148  21475165.135    21475164.6934   21475168.9864
        -0.000          -0.000
 -33893737.623 9 -26384717.33149  20171769.687    20171769.2854   20171773.9214
        -0.000          -0.000
 -28117907.630 9 -21879046.39846  23452551.752    23452550.6574   23452555.5614
        -0.000          -0.000
 -10663864.568 9  -7702331.70246  23638685.478    23638685.5094   23638689.4364
        -0.000          -0.000
 -27908935.664 9 -21470795.59548  21257730.715    21257730.0204   21257734.1524
        -0.000          -0.000
  -8504052.045 9  -6326355.76946  23991551.708    23991550.6054   23991556.3854
        -0.000          -0.000
 97  3  7  0 32 29.9990000  0  7  4  9 24  7 30  5 10               -0.000657245
 -35599100.528 9 -27164247.52748  20922209.462    20922209.4164   20922213.0154
        -0.000          -0.000
 -30313791.659 9 -23297668.73448  21478250.247    21478249.8074   21478254.1134
        -0.000          -0.000
 -33941400.167 9 -26421856.95949  20162699.841    20162699.4244   20162704.0704
        -0.000          -0.000
 -28080402.229 9 -21849821.43145  23459688.564    23459687.5764   23459692.5474
        -0.000          -0.000
 -10791455.843 9  -7801753.44646  23614405.455    23614405.5574   23614409.7334
        -0.000          -0.000
 -28006436.623 9 -21546770.35648  21239176.866    21239176.2044   21239180.3054
        -0.000          -0.000
  -8628306.621 9  -6423177.40746  23967906.669    23967905.5654   23967911.7394
        -0.000          -0.000
 97  3  7  0 32 59.9990000  0  7  4  9 24  7 30  5 10               -0.000676082
 -35570797.397 9 -27142193.13948  20927595.413    20927595.3374   20927598.9714
        -0.000          -0.000
 -30297130.940 9 -23284686.37448  21481420.601    21481420.1824   21481424.5674
        -0.000          -0.000
 -33988522.883 9 -26458575.94249  20153732.676    20153732.2524   20153736.8554
        -0.000          -0.000
 -28042886.282 9 -21820588.22645  23466827.540    23466826.6844   23466831.6044
        -0.000          -0.000
 -10919019.532 9  -7901153.66346  23590130.974    23590130.9724   23590135.2454
        -0.000          -0.000
 -28103701.360 9 -21622561.04548  21220668.060    21220667.3684   21220671.4174
        -0.000          -0.000
  -8752615.189 9  -6520041.15846  23944251.408    23944250.3404   23944256.8994
        -0.000          -0.000
 97  3  7  0 33 29.9990000  0  7  4  9 24  7 30  5 10               -0.000694926
 -35542110.484 9 -27119839.69748  20933054.307    20933054.2484   20933057.8774
        -0.000          -0.000
 -30280024.596 9 -23271356.76648  21484675.854    21484675.4394   21484679.8204
        -0.000          -0.000
 -34035124.886 9 -26494889.17749  20144864.593    20144864.1714   20144868.7754
        -0.000          -0.000
 -28005364.786 9 -21791350.70345  23473967.658    23473966.9214   23473971.6714
        -0.000          -0.000
 -11046537.808 9  -8000518.50946  23565865.124    23565865.0914   23565869.2484
        -0.000          -0.000
 -28200747.902 9 -21698181.71448  21202200.697    21202200.0124   21202204.0554
        -0.000          -0.000
  -8876981.019 9  -6616949.53746  23920585.357    23920584.3344   23920590.7504
        -0.000          -0.000
 97  3  7  0 33 59.9990000  0  7  4  9 24  7 30  5 10               -0.000713790
 -35513024.197 9 -27097175.05848  20938589.223    20938589.1664   20938592.7974
        -0.000          -0.000
 -30262508.032 9 -23257707.50848  21488009.158    21488008.7514   21488013.1144
        -0.000          -0.000
 -34081217.696 9 -26530805.63649  20136093.398    20136093.0034   20136097.6084
        -0.000          -0.000
 -27967840.441 9 -21762110.90545  23481108.342    23481107.6484   23481112.0954
        -0.000          -0.000
 -11174015.229 9  -8099851.53146  23541606.929    23541606.9354   23541611.0284
        -0.000          -0.000
 -28297596.183 9 -21773647.89748  21183771.024    21183770.3614   21183774.4404
        -0.000          -0.000
  -9001418.261 9  -6713913.48646  23896905.478    23896904.3584   23896910.9864
        -0.000          -0.000
 97  3  7  0 34 29.9990000  0  7  4  9 24  7 30  5 10               -0.000732667
 -35483539.616 9 -27074200.06048  20944199.955    20944199.9024   20944203.5334
        -0.000          -0.000
 -30244578.657 9 -23243736.58448  21491420.961    21491420.6094   21491424.9374
        -0.000          -0.000
 -34126817.269 9 -26566337.75549  20127416.049    20127415.6504   20127420.2494
        -0.000          -0.000
 -27930305.657 9 -21732863.06545  23488250.878    23488250.0924   23488254.6774
        -0.000          -0.000
 -11301461.195 9  -8199160.01246  23517354.921    23517354.8044   23517358.9404
        -0.000          -0.000
 -28394241.768 9 -21848956.12848  21165379.954    21165379.2934   21165383.3884
        -0.000          -0.000
  -9125913.293 9  -6810922.50346  23873214.610    23873213.5584   23873220.4314
        -0.000          -0.000
 97  3  7  0 34 59.9990000  0  7  4  9 24  7 30  5 10               -0.000751534
 -35453628.217 9 -27050892.47748  20949891.920    20949891.8724   20949895.4854
        -0.000          -0.000
 -30226201.459 9 -23229416.70048  21494918.113    21494917.7184   21494922.0094
        -0.000          -0.000
 -34171910.172 9 -26601475.06749  20118835.110    20118834.7114   20118839.3244
        -0.000          -0.000
 -27892734.416 8 -21703586.77945  23495400.607    23495399.7334   23495404.2284
        -0.000          -0.000
 -11428844.783 9  -8298419.88946  23493114.526    23493114.5154   23493118.6984
        -0.000          -0.000
 -28490649.883 9 -21924079.32348  21147034.066    21147033.4334   21147037.4974
        -0.000          -0.000
  -9250427.113 8  -6907946.19346  23849520.353    23849519.3814   23849526.2574
        -0.000          -0.000
 97  3  7  0 35 29.9990000  0  7  4  9 24  7 30  5 10               -0.000770395
 -35423280.061 9 -27027244.56048  20955667.003    20955666.9644   20955670.5394
        -0.000          -0.000
 -30207371.673 9 -23214744.16148  21498501.362    21498500.9574   21498505.2134
        -0.000          -0.000
 -34216489.476 9 -26636212.17249  20110351.981    20110351.5734   20110356.1714
        -0.000          -0.000
 -27855130.171 8 -21674284.78645  23502556.413    23502555.5404   23502560.1754
        -0.000          -0.000
 -11556167.560 9  -8397632.39646  23468885.707    23468885.6594   23468889.8894
        -0.000          -0.000
 -28586810.341 9 -21999009.54148  21128735.321    21128734.6714   21128738.7574
        -0.000          -0.000
  -9374956.493 8  -7004981.93546  23825823.324    23825822.2364   23825828.9724
        -0.000          -0.000
 97  3  7  0 35 59.9990000  0  7  4  9 24  7 30  5 10               -0.000789247
 -35392510.263 9 -27003268.09348  20961522.309    20961522.2904   20961525.8384
        -0.000          -0.000
 -30188075.316 9 -23199708.04948  21502173.435    21502173.0454   21502177.2124
        -0.000          -0.000
 -34260540.722 9 -26670537.80149  20101969.274    20101968.8864   20101973.4824
        -0.000          -0.000
 -27817487.091 8 -21644952.54245  23509719.462    23509718.7204   23509723.6334
        -0.000          -0.000
 -11683423.189 9  -8496792.58046  23444669.639    23444669.6624   23444673.8134
        -0.000          -0.000
 -28682691.352 9 -22073722.00348  21110489.746    21110489.1224   21110493.2214
        -0.000          -0.000
  -9499490.472 8  -7102021.26945  23802125.173    23802124.1234   23802130.8294
        -0.000          -0.000
 97  3  7  0 36 29.9990000  0  7  4  9 24  7 30  5 10               -0.000808098
 -35361360.233 9 -26978995.34148  20967449.930    20967449.9164   20967453.4604
        -0.000          -0.000
 -30168316.951 9 -23184311.93748  21505933.357    21505932.8924   21505937.1194
        -0.000          -0.000
 -34304089.161 9 -26704471.63849  20093682.298    20093681.8834   20093686.4804
        -0.000          -0.000
 -27779833.194 8 -21615611.85245  23516884.698    23516883.8204   23516888.8484
        -0.000          -0.000
 -11810637.264 9  -8595920.37046  23420461.565    23420461.5534   23420465.7624
        -0.000          -0.000
 -28778301.707 9 -22148223.56948  21092295.731    21092295.0984   21092299.1974
        -0.000          -0.000
  -9624032.382 8  -7199066.83345  23778425.348    23778424.4794   23778431.1484
        -0.000          -0.000
 97  3  7  0 36 59.9990000  0  7  4  9 24  7 30  5 10               -0.000826954
 -35329841.622 9 -26954435.38348  20973447.754    20973447.7444   20973451.2694
        -0.000          -0.000
 -30148099.566 9 -23168558.14948  21509780.525    21509780.1294   21509784.3794
        -0.000          -0.000
 -34347136.111 9 -26738014.70249  20085490.652    20085490.2554   20085494.8654
        -0.000          -0.000
 -27742189.754 8 -21586279.32345  23524047.943    23524047.2014   23524052.1744
        -0.000          -0.000
 -11937805.794 9  -8695012.65946  23396262.004    23396261.9754   23396266.4174
        -0.000          -0.000
 -28873648.080 9 -22222519.43348  21074151.877    21074151.2394   21074155.3614
        -0.000          -0.000
  -9748594.158 9  -7296127.91845  23754721.858    23754720.9994   23754727.6474
        -0.000          -0.000
 97  3  7  0 37 29.9990000  0  7  4  9 24  7 30  5 10               -0.000845805
 -35297931.215 9 -26929570.13548  20979520.102    20979520.1004   20979523.6304
        -0.000          -0.000
 -30127391.272 9 -23152421.82448  21513721.160    21513720.7214   21513725.0584
        -0.000          -0.000
 -34389632.571 9 -26771128.81249  20077403.796    20077403.4134   20077408.0314
        -0.000          -0.000
 -27704535.408 8 -21556938.30245  23531213.279    23531212.5404   23531217.6454
        -0.000          -0.000
 -12064902.554 9  -8794049.05346  23372076.160    23372076.2084   23372080.6724
        -0.000          -0.000
 -28968699.950 9 -22296585.81248  21056064.077    21056063.4414   21056067.5544
        -0.000          -0.000
  -9873143.528 9  -7393179.25645  23731020.998    23731020.1264   23731026.6724
        -0.000          -0.000
 97  3  7  0 37 59.9990000  0  7  4  9 24  7 30  5 10               -0.000864660
 -35265659.458 9 -26904423.30848  20985661.226    20985661.1894   20985664.7424
        -0.000          -0.000
 -30106227.172 9 -23135930.33748  21517748.376    21517748.0134   21517752.4044
        -0.000          -0.000
 -34431610.804 9 -26803839.10949  20069415.584    20069415.2034   20069419.8154
        -0.000          -0.000
 -27666899.095 8 -21527611.33545  23538375.179    23538374.4824   23538379.6764
        -0.000          -0.000
 -12191953.446 9  -8893049.69646  23347899.097    23347899.2854   23347903.4734
        -0.000          -0.000
 -29063485.447 9 -22370444.62748  21038027.038    21038026.3974   21038030.4494
        -0.000          -0.000
  -9997679.773 9  -7490220.44045  23707322.741    23707321.8034   23707328.0864
        -0.000          -0.000
 97  3  7  0 38 29.9990000  0  7  4  9 24  7 30  5 10               -0.000883530
 -35233015.929 9 -26878986.79348  20991873.063    20991873.0294   20991876.5914
        -0.000          -0.000
 -30084619.722 9 -23119093.37648  21521860.103    21521859.7374   21521864.2114
        -0.000          -0.000
 -34473089.800 9 -26836160.38949  20061522.353    20061521.9874   20061526.5964
        -0.000          -0.000
 -27629288.984 8 -21498304.78445  23545532.252    23545531.3974   23545536.6664
        -0.000          -0.000
 -12318981.918 9  -8992032.88646  23323726.423    23323726.5804   23323730.6744
        -0.000          -0.000
 -29158027.407 9 -22444113.67348  21020036.298    21020035.6424   21020039.6644
        -0.000          -0.000
 -10122203.075 9  -7587251.57745  23683626.429    23683625.5874   23683632.0174
        -0.000          -0.000
 97  3  7  0 38 59.9990000  0  7  4  9 24  7 30  5 10               -0.000902417
 -35199991.229 9 -26853253.25848  20998157.449    20998157.4184   20998160.9734
        -0.000          -0.000
 -30062576.208 9 -23101916.62248  21526054.809    21526054.4934   21526058.9464
        -0.000          -0.000
 -34514070.656 9 -26868093.51049  20053723.958    20053723.5964   20053728.1914
        -0.000          -0.000
 -27591697.008 8 -21469012.32645  23552685.853    23552684.9364   23552690.0604
        -0.000          -0.000
 -12445989.633 9  -9090999.88146  23299557.436    23299557.6024   23299562.0494
        -0.000          -0.000
 -29252329.417 9 -22517595.74748  21002091.217    21002090.5554   21002094.6044
        -0.000          -0.000
 -10246716.504 9  -7684274.95446  23659932.465    23659931.6904   23659937.8184
        -0.000          -0.000
 97  3  7  0 39 29.9990000  0  7  4  9 24  7 30  5 10               -0.000921309
 -35166554.759 9 -26827198.86748  21004520.202    21004520.1534   21004523.7244
        -0.000          -0.000
 -30040095.379 9 -23084399.10148  21530332.830    21530332.4614   21530336.8684
        -0.000          -0.000
 -34554543.121 9 -26899630.48449  20046022.271    20046021.9184   20046026.5154
        -0.000          -0.000
 -27554087.023 9 -21439705.88046  23559842.847    23559841.9004   23559847.1334
        -0.000          -0.000
 -12572967.084 9  -9189943.30946  23275394.218    23275394.5304   23275398.9464
        -0.000          -0.000
 -29346365.025 9 -22590870.24048  20984196.834    20984196.2034   20984200.2764
        -0.000          -0.000
 -10371192.250 9  -7781268.98946  23636245.752    23636244.8094   23636250.5684
        -0.000          -0.000
 97  3  7  0 39 59.9990000  0  7  4  9 24  7 30  5 10               -0.000940195
 -35132686.798 9 -26800808.24548  21010965.026    21010964.9824   21010968.5384
        -0.000          -0.000
 -30017179.462 9 -23066542.56048  21534693.696    21534693.3424   21534697.7144
        -0.000          -0.000
 -34594511.035 9 -26930774.29949  20038416.659    20038416.2834   20038420.8774
        -0.000          -0.000
 -27516429.337 9 -21410362.22746  23567009.010    23567008.0804   23567013.1444
        -0.000          -0.000
 -12699896.592 9  -9288849.36346  23251240.607    23251240.7714   23251244.8684
        -0.000          -0.000
 -29440118.029 9 -22663924.51648  20966356.272    20966355.6044   20966359.6374
        -0.000          -0.000
 -10495630.961 9  -7878234.17545  23612565.481    23612564.6224   23612570.3474
        -0.000          -0.000
 97  3  7  0 40 29.9990000  0  7  4  9 24  7 30  5 10               -0.000959093
 -35098413.208 9 -26774101.54848  21017487.069    21017487.0274   21017490.5754
        -0.000          -0.000
 -29993842.734 9 -23048358.10848  21539134.598    21539134.2174   21539138.5644
        -0.000          -0.000
 -34633991.267 9 -26961538.10149  20030903.819    20030903.4344   20030908.0344
        -0.000          -0.000
 -27478732.955 9 -21380988.44446  23574182.427    23574181.6334   23574186.7064
        -0.000          -0.000
 -12826788.813 9  -9387726.37146  23227093.958    23227094.0084   23227097.9144
        -0.000          -0.000
 -29533604.997 9 -22736771.49148  20948566.296    20948565.6204   20948569.6114
        -0.000          -0.000
 -10620082.856 9  -7975209.59446  23588883.181    23588882.3064   23588888.0134
        -0.000          -0.000
 97  3  7  0 40 59.9990000  0  7  4  9 24  7 30  5 10               -0.000978006
 -35063743.027 9 -26747085.82348  21024084.580    21024084.5194   21024088.0804
        -0.000          -0.000
 -29970099.587 9 -23029856.96848  21543652.929    21543652.4804   21543656.7744
        -0.000          -0.000
 -34672987.049 9 -26991924.41249  20023483.179    20023482.7914   20023487.3484
        -0.000          -0.000
 -27441011.898 9 -21351595.43346  23581360.574    23581359.7844   23581364.8544
        -0.000          -0.000
 -12953626.308 9  -9486560.75346  23202957.416    23202957.5874   23202961.5494
        -0.000          -0.000
 -29626821.122 9 -22809407.41848  20930827.886    20930827.1704   20930831.1264
        -0.000          -0.000
 -10744565.022 9  -8072208.57746  23565195.246    23565194.3054   23565199.9584
        -0.000          -0.000
 97  3  7  0 41 29.9990000  0  7  4  9 24  7 30  5 10               -0.000996940
 -35028697.980 9 -26719777.98548  21030753.403    21030753.3724   21030756.9334
        -0.000          -0.000
 -29945966.475 9 -23011051.96148  21548245.300    21548244.8904   21548249.2184
        -0.000          -0.000
 -34711501.851 9 -27021935.92849  20016154.046    20016153.6554   20016158.1994
        -0.000          -0.000
 -27403283.837 9 -21322196.97046  23588539.940    23588539.2044   23588544.2774
        -0.000          -0.000
 -13080405.969 9  -9585350.07146  23178832.074    23178832.3084   23178836.3164
        -0.000          -0.000
 -29719775.891 9 -22881839.69448  20913139.134    20913138.4564   20913142.4414
        -0.000          -0.000
 -10869090.921 9  -8169241.68646  23541498.630    23541497.7214   23541503.4284
        -0.000          -0.000
 97  3  7  0 41 59.9990000  0  7  4  9 24  7 30  5 10               -0.001015879
 -34993263.890 9 -26692167.01048  21037496.303    21037496.2644   21037499.8694
        -0.000          -0.000
 -29921398.339 9 -22991907.97548  21552920.435    21552920.0344   21552924.3854
        -0.000          -0.000
 -34749493.957 9 -27051540.15649  20008924.371    20008923.9704   20008928.5444
        -0.000          -0.000
 -27365537.523 9 -21292784.25246  23595722.877    23595722.0524   23595727.1944
        -0.000          -0.000
 -13207087.833 9  -9684063.17446  23154725.518    23154725.6374   23154729.5654
        -0.000          -0.000
 -29812440.989 9 -22954046.25248  20895505.540    20895504.8434   20895508.8844
        -0.000          -0.000
 -10993628.883 9  -8266284.15046  23517799.413    23517798.5174   23517804.6204
        -0.000          -0.000
 97  3  7  0 42 29.9980000  0  7  4  9 24  7 30  5 10               -0.001034802
 -34957438.237 9 -26664250.91348  21044313.698    21044313.6854   21044317.2444
        -0.000          -0.000
 -29896373.634 9 -22972408.21448  21557682.460    21557682.0274   21557686.4074
        -0.000          -0.000
 -34786927.883 9 -27080709.43849  20001800.934    20001800.5324   20001805.1064
        -0.000          -0.000
 -27327760.966 9 -21263347.98946  23602911.543    23602910.7544   23602915.7894
        -0.000          -0.000
 -13333633.941 9  -9782670.49146  23130644.502    23130644.6574   23130648.5034
        -0.000          -0.000
 -29904792.592 9 -23026008.53448  20877931.609    20877930.9494   20877934.9834
        -0.000          -0.000
 -11118132.170 9  -8363299.59546  23494107.125    23494106.1884   23494112.2894
        -0.000          -0.000
 97  3  7  0 42 59.9980000  0  7  4  9 24  7 30  5 10               -0.001053726
 -34921249.192 9 -26636051.65448  21051200.224    21051200.2174   21051203.7804
        -0.000          -0.000
 -29870925.642 9 -22952578.62848  21562524.981    21562524.6054   21562529.0184
        -0.000          -0.000
 -34823827.257 9 -27109462.18349  19994779.206    19994778.8234   19994783.3914
        -0.000          -0.000
 -27289985.070 9 -21233912.22746  23610100.216    23610099.3084   23610104.2774
        -0.000          -0.000
 -13460085.049 9  -9881203.78546  23106581.347    23106581.6474   23106585.4834
        -0.000          -0.000
 -29996868.891 9 -23097756.28448  20860410.131    20860409.4194   20860413.4354
        -0.000          -0.000
 -11242611.928 9  -8460296.70846  23470419.431    23470418.4574   23470424.4104
        -0.000          -0.000
 97  3  7  0 43 29.9980000  0  7  4  9 24  7 30  5 10               -0.001072634
 -34884687.021 9 -26607561.65048  21058157.791    21058157.7814   21058161.3374
        -0.000          -0.000
 -29845032.968 9 -22932402.52848  21567452.238    21567451.8444   21567456.2394
        -0.000          -0.000
 -34860156.802 9 -27137770.90949  19987865.878    19987865.4994   19987870.0664
        -0.000          -0.000
 -27252175.199 9 -21204450.02546  23617295.033    23617294.2484   23617299.1764
        -0.000          -0.000
 -13586423.022 9  -9979648.92146  23082539.875    23082540.1904   23082544.1334
        -0.000          -0.000
 -30088647.111 9 -23169271.76648  20842945.329    20842944.6104   20842948.5954
        -0.000          -0.000
 -11367017.870 9  -8557236.29446  23446745.696    23446744.6974   23446750.6904
        -0.000          -0.000
 97  3  7  0 43 59.9980000  0  7  4  9 24  7 30  5 10               -0.001091542
 -34847772.518 9 -26578797.09848  21065182.400    21065182.3884   21065185.9244
        -0.000          -0.000
 -29818727.490 9 -22911904.76448  21572458.027    21572457.6384   21572461.9904
        -0.000          -0.000
 -34895947.414 9 -27165659.68749  19981055.124    19981054.7544   19981059.3294
        -0.000          -0.000
 -27214350.600 9 -21174976.32646  23624492.782    23624492.0354   23624496.9064
        -0.000          -0.000
 -13712683.947 9 -10078034.00946  23058513.149    23058513.4644   23058517.4584
        -0.000          -0.000
 -30180157.181 9 -23240578.30148  20825531.474    20825530.7654   20825534.7714
        -0.000          -0.000
 -11491362.110 9  -8654127.82946  23423083.670    23423082.6584   23423088.7854
        -0.000          -0.000
 97  3  7  0 44 29.9980000  0  7  4  9 24  7 30  5 10               -0.001110429
 -34810454.274 9 -26549717.94448  21072283.828    21072283.8024   21072287.3324
        -0.000          -0.000
 -29791990.473 9 -22891070.74548  21577545.909    21577545.5364   21577549.8594
        -0.000          -0.000
 -34931169.870 9 -27193105.74249  19974352.512    19974352.1444   19974356.7174
        -0.000          -0.000
 -27176471.003 9 -21145459.78646  23631701.035    23631700.1754   23631705.1484
        -0.000          -0.000
 -13838834.969 9 -10176333.47546  23034507.541    23034507.7214   23034511.7304
        -0.000          -0.000
 -30271358.006 9 -23311643.87348  20808176.437    20808175.7604   20808179.8404
        -0.000          -0.000
 -11615603.805 9  -8750939.43246  23399441.126    23399440.1944   23399446.3284
        -0.000          -0.000
 97  3  7  0 44 59.9980000  0  7  4  9 24  7 30  5 10               -0.001129292
 -34772715.477 9 -26520311.08748  21079465.239    21079465.2604   21079468.8294
        -0.000          -0.000
 -29764805.350 9 -22869887.54748  21582719.091    21582718.7254   21582723.0404
        -0.000          -0.000
 -34965824.233 9 -27220109.13049  19967758.005    19967757.6294   19967762.2134
        -0.000          -0.000
 -27138532.006 9 -21115896.93046  23638920.784    23638919.8464   23638924.7894
        -0.000          -0.000
 -13964869.391 9 -10274542.06846  23010524.290    23010524.3654   23010528.1214
        -0.000          -0.000
 -30362233.850 9 -23382456.21048  20790883.306    20790882.6614   20790886.7694
        -0.000          -0.000
 -11739731.955 9  -8847662.57746  23375820.553    23375819.5174   23375825.3024
        -0.000          -0.000
 97  3  7  0 45 29.9980000  0  7  4  9 24  7 30  5 10               -0.001148145
 -34734591.223 9 -26490603.87248  21086720.069    21086720.0874   21086723.6064
        -0.000          -0.000
 -29737202.471 9 -22848378.82148  21587971.779    21587971.3784   21587975.6714
        -0.000          -0.000
 -34999939.230 9 -27246692.23149  19961266.122    19961265.7634   19961270.3434
        -0.000          -0.000
 -27100555.778 9 -21086305.08246  23646147.556    23646146.4944   23646151.5464
        -0.000          -0.000
 -14090804.595 9 -10372673.34946  22986559.775    22986559.7954   22986563.4584
        -0.000          -0.000
 -30452796.713 9 -23453024.66148  20773649.797    20773649.1424   20773653.2484
        -0.000          -0.000
 -11863773.459 9  -8944318.20346  23352216.295    23352215.0984   23352220.9264
        -0.000          -0.000
 97  3  7  0 45 59.9980000  0  7  4  9 24  7 30  5 10               -0.001167019
 -34696129.226 9 -26460633.48648  21094039.147    21094039.1504   21094042.7164
        -0.000          -0.000
 -29709225.139 9 -22826578.32148  21593295.647    21593295.2634   21593299.5324
        -0.000          -0.000
 -35033575.616 9 -27272902.39449  19954865.287    19954864.9454   19954869.5374
        -0.000          -0.000
 -27062596.914 9 -21056726.73445  23653370.673    23653369.7444   23653374.6914
        -0.000          -0.000
 -14216679.245 9 -10470757.45046  22962606.592    22962606.4694   22962610.3614
        -0.000          -0.000
 -30543083.109 9 -23523377.68348  20756468.937    20756468.2364   20756472.3304
        -0.000          -0.000
 -11987787.859 9  -9040952.76046  23328616.904    23328615.8064   23328621.6604
        -0.000          -0.000
 97  3  7  0 46 29.9980000  0  7  4  9 24  7 30  5 10               -0.001185895
 -34657325.170 9 -26430396.55648  21101423.255    21101423.2494   21101426.8694
        -0.000          -0.000
 -29680841.960 9 -22804461.57348  21598696.752    21598696.3944   21598700.6844
        -0.000          -0.000
 -35066713.139 9 -27298723.82649  19948559.415    19948559.0704   19948563.6664
        -0.000          -0.000
 -27024632.560 9 -21027144.16045  23660594.902    23660594.1814   23660599.1314
        -0.000          -0.000
 -14342455.882 9 -10568765.18546  22938671.701    22938671.7584   22938675.7604
        -0.000          -0.000
 -30633046.861 9 -23593479.29348  20739349.333    20739348.6384   20739352.7484
        -0.000          -0.000
 -12111758.006 9  -9137552.78946  23305026.109    23305025.0174   23305030.9644
        -0.000          -0.000
 97  3  7  0 46 59.9980000  0  7  4  9 24  7 30  5 10               -0.001204750
 -34618172.450 9 -26399887.94648  21108873.757    21108873.7414   21108877.3474
        -0.000          -0.000
 -29652016.989 9 -22782000.56948  21604182.013    21604181.6364   21604185.9794
        -0.000          -0.000
 -35099329.412 9 -27324139.09349  19942352.720    19942352.3674   19942356.9864
        -0.000          -0.000
 -26986624.639 8 -20997527.60045  23667827.596    23667826.7754   23667831.6824
        -0.000          -0.000
 -14468106.735 9 -10666674.89346  22914761.161    22914761.0814   22914765.1754
        -0.000          -0.000
 -30722659.470 9 -23663307.29048  20722296.595    20722295.9034   20722300.0164
        -0.000          -0.000
 -12235665.940 9  -9234104.37346  23281447.330    23281446.2604   23281451.8774
        -0.000          -0.000
 97  3  7  0 47 29.9980000  0  7  4  9 24  7 30  5 10               -0.001223550
 -34578603.126 9 -26369054.70748  21116403.574    21116403.5384   21116407.1344
        -0.000          -0.000
 -29622698.179 9 -22759154.75948  21609761.143    21609760.7844   21609765.2074
        -0.000          -0.000
 -35131350.814 9 -27349090.82649  19936259.252    19936258.9154   19936263.4894
        -0.000          -0.000
 -26948494.894 8 -20967816.11145  23675083.332    23675082.6514   23675087.6114
        -0.000          -0.000
 -14593577.078 9 -10764443.94946  22890884.895    22890884.8314   22890888.8994
        -0.000          -0.000
 -30811848.026 9 -23732804.85448  20705324.565    20705323.9024   20705327.9524
        -0.000          -0.000
 -12359447.498 9  -9330557.45246  23257892.499    23257891.3174   23257896.8394
        -0.000          -0.000
 97  3  7  0 47 59.9980000  0  7  4  9 24  7 30  5 10               -0.001242341
 -34538664.734 9 -26337933.88348  21124003.608    21124003.5874   21124007.1764
        -0.000          -0.000
 -29592947.817 9 -22735972.67648  21615422.402    21615422.0754   21615426.5794
        -0.000          -0.000
 -35162855.880 9 -27373640.21449  19930264.022    19930263.6764   19930268.2304
        -0.000          -0.000
 -26910317.424 9 -20938067.47945  23682348.291    23682347.5524   23682352.5734
        -0.000          -0.000
 -14718933.845 9 -10862124.50946  22867030.196    22867030.1944   22867034.4124
        -0.000          -0.000
 -30900680.175 9 -23802024.69848  20688420.405    20688419.7154   20688423.7184
        -0.000          -0.000
 -12483167.025 9  -9426962.23646  23234349.221    23234348.0774   23234353.6274
        -0.000          -0.000
 97  3  7  0 48 29.9980000  0  7  4  9 24  7 30  5 10               -0.001261145
 -34498390.119 9 -26306551.06548  21131667.625    21131667.6014   21131671.1914
        -0.000          -0.000
 -29562798.822 9 -22712479.97348  21621159.534    21621159.2234   21621163.8014
        -0.000          -0.000
 -35193863.704 9 -27397802.14049  19924363.419    19924363.0704   19924367.6164
        -0.000          -0.000
 -26872120.881 8 -20908303.91145  23689617.086    23689616.1994   23689621.3144
        -0.000          -0.000
 -14844218.549 9 -10959748.92246  22843189.209    22843189.3204   22843193.4904
        -0.000          -0.000
 -30989192.556 9 -23870995.37648  20671577.055    20671576.3854   20671580.3614
        -0.000          -0.000
 -12606844.828 9  -9523334.50046  23210814.031    23210813.0084   23210818.6364
        -0.000          -0.000
 97  3  7  0 48 59.9980000  0  7  4  9 24  7 30  5 10               -0.001279954
 -34457754.253 9 -26274886.75048  21139400.385    21139400.3684   21139403.9314
        -0.000          -0.000
 -29532246.200 9 -22688672.76248  21626973.575    21626973.2284   21626977.8134
        -0.000          -0.000
 -35224357.800 9 -27421563.76049  19918560.574    19918560.2184   19918564.7434
        -0.000          -0.000
 -26833884.343 8 -20878509.21645  23696893.237    23696892.3434   23696897.3624
        -0.000          -0.000
 -14969418.857 9 -11057307.57246  22819364.441    22819364.5524   22819368.4854
        -0.000          -0.000
 -31077383.573 9 -23939715.63748  20654794.819    20654794.1344   20654798.1694
        -0.000          -0.000
 -12730452.963 9  -9619652.47646  23187292.155    23187291.1534   23187296.8454
        -0.000          -0.000
 97  3  7  0 49 29.9980000  0  7  4  9 24  7 30  5 10               -0.001298777
 -34416769.267 9 -26242950.39748  21147199.543    21147199.5384   21147203.0964
        -0.000          -0.000
 -29501318.705 9 -22664573.43048  21632858.957    21632858.5834   21632863.1164
        -0.000          -0.000
 -35254354.809 9 -27444938.03849  19912852.354    19912851.9994   19912856.5244
        -0.000          -0.000
 -26795632.928 8 -20848702.91545  23704172.238    23704171.4544   23704176.2864
        -0.000          -0.000
 -15094541.027 9 -11154805.33146  22795554.463    22795554.5964   22795558.4064
        -0.000          -0.000
 -31165272.947 9 -24008200.85648  20638069.968    20638069.3224   20638073.3674
        -0.000          -0.000
 -12853992.450 9  -9715916.96846  23163783.193    23163782.1984   23163787.8684
        -0.000          -0.000
 97  3  7  0 49 59.9980000  0  7  4  9 24  7 30  5 10               -0.001317604
 -34375448.343 9 -26210752.27148  21155062.656    21155062.6454   21155066.2214
        -0.000          -0.000
 -29470002.738 9 -22640171.39448  21638818.325    21638817.9184   21638822.3764
        -0.000          -0.000
 -35283867.317 9 -27467934.78349  19907236.324    19907235.9574   19907240.4694
        -0.000          -0.000
 -26757369.586 8 -20818887.32845  23711453.460    23711452.7314   23711457.6634
        -0.000          -0.000
 -15219574.272 9 -11252233.80346  22771761.356    22771761.4384   22771765.3294
        -0.000          -0.000
 -31252866.591 9 -24076455.63248  20621401.497    20621400.8414   20621404.8314
        -0.000          -0.000
 -12977464.193 9  -9812128.64546  23140287.305    23140286.3134   23140291.9174
        -0.000          -0.000
 97  3  7  0 50 29.9980000  0  7  4  9 24  7 30  5 10               -0.001336429
 -34333802.369 9 -26178300.86548  21162987.637    21162987.6284   21162991.2304
        -0.000          -0.000
 -29438294.464 9 -22615463.66548  21644852.288    21644851.8514   21644856.2564
        -0.000          -0.000
 -35312877.248 9 -27490539.91149  19901715.902    19901715.5494   19901720.0564
        -0.000          -0.000
 -26719075.339 9 -20789047.66945  23718740.755    23718740.0594   23718744.6874
        -0.000          -0.000
 -15344505.510 9 -11349582.77546  22747987.616    22747987.7264   22747991.7334
        -0.000          -0.000
 -31340158.025 9 -24144474.92149  20604790.535    20604789.8514   20604793.7794
        -0.000          -0.000
 -13100861.314 9  -9908282.19146  23116805.519    23116804.5194   23116810.1264
        -0.000          -0.000
 97  3  7  0 50 59.9980000  0  7  4  9 24  7 30  5 10               -0.001355264
 -34291852.400 9 -26145612.57648  21170970.442    21170970.4624   21170974.0374
        -0.000          -0.000
 -29406236.735 9 -22590483.63748  21650952.621    21650952.2184   21650956.6144
        -0.000          -0.000
 -35341423.297 9 -27512783.57649  19896283.729    19896283.4004   19896287.9234
        -0.000          -0.000
 -26680786.775 8 -20759212.42245  23726026.848    23726025.6464   23726031.1434
        -0.000          -0.000
 -15469342.452 9 -11446858.28146  22724231.754    22724231.9424   22724235.9834
        -0.000          -0.000
 -31427179.528 9 -24212283.87249  20588230.893    20588230.1954   20588234.1114
        -0.000          -0.000
 -13224211.660 9 -10004399.30746  23093332.696    23093331.7694   23093337.4174
        -0.000          -0.000
 97  3  7  0 51 29.9980000  0  7  4  9 24  7 30  5 10               -0.001374106
 -34249577.627 9 -26112671.19248  21179015.095    21179015.1034   21179018.6344
        -0.000          -0.000
 -29373822.391 9 -22565225.72748  21657120.805    21657120.4084   21657124.8244
        -0.000          -0.000
 -35369495.300 9 -27534657.85549  19890941.760    19890941.4384   19890945.9764
        -0.000          -0.000
 -26642498.293 8 -20729377.26045  23733312.757    23733311.8594   23733316.9034
        -0.000          -0.000
 -15594070.398 9 -11544048.85446  22700496.589    22700496.8634   22700500.9094
        -0.000          -0.000
 -31513910.982 9 -24279866.81249  20571726.434    20571725.7514   20571729.7064
        -0.000          -0.000
 -13347499.449 9 -10100467.64946  23069871.772    23069870.8014   23069876.5354
        -0.000          -0.000
 97  3  7  0 51 59.9980000  0  7  4  9 24  7 30  5 10               -0.001392924
 -34206923.856 9 -26079434.48448  21187131.834    21187131.8544   21187135.4194
        -0.000          -0.000
 -29341006.308 9 -22539654.76948  21663365.327    21663364.9954   21663369.5204
        -0.000          -0.000
 -35397039.981 9 -27556121.22949  19885700.125    19885699.8174   19885704.3784
        -0.000          -0.000
 -26604158.550 8 -20699502.09245  23740608.765    23740607.6694   23740612.4864
        -0.000          -0.000
 -15718638.625 9 -11641114.96846  22676792.063    22676792.3234   22676796.3164
        -0.000          -0.000
 -31600300.379 9 -24347183.21449  20555287.068    20555286.3714   20555290.3704
        -0.000          -0.000
 -13470676.377 9 -10196449.62946  23046431.935    23046430.9584   23046436.6364
        -0.000          -0.000
 97  3  7  0 52 29.9980000  0  7  4  9 24  7 30  5 10               -0.001411730
 -34163908.350 9 -26045915.90948  21195317.424    21195317.4074   21195320.9974
        -0.000          -0.000
 -29307832.556 9 -22513805.10848  21669678.090    21669677.7644   21669682.3344
        -0.000          -0.000
 -35424066.938 9 -27577181.18849  19880557.050    19880556.7574   19880561.3164
        -0.000          -0.000
 -26565781.624 8 -20669598.04045  23747911.452    23747910.7044   23747915.6624
        -0.000          -0.000
 -15843052.238 9 -11738060.60046  22653117.137    22653117.2444   22653121.2414
        -0.000          -0.000
 -31686361.673 9 -24414243.95149  20538910.143    20538909.4394   20538913.4404
        -0.000          -0.000
 -13593745.034 9 -10292347.21846  23023012.560    23023011.5704   23023017.3394
        -0.000          -0.000
 97  3  7  0 52 59.9980000  0  7  4  9 24  7 30  5 10               -0.001430519
 -34120524.094 9 -26012109.99448  21203573.116    21203573.1224   21203576.7514
        -0.000          -0.000
 -29274292.462 9 -22487669.99948  21676060.584    21676060.2764   21676064.8624
        -0.000          -0.000
 -35450579.232 9 -27597840.10949  19875511.943    19875511.6504   19875516.1974
        -0.000          -0.000
 -26527359.936 8 -20639659.04845  23755222.839    23755221.9624   23755226.8354
        -0.000          -0.000
 -15967308.857 9 -11834883.90946  22629471.948    22629472.0424   22629476.0824
        -0.000          -0.000
 -31772078.144 9 -24481035.99949  20522598.809    20522598.1314   20522602.1144
        -0.000          -0.000
 -13716694.466 9 -10388151.91246  22999616.147    22999615.1284   22999620.8114
        -0.000          -0.000
 97  3  7  0 53 29.9980000  0  7  4  9 24  7 30  5 10               -0.001449290
 -34076792.328 9 -25978033.29548  21211895.034    21211895.0214   21211898.6244
        -0.000          -0.000
 -29240370.063 9 -22461236.97448  21682515.908    21682515.5174   21682520.1284
        -0.000          -0.000
 -35476578.286 9 -27618099.10149  19870564.483    19870564.1954   19870568.7594
        -0.000          -0.000
 -26488877.076 8 -20609672.40245  23762545.975    23762544.8844   23762550.1704
        -0.000          -0.000
 -16091429.283 9 -11931601.09346  22605852.813    22605852.8244   22605856.7394
        -0.000          -0.000
 -31857438.608 9 -24547550.63849  20506355.294    20506354.5964   20506358.5744
        -0.000          -0.000
 -13839518.431 9 -10483858.83446  22976243.357    22976242.3694   22976248.2944
        -0.000          -0.000
 97  3  7  0 53 59.9980000  0  7  4  9 24  7 30  5 10               -0.001468038
 -34032722.722 9 -25943693.33948  21220281.182    21220281.1854   21220284.7944
        -0.000          -0.000
 -29206035.056 9 -22434482.43848  21689049.671    21689049.3244   21689053.9464
        -0.000          -0.000
 -35502046.083 9 -27637944.12949  19865718.083    19865717.8104   19865722.3684
        -0.000          -0.000
 -26450318.988 8 -20579627.21645  23769883.002    23769882.2924   23769887.6894
        -0.000          -0.000
 -16215410.156 9 -12028209.53346  22582260.230    22582260.1264   22582263.9294
        -0.000          -0.000
 -31942436.062 9 -24613782.40949  20490180.807    20490180.1234   20490184.0554
        -0.000          -0.000
 -13962207.589 9 -10579460.73846  22952896.252    22952895.3314   22952901.2904
        -0.000          -0.000
 97  3  7  0 54 29.9980000  0  7  4  9 24  7 30  5 10               -0.001486769
 -33988331.182 9 -25909102.53048  21228728.580    21228728.5874   21228732.2004
        -0.000          -0.000
 -29171279.383 9 -22407400.11048  21695663.506    21695663.1254   21695667.7424
        -0.000          -0.000
 -35526982.974 9 -27657375.46249  19860972.788    19860972.4854   19860977.0454
        -0.000          -0.000
 -26411699.045 8 -20549533.72745  23777232.583    23777231.7854   23777236.3884
        -0.000          -0.000
 -16339264.107 9 -12124719.07046  22558691.788    22558691.5724   22558695.2704
        -0.000          -0.000
 -32027063.782 9 -24679726.07649  20474076.639    20474075.9824   20474079.8814
        -0.000          -0.000
 -14084760.791 9 -10674956.67346  22929575.269    22929574.3164   22929580.1814
        -0.000          -0.000
 97  3  7  0 54 59.9980000  0  7  4  9 24  7 30  5 10               -0.001505491
 -33943606.947 9 -25874252.47448  21237239.315    21237239.2954   21237242.8914
        -0.000          -0.000
 -29136078.755 9 -22379971.06948  21702361.853    21702361.5384   21702366.1714
        -0.000          -0.000
 -35551384.377 9 -27676389.53249  19856329.322    19856329.0204   19856333.5744
        -0.000          -0.000
 -26373029.856 8 -20519401.88045  23784591.307    23784590.3914   23784595.1864
        -0.000          -0.000
 -16462996.624 9 -12221133.98646  22535146.320    22535146.0334   22535149.6714
        -0.000          -0.000
 -32111315.249 9 -24745376.56249  20458044.084    20458043.4314   20458047.3124
        -0.000          -0.000
 -14207171.996 9 -10770341.95646  22906281.072    22906280.0924   22906285.9804
        -0.000          -0.000
 97  3  7  0 55 29.9980000  0  7  4  9 24  7 30  5 10               -0.001524209
 -33898547.708 9 -25839141.37648  21245813.739    21245813.7694   21245817.3714
        -0.000          -0.000
 -29100447.362 9 -22352206.36348  21709142.266    21709141.9344   21709146.5764
        -0.000          -0.000
 -35575237.924 9 -27694976.69749  19851790.135    19851789.8224   19851794.3444
        -0.000          -0.000
 -26334326.310 8 -20489243.28445  23791956.205    23791955.3924   23791960.4134
        -0.000          -0.000
 -16586596.156 9 -12317445.27646  22511625.986    22511625.7174   22511629.4154
        -0.000          -0.000
 -32195187.896 9 -24810731.86149  20442083.635    20442083.0004   20442086.8744
        -0.000          -0.000
 -14329430.054 9 -10865607.92246  22883016.055    22883015.0884   22883020.9714
        -0.000          -0.000
 97  3  7  0 55 59.9980000  0  7  4  9 24  7 30  5 10               -0.001542932
 -33853144.119 9 -25803761.95848  21254453.773    21254453.8084   21254457.4374
        -0.000          -0.000
 -29064407.470 9 -22324123.35047  21716000.417    21716000.0564   21716004.6914
        -0.000          -0.000
 -35598544.376 9 -27713137.56049  19847355.050    19847354.7624   19847359.2504
        -0.000          -0.000
 -26295615.582 8 -20459079.11745  23799322.475    23799321.7934   23799326.8214
        -0.000          -0.000
 -16710040.667 9 -12413635.78346  22488135.054    22488134.9184   22488138.6974
        -0.000          -0.000
 -32278675.916 9 -24875787.45749  20426196.436    20426195.7894   20426199.6634
        -0.000          -0.000
 -14451547.952 9 -10960764.67346  22859777.742    22859776.8064   22859782.5624
        -0.000          -0.000
 97  3  7  0 56 29.9980000  0  7  4  9 24  7 30  5 10               -0.001561668
 -33807409.782 9 -25768124.81548  21263156.736    21263156.7634   21263160.3804
        -0.000          -0.000
 -29027999.409 9 -22295753.45047  21722928.607    21722928.2704   21722932.9244
        -0.000          -0.000
 -35621326.205 9 -27730889.62249  19843019.792    19843019.5234   19843024.0144
        -0.000          -0.000
 -26256916.168 8 -20428923.75645  23806686.727    23806685.9044   23806691.1524
        -0.000          -0.000
 -16833330.062 9 -12509705.40046  22464673.735    22464673.7014   22464677.4314
        -0.000          -0.000
 -32361780.400 9 -24940544.18849  20410382.201    20410381.5174   20410385.4264
        -0.000          -0.000
 -14573538.130 9 -11055821.89846  22836563.775    22836562.8174   22836568.5534
        -0.000          -0.000
 97  3  7  0 56 59.9980000  0  7  4  9 24  7 30  5 10               -0.001580413
 -33761350.215 9 -25732234.24048  21271921.523    21271921.5954   21271925.2104
        -0.000          -0.000
 -28991248.302 9 -22267116.24447  21729922.118    21729921.8284   21729926.4264
        -0.000          -0.000
 -35643601.098 9 -27748246.67149  19838780.983    19838780.7084   19838785.2334
        -0.000          -0.000
 -26218214.369 8 -20398766.52145  23814051.715    23814050.7864   23814056.0774
        -0.000          -0.000
 -16956459.371 9 -12605650.28347  22441242.836    22441242.8814   22441246.6734
        -0.000          -0.000
 -32444513.633 9 -25005011.63449  20394638.560    20394637.9064   20394641.8374
        -0.000          -0.000
 -14695409.890 9 -11150786.85846  22813372.218    22813371.2724   22813377.1654
        -0.000          -0.000
 97  3  7  0 57 29.9980000  0  7  4  9 24  7 30  5 10               -0.001599152
 -33714958.395 9 -25696084.77148  21280749.624    21280749.6644   21280753.2554
        -0.000          -0.000
 -28954148.326 9 -22238207.19247  21736982.033    21736981.7114   21736986.3234
        -0.000          -0.000
 -35665355.896 9 -27765198.45149  19834641.167    19834640.9044   19834645.4544
        -0.000          -0.000
 -26179474.194 8 -20368579.36545  23821423.843    23821422.6934   23821427.8654
        -0.000          -0.000
 -17079406.891 9 -12701453.51646  22417846.448    22417846.6194   22417850.4844
        -0.000          -0.000
 -32526851.429 9 -25069170.94449  20378970.159    20378969.5134   20378973.4424
        -0.000          -0.000
 -14817153.517 9 -11245651.96146  22790205.069    22790204.1804   22790209.8544
        -0.000          -0.000
 97  3  7  0 57 59.9980000  0  8  4  9 24  7 30  6  5 10            -0.001617748
 -33668261.917 9 -25659697.90648  21289635.655    21289635.7024   21289639.3264
        -0.000          -0.000
 -28916694.045 9 -22209022.06147  21744109.399    21744109.0964   21744113.7054
        -0.000          -0.000
 -35686611.285 9 -27781761.08249  19830596.362    19830596.0944   19830600.6554
        -0.000          -0.000
 -26140683.032 8 -20338352.47545  23828805.214    23828804.3124   23828809.1464
        -0.000          -0.000
 -17202188.644 9 -12797127.58447  22394481.770    22394482.0034   22394485.8814
        -0.000          -0.000
  -7132545.43818  -5527821.13255  24384091.766    24384091.3545   24384097.4205
        -0.000          -0.000
 -32608807.582 9 -25133032.87149  20363374.399    20363373.7504   20363377.6574
        -0.000          -0.000
 -14938773.998 9 -11340421.10946  22767061.519    22767060.5924   22767065.9914
        -0.000          -0.000
 97  3  7  0 58 29.9980000  0  8  4  9 24  7 30  6  5 10            -0.001636427
 -33621262.624 9 -25623075.08048  21298579.322    21298579.3804   21298582.9974
        -0.000          -0.000
 -28878869.230 9 -22179548.19447  21751307.268    21751306.9534   21751311.5234
        -0.000          -0.000
 -35707360.851 9 -27797929.56249  19826647.877    19826647.5784   19826652.1384
        -0.000          -0.000
 -26101809.957 8 -20308061.78345  23836202.568    23836201.6514   23836206.7744
        -0.000          -0.000
 -17324807.491 9 -12892674.70547  22371148.254    22371148.3864   22371152.2564
        -0.000          -0.000
  -7231678.871 8  -5605067.87345  24365227.068    24365226.8854   24365232.7194
        -0.000          -0.000
 -32690382.124 9 -25196597.43749  20347851.256    20347850.6364   20347854.5114
        -0.000          -0.000
 -15060240.906 9 -11435070.58046  22743947.002    22743946.0644   22743951.6424
        -0.000          -0.000
 97  3  7  0 58 59.9980000  0  8  4  9 24  7 30  6  5 10            -0.001655088
 -33573969.604 9 -25586223.37648  21307578.879    21307578.9504   21307582.5704
        -0.000          -0.000
 -28840671.621 9 -22149783.83947  21758576.061    21758575.7324   21758580.3164
        -0.000          -0.000
 -35727623.019 9 -27813718.25549  19822792.160    19822791.8574   19822796.3934
        -0.000          -0.000
 -26062859.434 8 -20277710.75345  23843614.429    23843613.6004   23843618.5834
        -0.000          -0.000
 -17447261.655 9 -12988093.50347  22347845.991    22347846.1484   22347849.9704
        -0.000          -0.000
  -7330785.763 8  -5682293.92945  24346367.217    24346367.2224   24346373.0624
        -0.000          -0.000
 -32771592.255 9 -25259878.04949  20332397.501    20332396.8454   20332400.7184
        -0.000          -0.000
 -15181561.552 9 -11529606.11646  22720860.430    22720859.4564   22720865.2274
        -0.000          -0.000
 97  3  7  0 59 29.9980000  0  8  4  9 24  7 30  6  5 10            -0.001673727
 -33526386.599 9 -25549145.71048  21316633.629    21316633.6724   21316637.3184
        -0.000          -0.000
 -28802086.537 9 -22119717.55947  21765918.485    21765918.1984   21765922.8384
        -0.000          -0.000
 -35747393.197 9 -27829123.57349  19819030.015    19819029.6714   19819034.2104
        -0.000          -0.000
 -26023840.234 8 -20247306.17545  23851040.051    23851038.6994   23851043.6664
        -0.000          -0.000
 -17569544.600 9 -13083378.89147  22324576.189    22324576.3974   22324580.2654
        -0.000          -0.000
  -7429859.254 8  -5759494.00945  24327513.916    24327514.2514   24327519.8764
        -0.000          -0.000
 -32852432.828 9 -25322870.69249  20317014.032    20317013.3744   20317017.2414
        -0.000          -0.000
 -15302719.413 9 -11624014.79046  22697804.883    22697803.9374   22697809.6474
        -0.000          -0.000
 97  3  7  0 59 59.9980000  0  8  4  9 24  7 30  6  5 10            -0.001692339
 -33478501.925 9 -25511832.97848  21325745.769    21325745.8034   21325749.4354
        -0.000          -0.000
 -28763114.143 9 -22089349.48447  21773334.597    21773334.3544   21773339.0444
        -0.000          -0.000
 -35766673.791 9 -27844147.40749  19815361.026    19815360.6614   19815365.1964
        -0.000          -0.000
 -25984749.715 8 -20216846.05945  23858478.358    23858477.2394   23858482.5804
        -0.000          -0.000
 -17691637.788 9 -13178516.42147  22301342.621    22301342.8224   22301346.6054
        -0.000          -0.000
  -7528889.957 8  -5836660.73645  24308669.075    24308669.2194   24308674.7904
        -0.000          -0.000
 -32932901.910 9 -25385573.86549  20301701.215    20301700.5754   20301704.4824
        -0.000          -0.000
 -15423704.641 9 -11718288.94646  22674782.227    22674781.2364   22674786.7844
        -0.000          -0.000
 97  3  7  1  0 29.9980000  0  8  4  9 24  7 30  6  5 10            -0.001710931
 -33430309.872 9 -25474280.72248  21334916.416    21334916.4454   21334920.1084
        -0.000          -0.000
 -28723788.867 9 -22058706.42047  21780817.966    21780817.7334   21780822.3844
        -0.000          -0.000
 -35785468.980 9 -27858792.99549  19811784.397    19811784.0474   19811788.5884
        -0.000          -0.000
 -25945602.341 8 -20186341.67945  23865927.792    23865927.0014   23865932.0514
        -0.000          -0.000
 -17813537.122 9 -13273502.88147  22278145.963    22278146.1514   22278149.8674
        -0.000          -0.000
  -7627885.515 8  -5913800.02445  24289831.079    24289830.9714   24289836.5134
        -0.000          -0.000
 -33013009.539 9 -25447995.38349  20286457.169    20286456.5584   20286460.5044
        -0.000          -0.000
 -15544536.578 9 -11812443.64846  22651788.459    22651787.5344   22651793.0314
        -0.000          -0.000
 97  3  7  1  0 59.9980000  0  8  4  9 24  7 30  6  5 10            -0.001729513
 -33381819.487 9 -25436496.00848  21344143.823    21344143.8474   21344147.5304
        -0.000          -0.000
 -28684133.576 9 -22027806.20947  21788364.160    21788363.9394   21788368.5554
        -0.000          -0.000
 -35803788.323 9 -27873067.80249  19808298.339    19808298.0104   19808302.5484
        -0.000          -0.000
 -25906407.023 8 -20155799.83045  23873386.719    23873385.9184   23873390.5814
        -0.000          -0.000
 -17935257.582 9 -13368349.96247  22254983.399    22254983.4764   22254987.1524
        -0.000          -0.000
  -7726852.763 8  -5990917.30645  24270998.349    24270998.1194   24271003.6244
        -0.000          -0.000
 -33092758.302 9 -25510137.26849  20271281.487    20271280.8944   20271284.8334
        -0.000          -0.000
 -15665230.648 9 -11906490.92846  22628821.225    22628820.2844   22628825.7104
        -0.000          -0.000
 97  3  7  1  1 29.9980000  0  8  4  9 24  7 30  6  5 10            -0.001748084
 -33333022.771 9 -25398472.59148  21353429.528    21353429.5784   21353433.2484
        -0.000          -0.000
 -28644160.210 9 -21996658.14647  21795970.941    21795970.6444   21795975.1874
        -0.000          -0.000
 -35821608.193 9 -27886953.40249  19804907.300    19804906.9684   19804911.4954
        -0.000          -0.000
 -25867155.618 8 -20125214.35945  23880855.519    23880855.0794   23880860.0914
        -0.000          -0.000
 -18056805.420 9 -13463062.52747  22231853.605    22231853.6484   22231857.3404
        -0.000          -0.000
  -7825779.206 8  -6068002.81045  24252173.400    24252172.9204   24252178.6464
        -0.000          -0.000
 -33172128.418 9 -25571984.10149  20256177.868    20256177.2504   20256181.1944
        -0.000          -0.000
 -15785766.772 9 -12000415.13446  22605883.953    22605882.9634   22605888.5034
        -0.000          -0.000
 97  3  7  1  1 59.9980000  0  7  4  9 24 30  6  5 10               -0.001766653
 -33283916.534 9 -25360207.99248  21362774.106    21362774.1794   21362777.8744
        -0.000          -0.000
 -28603881.870 9 -21965272.44847  21803635.654    21803635.3574   21803639.8584
        -0.000          -0.000
 -35838916.304 9 -27900440.23149  19801613.684    19801613.3684   19801617.8964
        -0.000          -0.000
 -18178183.571 9 -13557642.88747  22208756.079    22208756.1184   22208759.8064
        -0.000          -0.000
  -7924658.702 8  -6145051.70445  24233356.961    24233356.6464   24233362.6084
        -0.000          -0.000
 -33251104.744 9 -25633524.08749  20241149.159    20241148.5644   20241152.4684
        -0.000          -0.000
 -15906143.087 9 -12094214.81146  22582977.045    22582976.1014   22582981.6804
        -0.000          -0.000
 97  3  7  1  2 29.9980000  0  7  4  9 24 30  6  5 10               -0.001785226
 -33234501.183 9 -25321702.51848  21372177.588    21372177.6194   21372181.2744
        -0.000          -0.000
 -28563282.411 9 -21933636.51647  21811361.528    21811361.2694   21811365.7284
        -0.000          -0.000
 -35855686.146 9 -27913507.63049  19798422.450    19798422.1684   19798426.6684
        -0.000          -0.000
 -18299394.255 9 -13652092.73247  22185690.422    22185690.5064   22185694.2134
        -0.000          -0.000
  -8023472.007 8  -6222049.07045  24214553.438    24214553.2244   24214558.8724
        -0.000          -0.000
 -33329667.840 9 -25694742.07749  20226199.135    20226198.4944   20226202.4144
        -0.000          -0.000
 -16026331.441 9 -12187868.00646  22560105.978    22560105.0344   22560110.5594
        -0.000          -0.000
 97  3  7  1  2 59.9980000  0  7  4  9 24 30  6  5 10               -0.001803780
 -33184769.137 9 -25282950.27348  21381641.274    21381641.2984   21381644.9714
        -0.000          -0.000
 -28522331.417 9 -21901726.66747  21819154.226    21819153.9344   21819158.4774
        -0.000          -0.000
 -35871915.784 9 -27926154.09349  19795334.031    19795333.7464   19795338.2474
        -0.000          -0.000
 -18420426.692 9 -13746403.69047  22162658.858    22162658.8504   22162662.5054
        -0.000          -0.000
  -8122210.258 8  -6298987.91945  24195764.203    24195763.8604   24195769.5364
        -0.000          -0.000
 -33407804.301 9 -25755627.62449  20211330.249    20211329.6184   20211333.5234
        -0.000          -0.000
 -16146311.451 9 -12281358.87246  22537274.476    22537273.5404   22537279.0104
        -0.000          -0.000
 97  3  7  1  3 29.9980000  0  7  4  9 24 30  6  5 10               -0.001822321
 -33134745.010 9 -25243970.42748  21391160.560    21391160.5784   21391164.2414
        -0.000          -0.000
 -28481045.969 9 -21869556.20147  21827010.504    21827010.2654   21827014.8614
        -0.000          -0.000
 -35887634.972 9 -27938402.80249  19792342.720    19792342.4464   19792346.9694
        -0.000          -0.000
 -18541283.571 9 -13840577.84347  22139660.634    22139660.5524   22139664.1764
        -0.000          -0.000
  -8220890.211 8  -6375881.30545  24176986.097    24176985.7804   24176991.4114
        -0.000          -0.000
 -33485543.634 9 -25816203.71849  20196536.927    20196536.3094   20196540.1934
        -0.000          -0.000
 -16266107.469 9 -12374706.35146  22514477.989    22514477.0824   22514482.5974
        -0.000          -0.000
 97  3  7  1  3 59.9980000  0  7  4  9 24 30  6  5 10               -0.001840849
 -33084425.999 9 -25204760.80548  21400735.922    21400735.9594   21400739.6634
        -0.000          -0.000
 -28439398.437 9 -21837103.59447  21834935.792    21834935.5294   21834940.1984
        -0.000          -0.000
 -35902853.782 9 -27950261.60549  19789446.678    19789446.4314   19789450.9424
        -0.000          -0.000
 -18661949.794 9 -13934603.45847  22116698.578    22116698.5284   22116702.1074
        -0.000          -0.000
  -8319508.871 8  -6452726.96245  24158219.520    24158219.0634   24158224.9504
        -0.000          -0.000
 -33562891.093 9 -25876474.45649  20181818.219    20181817.5884   20181821.4914
        -0.000          -0.000
 -16385726.972 9 -12467916.31046  22491715.202    22491714.2804   22491719.6804
        -0.000          -0.000
 97  3  7  1  4 29.9980000  0  7  4  9 24 30  6  5 10               -0.001859349
 -33033799.652 9 -25165311.69448  21410369.795    21410369.8494   21410373.5604
        -0.000          -0.000
 -28397366.818 9 -21804351.69947  21842934.162    21842933.9114   21842938.6204
        -0.000          -0.000
 -35917586.092 9 -27961741.31849  19786643.200    19786642.9324   19786647.4574
        -0.000          -0.000
 -18782405.994 9 -14028465.39847  22093776.441    22093776.4374   22093780.0484
        -0.000          -0.000
  -8418065.057 8  -6529523.91945  24139464.678    24139464.3174   24139470.2744
        -0.000          -0.000
 -33639847.395 9 -25936440.39549  20167173.922    20167173.2864   20167177.2084
        -0.000          -0.000
 -16505160.227 9 -12560981.14147  22468987.710    22468986.7844   22468992.2714
        -0.000          -0.000
 97  3  7  1  4 59.9980000  0  7  4  9 24 30  6  5 10               -0.001877826
 -32982876.269 9 -25125631.12848  21420060.176    21420060.2014   21420063.9244
        -0.000          -0.000
 -28354976.615 9 -21771320.37447  21851000.849    21851000.5274   21851005.2274
        -0.000          -0.000
 -35931866.791 9 -27972869.12349  19783925.684    19783925.3944   19783929.9234
        -0.000          -0.000
 -18902659.916 9 -14122169.73047  22070892.870    22070892.8694   22070896.3954
        -0.000          -0.000
  -8516585.291 8  -6606292.85545  24120716.857    24120716.4064   24120722.4794
        -0.000          -0.000
 -33716430.328 9 -25996115.40049  20152600.649    20152600.0054   20152603.9724
        -0.000          -0.000
 -16624425.841 9 -12653915.33647  22446292.257    22446291.2964   22446296.7094
        -0.000          -0.000
 97  3  7  1  5 29.9980000  0  7  4  9 24 30  6  5 10               -0.001896289
 -32931674.440 9 -25085733.59648  21429803.576    21429803.6364   21429807.3194
        -0.000          -0.000
 -28312252.074 9 -21738028.54847  21859130.970    21859130.7294   21859135.3834
        -0.000          -0.000
 -35945696.983 9 -27983645.88749  19781293.864    19781293.5854   19781298.1144
        -0.000          -0.000
 -19022723.859 9 -14215726.02047  22048045.498    22048045.4464   22048048.9084
        -0.000          -0.000
  -8615072.114 8  -6683035.76845  24101975.609    24101974.9304   24101980.8904
        -0.000          -0.000
 -33792639.984 9 -26055499.54149  20138098.356    20138097.7354   20138101.7384
        -0.000          -0.000
 -16743532.080 9 -12746725.33346  22423627.024    22423626.1174   22423631.3274
        -0.000          -0.000
 97  3  7  1  5 59.9980000  0  7  4  9 24 30  6  5 10               -0.001914740
 -32880195.320 9 -25045619.99548  21439599.726    21439599.7544   21439603.4564
        -0.000          -0.000
 -28269198.679 9 -21704480.45947  21867323.835    21867323.5574   21867328.2124
        -0.000          -0.000
 -35959063.440 9 -27994061.29749  19778750.300    19778750.0264   19778754.5474
        -0.000          -0.000
 -19142595.828 9 -14309132.71747  22025234.541    22025234.5474   22025237.9484
        -0.000          -0.000
  -8713518.907 8  -6759747.44445  24083241.570    24083241.0594   24083247.0274
        -0.000          -0.000
 -33868455.049 9 -26114576.20949  20123671.197    20123670.5834   20123674.6064
        -0.000          -0.000
 -16862459.231 9 -12839395.79246  22400995.827    22400994.8844   22401000.1044
        -0.000          -0.000
 97  3  7  1  6 29.9980000  0  7  4  9 24 30  6  5 10               -0.001933193
 -32828479.773 9 -25005322.16448  21449440.835    21449440.9014   21449444.5984
        -0.000          -0.000
 -28225869.181 9 -21670717.22947  21875569.159    21875568.8494   21875573.5604
        -0.000          -0.000
 -35971989.807 9 -28004133.78149  19776290.537    19776290.2294   19776294.7214
        -0.000          -0.000
 -19262309.671 9 -14402416.21247  22002453.672    22002453.7084   22002457.1844
        -0.000          -0.000
  -8811953.829 8  -6836449.88745  24064509.817    24064509.3764   24064515.4454
        -0.000          -0.000
 -33943895.091 9 -26173360.65349  20109315.456    20109314.8314   20109318.8334
        -0.000          -0.000
 -16981212.512 9 -12931930.76946  22378397.671    22378396.7494   22378402.1814
        -0.000          -0.000
 97  3  7  1  6 59.9980000  0  7  4  9 24 30  6  5 10               -0.001951667
 -32776554.306 9 -24964860.76248  21459321.913    21459321.9814   21459325.6904
        -0.000          -0.000
 -28182290.997 9 -21636760.21647  21883861.833    21883861.5684   21883866.2654
        -0.000          -0.000
 -35984464.121 9 -28013854.01249  19773916.753    19773916.4724   19773920.9454
        -0.000          -0.000
 -19381876.830 9 -14495585.39047  21979700.747    21979700.8304   21979704.3044
        -0.000          -0.000
  -8910387.393 8  -6913151.30645  24045778.136    24045778.1254   24045784.1944
        -0.000          -0.000
 -34018964.433 9 -26231856.23449  20095030.255    20095029.6214   20095033.6064
        -0.000          -0.000
 -17099797.508 9 -13024334.61046  22355831.609    22355830.7404   22355836.2534
        -0.000          -0.000
 97  3  7  1  7 29.9980000  0  7  4  9 24 30  6  5 10               -0.001970160
 -32724415.152 9 -24924232.85048  21469243.687    21469243.7224   21469247.4634
        -0.000          -0.000
 -28138445.706 9 -21602595.07647  21892205.288    21892205.0624   21892209.7634
        -0.000          -0.000
 -35996456.557 9 -28023198.75849  19771634.658    19771634.3424   19771638.8424
        -0.000          -0.000
 -19501274.681 9 -14588622.64747  21956980.160    21956980.1394   21956983.6604
        -0.000          -0.000
  -9008796.697 8  -6989833.79045  24027051.253    24027051.2394   24027057.3294
        -0.000          -0.000
 -34093635.209 9 -26290041.24549  20080820.914    20080820.2674   20080824.2354
        -0.000          -0.000
 -17218199.163 9 -13116595.58446  22333300.497    22333299.5694   22333305.1294
        -0.000          -0.000
 97  3  7  1  7 59.9980000  0  7  4  9 24 30  6  5 10               -0.001988656
 -32672044.317 9 -24883424.40548  21479209.450    21479209.5734   21479213.3074
        -0.000          -0.000
 -28094305.595 9 -21568200.20047  21900604.917    21900604.6774   21900609.3504
        -0.000          -0.000
 -36007955.929 9 -28032159.30249  19769446.349    19769446.0574   19769450.5574
        -0.000          -0.000
 -19620480.380 9 -14681510.18347  21934296.036    21934295.9934   21934299.5384
        -0.000          -0.000
  -9107168.260 8  -7066486.90645  24008332.038    24008331.7984   24008337.6764
        -0.000          -0.000
 -34167876.427 9 -26347891.53849  20066693.244    20066692.6284   20066696.5684
        -0.000          -0.000
 -17336375.446 9 -13208680.96146  22310812.136    22310811.1984   22310816.8724
        -0.000          -0.000
 97  3  7  1  8 29.9980000  0  7  4  9 24 30  6  5 10               -0.002007160
 -32619432.949 9 -24842428.53348  21489221.085    21489221.1424   21489224.8694
        -0.000          -0.000
 -28049867.133 9 -21533572.84547  21909061.306    21909061.0134   21909065.6854
        -0.000          -0.000
 -36018969.036 9 -28040740.92849  19767350.658    19767350.3584   19767354.8704
        -0.000          -0.000
 -19739492.207 9 -14774246.65247  21911648.792    21911648.7714   21911652.3284
        -0.000          -0.000
  -9205521.346 8  -7143125.57445  23989616.144    23989615.7854   23989621.6124
        -0.000          -0.000
 -34241692.111 9 -26405410.24449  20052646.528    20052645.9024   20052649.8634
        -0.000          -0.000
 -17454326.800 9 -13300591.04847  22288366.654    22288365.7654   22288371.3284
        -0.000          -0.000
 97  3  7  1  8 59.9970000  0  7  4  9 24 30  6  5 10               -0.002025655
 -32566547.669 9 -24801219.22548  21499284.793    21499284.8654   21499288.6164
        -0.000          -0.000
 -28005109.337 9 -21498696.65247  21917578.424    21917578.1464   21917582.7624
        -0.000          -0.000
 -36029474.390 9 -28048926.90649  19765351.544    19765351.2324   19765355.7364
        -0.000          -0.000
 -19858267.784 9 -14866799.02647  21889046.645    21889046.5394   21889050.1024
        -0.000          -0.000
  -9303834.379 8  -7219733.06945  23970907.692    23970907.4674   23970913.1784
        -0.000          -0.000
 -34315052.553 9 -26462574.21849  20038686.458    20038685.8664   20038689.8384
        -0.000          -0.000
 -17572036.545 9 -13392312.87847  22265967.458    22265966.5124   22265971.9174
        -0.000          -0.000
 97  3  7  1  9 29.9970000  0  7  4  9 24 30  6  5 10               -0.002044141
 -32513392.657 9 -24759799.73647  21509399.792    21509399.9024   21509403.6614
        -0.000          -0.000
 -27960046.135 9 -21463582.47547  21926153.569    21926153.3404   21926158.0154
        -0.000          -0.000
 -36039508.319 9 -28056745.54049  19763442.144    19763441.8644   19763446.3594
        -0.000          -0.000
 -19976830.736 9 -14959185.72747  21866484.816    21866484.7684   21866488.3234
        -0.000          -0.000
  -9402119.995 8  -7296319.19645  23952204.194    23952204.1644   23952210.1154
        -0.000          -0.000
 -34387973.370 9 -26519395.62649  20024810.076    20024809.4934   20024813.4914
        -0.000          -0.000
 -17689518.817 9 -13483857.47747  22243611.177    22243610.2794   22243615.8184
        -0.000          -0.000
 97  3  7  1  9 59.9970000  0  7  4  9 24 30  6  5 10               -0.002062610
 -32459967.049 9 -24718169.38747  21519566.363    21519566.4244   21519570.2324
        -0.000          -0.000
 -27914700.486 9 -21428248.22347  21934782.590    21934782.3164   21934787.1114
        -0.000          -0.000
 -36049085.869 9 -28064208.55149  19761619.597    19761619.3164   19761623.8074
        -0.000          -0.000
 -20095189.385 9 -15051413.22947  21843961.866    21843961.8204   21843965.4104
        -0.000          -0.000
  -9500388.552 8  -7372892.03145  23933504.252    23933504.3304   23933510.2574
        -0.000          -0.000
 -34460476.352 9 -26575891.45149  20011013.187    20011012.6244   20011016.6164
        -0.000          -0.000
 -17806773.595 9 -13575224.80847  22221298.168    22221297.3264   22221302.9324
        -0.000          -0.000
 97  3  7  1 10 29.9970000  0  7  4  9 24 30  6  5 10               -0.002081063
 -32406266.758 9 -24676325.01247  21529785.150    21529785.2204   21529789.0504
        -0.000          -0.000
 -27869090.143 9 -21392707.72247  21943461.962    21943461.6974   21943466.5804
        -0.000          -0.000
 -36058204.275 9 -28071313.79249  19759884.389    19759884.1274   19759888.6174
        -0.000          -0.000
 -20213336.728 9 -15143476.08047  21821479.020    21821479.1244   21821482.6724
        -0.000          -0.000
  -9598630.395 8  -7449444.03545  23914809.758    23914809.5624   23914815.4734
        -0.000          -0.000
 -34532578.579 9 -26632074.99549  19997292.624    19997292.0534   19997296.0364
        -0.000          -0.000
 -17923827.948 9 -13666435.95247  22199023.489    22199022.7064   22199027.9954
        -0.000          -0.000
 97  3  7  1 10 59.9970000  0  7  4  9 24 30  6  5 10               -0.002099491
 -32352290.472 9 -24634265.56547  21540056.456    21540056.5694   21540060.3684
        -0.000          -0.000
 -27823202.896 9 -21356951.44447  21952194.094    21952193.7924   21952198.6764
        -0.000          -0.000
 -36066848.538 9 -28078049.56949  19758239.434    19758239.1764   19758243.6734
        -0.000          -0.000
 -20331260.351 9 -15235364.59647  21799038.865    21799039.0194   21799042.5154
        -0.000          -0.000
  -9696808.287 8  -7525946.20545  23896126.945    23896126.6364   23896132.4994
        -0.000          -0.000
 -34604271.318 9 -26687939.45949  19983649.974    19983649.3974   19983653.3654
        -0.000          -0.000
 -18040678.901 9 -13757488.58347  22176787.692    22176786.8194   22176792.0044
        -0.000          -0.000
 97  3  7  1 11 29.9970000  0  7  4  9 24 30  6  5 10               -0.002117916
 -32298074.399 9 -24592019.27447  21550373.445    21550373.5174   21550377.3174
        -0.000          -0.000
 -27777053.436 9 -21320990.83547  21960976.152    21960975.8224   21960980.6494
        -0.000          -0.000
 -36075046.175 9 -28084437.33049  19756679.473    19756679.2064   19756683.6864
        -0.000          -0.000
 -20448995.355 9 -15327106.14047  21776634.747    21776634.7804   21776638.2994
        -0.000          -0.000
  -9794952.203 8  -7602421.92145  23877450.734    23877450.4754   23877456.2984
        -0.000          -0.000
 -34675587.142 9 -26743510.22349  19970079.004    19970078.4124   19970082.3984
        -0.000          -0.000
 -18157355.534 9 -13848405.40747  22154584.823    22154583.8914   22154589.0904
        -0.000          -0.000
 97  3  7  1 11 59.9970000  0  7  4  9 24 30  6  5 10               -0.002136349
 -32243629.371 9 -24549594.57847  21560734.052    21560734.1044   21560737.8684
        -0.000          -0.000
 -27730645.048 9 -21284828.47047  21969807.368    21969807.0594   21969811.8214
        -0.000          -0.000
 -36082794.615 9 -28090475.06749  19755204.992    19755204.7164   19755209.1884
        -0.000          -0.000
 -20566536.147 9 -15418696.35447  21754267.347    21754267.4544   21754271.0544
        -0.000          -0.000
  -9893084.158 9  -7678888.31345  23858776.895    23858776.6534   23858782.3974
        -0.000          -0.000
 -34746539.383 9 -26798797.67749  19956577.197    19956576.5904   19956580.5654
        -0.000          -0.000
 -18273866.717 9 -13939193.32047  22132413.332    22132412.5204   22132417.7364
        -0.000          -0.000
 97  3  7  1 12 29.9970000  0  7  4  9 24 30  6  5 10               -0.002154803
 -32188983.354 9 -24507013.26047  21571132.835    21571132.8854   21571136.6464
        -0.000          -0.000
 -27683969.194 9 -21248457.69447  21978689.405    21978689.1304   21978693.9234
        -0.000          -0.000
 -36090112.818 9 -28096177.55649  19753812.409    19753812.1404   19753816.5714
        -0.000          -0.000
 -20683882.731 9 -15510135.23847  21731936.985    21731937.1134   21731940.6854
        -0.000          -0.000
  -9991208.398 9  -7755348.66045  23840104.459    23840104.2094   23840109.8934
        -0.000          -0.000
 -34817117.822 9 -26853793.85749  19943146.531    19943145.9374   19943149.9314
        -0.000          -0.000
 -18390219.889 9 -14029858.07947  22110272.092    22110271.2174   22110276.4004
        -0.000          -0.000
 97  3  7  1 12 59.9970000  0  7  4  9 24 30  6  5 10               -0.002173261
 -32134112.756 9 -24464256.95247  21581574.332    21581574.4474   21581578.2064
        -0.000          -0.000
 -27636980.045 9 -21211842.79047  21987631.074    21987630.8604   21987635.6284
        -0.000          -0.000
 -36096974.305 9 -28101524.15949  19752506.692    19752506.4144   19752510.8744
        -0.000          -0.000
 -20801002.621 9 -15601397.45847  21709649.911    21709649.9224   21709653.4754
        -0.000          -0.000
 -10089307.589 8  -7831789.52645  23821436.999    23821436.5724   23821442.1644
        -0.000          -0.000
 -34887268.799 9 -26908456.94849  19929797.254    19929796.6794   19929800.6664
        -0.000          -0.000
 -18506355.745 9 -14120353.51547  22088172.344    22088171.4184   22088176.5144
        -0.000          -0.000
 97  3  7  1 13 29.9970000  0  7  4  9 24 30  6  5 10               -0.002191736
 -32079040.593 9 -24421343.58247  21592054.229    21592054.3324   21592058.0334
        -0.000          -0.000
 -27589709.082 9 -21175008.29347  21996626.556    21996626.2724   21996630.9674
        -0.000          -0.000
 -36103400.573 9 -28106531.63749  19751283.815    19751283.5514   19751288.0134
        -0.000          -0.000
 -20917900.505 9 -15692486.70147  21687404.953    21687405.0124   21687408.5604
        -0.000          -0.000
 -10187408.047 9  -7908231.35945  23802768.908    23802768.5864   23802774.1874
        -0.000          -0.000
 -34956985.425 9 -26962781.58449  19916530.603    19916530.0334   19916534.0264
        -0.000          -0.000
 -18622263.276 9 -14210671.02747  22066115.759    22066114.8474   22066119.9804
        -0.000          -0.000
 97  3  7  1 13 59.9970000  0  7  4  9 24 30  6  5 10               -0.002210208
 -32023747.236 9 -24378257.84347  21602576.224    21602576.2884   21602580.0224
        -0.000          -0.000
 -27542139.352 9 -21137940.98547  22005678.826    22005678.5564   22005683.1394
        -0.000          -0.000
 -36109371.156 9 -28111184.03249  19750147.597    19750147.3384   19750151.8144
        -0.000          -0.000
 -21034546.709 9 -15783379.83047  21665207.763    21665207.8694   21665211.5234
        -0.000          -0.000
 -10285471.681 9  -7984644.53045  23784108.002    23784107.6954   23784113.1174
        -0.000          -0.000
 -35026226.175 9 -27016735.40749  19903354.545    19903353.9754   19903357.9674
        -0.000          -0.000
 -18737909.867 9 -14300785.21547  22044108.838    22044107.9914   22044113.0754
        -0.000          -0.000
 97  3  7  1 14 29.9970000  0  7  4  9 24 30  6  5 10               -0.002228685
 -31968244.161 9 -24335008.68847  21613138.018    21613138.1664   21613141.8894
        -0.000          -0.000
 -27494283.990 9 -21100651.11147  22014785.447    22014785.1524   22014789.7804
        -0.000          -0.000
 -36114893.816 9 -28115487.39849  19749096.672    19749096.3854   19749100.8724
        -0.000          -0.000
 -21150961.845 9 -15874092.90947  21643054.507    21643054.7054   21643058.4764
        -0.000          -0.000
 -10383493.263 8  -8061024.93545  23765455.078    23765454.6194   23765459.9544
        -0.000          -0.000
 -35094978.142 9 -27070308.36249  19890271.478    19890270.8924   19890274.8994
        -0.000          -0.000
 -18853290.718 9 -14390692.33147  22022152.626    22022151.7224   22022156.7214
        -0.000          -0.000
 97  3  7  1 14 59.9970000  0  7  4  9 24 30  6  5 10               -0.002247162
 -31912525.736 9 -24291591.73847  21623740.953    21623741.0354   21623744.7454
        -0.000          -0.000
 -27446172.003 9 -21063161.27447  22023940.825    22023940.5534   22023945.2594
        -0.000          -0.000
 -36119963.790 9 -28119438.02149  19748131.916    19748131.6334   19748136.1084
        -0.000          -0.000
 -21267153.275 9 -15964631.66347  21620943.999    21620944.1824   21620948.0124
        -0.000          -0.000
 -10481482.015 9  -8137379.71845  23746808.178    23746807.8574   23746813.3594
        -0.000          -0.000
 -35163263.134 9 -27123517.44349  19877277.228    19877276.6584   19877280.6574
        -0.000          -0.000
 -18968406.836 9 -14480393.17047  22000246.625    22000245.7764   22000250.8644
        -0.000          -0.000
 97  3  7  1 15 29.9970000  0  7  4  9 24 30  6  5 10               -0.002265626
 -31856582.738 9 -24247999.78747  21634386.557    21634386.6464   21634390.3404
        -0.000          -0.000
 -27397807.505 9 -21025474.67047  22033144.356    22033144.0624   22033148.8344
        -0.000          -0.000
 -36124568.681 9 -28123026.23649  19747255.620    19747255.3404   19747259.8124
        -0.000          -0.000
 -21383108.716 9 -16054986.52847  21598878.367    21598878.5584   21598882.4344
        -0.000          -0.000
 -10579416.981 9  -8213692.62945  23728171.938    23728171.5794   23728177.0794
        -0.000          -0.000
 -35231098.720 9 -27176376.33249  19864368.551    19864367.9944   19864371.9634
        -0.000          -0.000
 -19083259.913 9 -14569889.05747  21978390.846    21978389.9774   21978395.0274
        -0.000          -0.000
 97  3  7  1 15 59.9970000  0  7  4  9 24 30  6  5 10               -0.002284066
 -31800404.058 9 -24204224.18747  21645076.938    21645077.0754   21645080.7784
        -0.000          -0.000
 -27349184.798 9 -20987586.85947  22042396.955    22042396.6364   22042401.4544
        -0.000          -0.000
 -36128705.814 9 -28126249.96749  19746468.345    19746468.0754   19746472.5294
        -0.000          -0.000
 -21498826.326 9 -16145156.07347  21576858.015    21576858.2324   21576862.0794
        -0.000          -0.000
 -10677293.989 8  -8289960.37645  23709546.510    23709546.0834   23709551.5654
        -0.000          -0.000
 -35298506.510 9 -27228901.87749  19851541.269    19851540.6944   19851544.6494
        -0.000          -0.000
 -19197851.267 9 -14659180.97547  21956584.796    21956583.9134   21956588.9994
        -0.000          -0.000
 97  3  7  1 16 29.9970000  0  7  4  9 24 30  6  5 10               -0.002302469
 -31743984.736 9 -24160261.07147  21655813.227    21655813.2924   21655816.9904
        -0.000          -0.000
 -27300306.034 9 -20949499.53847  22051698.143    22051697.8674   22051702.7744
        -0.000          -0.000
 -36132372.936 9 -28129107.45449  19745770.477    19745770.1784   19745774.6624
        -0.000          -0.000
 -21614290.587 9 -16235128.20347  21554885.942    21554886.1434   21554889.9224
        -0.000          -0.000
 -10775114.362 9  -8366183.98445  23690931.575    23690931.3104   23690937.0024
        -0.000          -0.000
 -35365500.271 9 -27281104.80249  19838792.795    19838792.2304   19838796.1274
        -0.000          -0.000
 -19312161.423 9 -14748253.78047  21934832.206    21934831.3224   21934836.3934
        -0.000          -0.000
 97  3  7  1 16 59.9970000  0  7  4  9 24 30  6  5 10               -0.002320831
 -31687326.548 9 -24116111.84147  21666594.857    21666594.9484   21666598.6844
        -0.000          -0.000
 -27251167.828 9 -20911210.04147  22061048.867    22061048.5844   22061053.4254
        -0.000          -0.000
 -36135584.981 9 -28131610.34349  19745159.214    19745158.9214   19745163.4274
        -0.000          -0.000
 -21729490.194 9 -16324894.10747  21532964.157    21532964.3794   21532968.1174
        -0.000          -0.000
 -10872890.062 9  -8442372.78645  23672325.493    23672325.1704   23672330.7124
        -0.000          -0.000
 -35432099.102 9 -27332999.98949  19826119.539    19826118.9334   19826122.8064
        -0.000          -0.000
 -19426204.680 9 -14837118.61547  21913130.414    21913129.5364   21913134.5574
        -0.000          -0.000
 97  3  7  1 17 29.9970000  0  7  4  9 24 30  6  5 10               -0.002339169
 -31630454.793 9 -24071796.18347  21677417.240    21677417.3464   21677421.0234
        -0.000          -0.000
 -27201765.223 9 -20872714.52547  22070449.907    22070449.6164   22070454.3674
        -0.000          -0.000
 -36138345.542 9 -28133761.41849  19744633.872    19744633.5654   19744638.0504
        -0.000          -0.000
 -21844424.222 9 -16414453.06847  21511092.938    21511093.1704   21511096.8444
        -0.000          -0.000
 -10970622.362 8  -8518527.75045  23653727.698    23653727.3554   23653732.7834
        -0.000          -0.000
 -35498282.388 9 -27384571.37649  19813525.262    19813524.6724   19813528.5314
        -0.000          -0.000
 -19539981.668 9 -14925775.97447  21891479.474    21891478.6344   21891483.5454
        -0.000          -0.000
 97  3  7  1 17 59.9970000  0  7  4  9 24 30  6  5 10               -0.002357502
 -31573389.820 9 -24027329.96247  21688276.297    21688276.4194   21688280.1014
        -0.000          -0.000
 -27152101.933 9 -20834015.86647  22079900.581    22079900.3034   22079904.9284
        -0.000          -0.000
 -36140675.181 9 -28135576.71249  19744190.571    19744190.2914   19744194.7404
        -0.000          -0.000
 -21959111.753 9 -16503819.96647  21489268.582    21489268.8594   21489272.4814
        -0.000          -0.000
 -11068334.157 9  -8594666.75046  23635133.537    23635133.2974   23635139.0394
        -0.000          -0.000
 -35564037.785 9 -27435809.34149  19801012.439    19801011.8454   19801015.6974
        -0.000          -0.000
 -19653495.407 9 -15014228.19947  21869878.613    21869877.7094   21869882.6424
        -0.000          -0.000
 97  3  7  1 18 29.9970000  0  7  4  9 24 30  6  5 10               -0.002375846
 -31516143.183 9 -23982722.19347  21699169.983    21699170.1074   21699173.7984
        -0.000          -0.000
 -27102185.743 9 -20795120.14647  22089399.341    22089399.0174   22089403.7114
        -0.000          -0.000
 -36142588.918 9 -28137067.92649  19743826.413    19743826.1044   19743830.5604
        -0.000          -0.000
 -22073569.539 9 -16593007.82247  21467488.168    21467488.3074   21467491.8794
        -0.000          -0.000
 -11166037.917 8  -8670799.48545  23616541.008    23616540.8794   23616546.6194
        -0.000          -0.000
 -35629360.583 9 -27486710.21849  19788581.901    19788581.2904   19788585.1804
        -0.000          -0.000
 -19766768.209 9 -15102492.69147  21848323.341    21848322.4314   21848327.4394
        -0.000          -0.000
 97  3  7  1 18 59.9970000  0  7  4  9 24 30  6  5 10               -0.002394209
 -31458710.856 9 -23937969.72547  21710098.971    21710099.1214   21710102.7664
        -0.000          -0.000
 -27052022.871 9 -20756032.22147  22098944.894    22098944.6294   22098949.3634
        -0.000          -0.000
 -36144077.599 9 -28138227.93149  19743543.095    19743542.8104   19743547.2914
        -0.000          -0.000
 -22187787.425 9 -16682008.75047  21445753.367    21445753.4144   21445756.8984
        -0.000          -0.000
 -11263732.276 9  -8746924.91345  23597950.328    23597950.2084   23597955.7134
        -0.000          -0.000
 -35694226.545 9 -27537255.11949  19776238.325    19776237.7254   19776241.6284
        -0.000          -0.000
 -19879802.245 9 -15190571.11547  21826813.536    21826812.6724   21826817.7304
        -0.000          -0.000
 97  3  7  1 19 29.9970000  0  7  4  9 24 30  6  5 10               -0.002412596
 -31401107.545 9 -23893084.03047  21721060.566    21721060.6734   21721064.3094
        -0.000          -0.000
 -27001640.606 9 -20716773.32847  22108532.345    22108532.0924   22108536.8284
        -0.000          -0.000
 -36145148.256 9 -28139062.20349  19743339.343    19743339.0414   19743343.5674
        -0.000          -0.000
 -22301766.698 9 -16770823.74647  21424063.910    21424063.8894   21424067.2694
        -0.000          -0.000
 -11361417.839 9  -8823043.44745  23579361.606    23579361.3584   23579366.6064
        -0.000          -0.000
 -35758630.337 9 -27587439.88449  19763982.676    19763982.0704   19763985.9954
        -0.000          -0.000
 -19992592.830 9 -15278459.82647  21805350.197    21805349.3404   21805354.3734
        -0.000          -0.000
 97  3  7  1 19 59.9970000  0  7  4  9 24 30  6  5 10               -0.002430978
 -31343288.111 9 -23848029.93547  21732063.296    21732063.3264   21732066.9524
        -0.000          -0.000
 -26951025.646 9 -20677333.10747  22118164.013    22118163.7944   22118168.4464
        -0.000          -0.000
 -36145798.811 9 -28139569.12049  19743215.497    19743215.2174   19743219.7644
        -0.000          -0.000
 -22415482.777 9 -16859433.65547  21402424.462    21402424.4504   21402427.7684
        -0.000          -0.000
 -11459079.482 9  -8899143.36045  23560777.141    23560776.8244   23560782.2544
        -0.000          -0.000
 -35822555.421 9 -27637251.63449  19751818.119    19751817.5414   19751821.4494
        -0.000          -0.000
 -20105117.115 9 -15366141.05247  21783937.542    21783936.6644   21783941.6874
        -0.000          -0.000
 97  3  7  1 20 29.9970000  0  7  4  9 24 30  6  5 10               -0.002449375
 -31285279.158 9 -23802828.14847  21743101.927    21743102.0744   21743105.6944
        -0.000          -0.000
 -26900224.192 9 -20637747.57147  22127831.151    22127830.9224   22127835.6014
        -0.000          -0.000
 -36146045.314 9 -28139761.19349  19743168.575    19743168.3094   19743172.8084
        -0.000          -0.000
 -22528942.113 9 -16947843.50647  21380833.929    21380833.8874   21380837.1374
        -0.000          -0.000
 -11556737.472 9  -8975240.43645  23542193.241    23542193.1994   23542198.5844
        -0.000          -0.000
 -35886026.090 9 -27686709.29149  19739740.075    19739739.4834   19739743.3344
        -0.000          -0.000
 -20217400.237 9 -15453634.36347  21762570.646    21762569.7274   21762574.8874
        -0.000          -0.000
 97  3  7  1 20 59.9970000  0  7  4  9 24 30  6  5 10               -0.002467769
 -31227072.737 9 -23757472.50047  21754178.257    21754178.3764   21754182.0144
        -0.000          -0.000
 -26849208.911 9 -20597995.42047  22137538.931    22137538.7014   22137543.4734
        -0.000          -0.000
 -36145862.598 9 -28139618.80649  19743203.326    19743203.0654   19743207.5454
        -0.000          -0.000
 -22642117.238 9 -17036031.88947  21359297.483    21359297.3464   21359300.6234
        -0.000          -0.000
 -11654360.921 8  -9051310.60145  23523616.090    23523616.0004   23523621.4214
        -0.000          -0.000
 -35949018.463 9 -27735794.24749  19727753.075    19727752.4814   19727756.2694
        -0.000          -0.000
 -20329403.578 9 -15540909.67047  21741257.056    21741256.2024   21741261.3504
        -0.000          -0.000
 97  3  7  1 21 29.9970000  0  7  4  9 24 30  6  5 10               -0.002486161
 -31168677.133 9 -23711969.43747  21765290.679    21765290.7634   21765294.3494
        -0.000          -0.000
 -26797982.528 9 -20558078.77047  22147286.993    22147286.7634   22147291.6554
        -0.000          -0.000
 -36145267.527 9 -28139155.10049  19743316.563    19743316.3074   19743320.7504
        -0.000          -0.000
 -22755035.951 9 -17124020.48047  21337809.543    21337809.5424   21337812.8954
        -0.000          -0.000
 -11751957.330 8  -9127359.65745  23505043.906    23505043.8274   23505049.1894
        -0.000          -0.000
 -36011557.800 9 -27784526.19049  19715852.205    19715851.6204   19715855.3814
        -0.000          -0.000
 -20441142.677 9 -15627979.05247  21719993.844    21719992.9824   21719998.0744
        -0.000          -0.000
 97  3  7  1 21 59.9970000  0  7  4  9 24 30  6  5 10               -0.002504530
 -31110061.003 9 -23666294.53047  21776444.891    21776445.0014   21776448.6304
        -0.000          -0.000
 -26746513.450 9 -20517973.01247  22157081.336    22157081.1524   22157086.0684
        -0.000          -0.000
 -36144227.514 9 -28138344.69149  19743514.462    19743514.2004   19743518.6604
        -0.000          -0.000
 -22867685.380 9 -17211799.23847  21316372.914    21316372.9524   21316376.4254
        -0.000          -0.000
 -11849504.538 9  -9203370.43545  23486481.354    23486481.2384   23486486.2694
        -0.000          -0.000
 -36073639.050 9 -27832901.18149  19704038.507    19704037.9194   19704041.7074
        -0.000          -0.000
 -20552601.016 9 -15714829.67247  21698784.089    21698783.2054   21698788.2514
        -0.000          -0.000
 97  3  7  1 22 29.9970000  0  7  4  9 24 30  6  5 10               -0.002522889
 -31051268.166 9 -23620481.92947  21787632.763    21787632.8754   21787636.5434
        -0.000          -0.000
 -26694831.876 9 -20477701.67447  22166916.212    22166915.9734   22166920.8544
        -0.000          -0.000
 -36142765.376 9 -28137205.35749  19743792.701    19743792.4374   19743796.9184
        -0.000          -0.000
 -22980102.635 9 -17299397.08447  21294980.434    21294980.6024   21294984.1624
        -0.000          -0.000
 -11947022.008 8  -9279357.97745  23467924.353    23467924.1754   23467929.3754
        -0.000          -0.000
 -36135307.768 9 -27880954.72749  19692303.274    19692302.7134   19692306.5834
        -0.000          -0.000
 -20663790.932 9 -15801471.14047  21677625.326    21677624.4334   21677629.5474
        -0.000          -0.000
 97  3  7  1 22 59.9970000  0  7  4  9 24 30  6  5 10               -0.002541225
 -30992286.755 9 -23574522.39447  21798856.587    21798856.6864   21798860.3134
        -0.000          -0.000
 -26642942.337 9 -20437268.28047  22176790.556    22176790.2874   22176795.1044
        -0.000          -0.000
 -36140896.561 9 -28135749.13049  19744148.278    19744148.0414   19744152.5364
        -0.000          -0.000
 -23092300.359 9 -17386823.86247  21273629.828    21273630.0324   21273633.6694
        -0.000          -0.000
 -12044510.375 9  -9355322.88745  23449373.025    23449372.8674   23449377.9334
        -0.000          -0.000
 -36196569.204 9 -27928690.90949  19680645.568    19680645.0134   19680648.9394
        -0.000          -0.000
 -20774709.204 9 -15887900.93047  21656518.268    21656517.3954   21656522.4624
        -0.000          -0.000
 97  3  7  1 23 29.9970000  0  7  4  9 24 30  6  5 10               -0.002559536
 -30933102.402 9 -23528404.71247  21810119.003    21810119.1094   21810122.6724
        -0.000          -0.000
 -26590855.944 9 -20396681.49047  22186702.375    22186702.0764   22186706.8624
        -0.000          -0.000
 -36138624.253 9 -28133978.49149  19744580.660    19744580.4114   19744584.9244
        -0.000          -0.000
 -23204262.912 9 -17474067.38947  21252323.939    21252324.2124   21252327.8784
        -0.000          -0.000
 -12141977.422 8  -9431271.17845  23430825.506    23430825.3674   23430830.4064
        -0.000          -0.000
 -36257411.405 9 -27976100.40849  19669067.667    19669067.1084   19669071.0934
        -0.000          -0.000
 -20885346.503 9 -15974111.77547  21635464.675    21635463.8114   21635468.8054
        -0.000          -0.000
 97  3  7  1 23 59.9970000  0  7  4  9 24 30  6  5 10               -0.002577827
 -30873728.047 9 -23482138.98647  21821417.556    21821417.6674   21821421.2564
        -0.000          -0.000
 -26538576.756 9 -20355944.47947  22196650.826    22196650.4984   22196655.2904
        -0.000          -0.000
 -36135942.095 9 -28131888.48749  19745091.047    19745090.8084   19745095.3204
        -0.000          -0.000
 -23315977.972 9 -17561118.06347  21231065.220    21231065.4994   21231069.1714
        -0.000          -0.000
 -12239422.291 8  -9507202.16445  23412282.104    23412282.0244   23412287.1894
        -0.000          -0.000
 -36317812.098 9 -28023165.87549  19657573.784    19657573.2454   19657577.2084
        -0.000          -0.000
 -20995673.909 9 -16060081.14547  21614469.956    21614469.0954   21614474.1214
        -0.000          -0.000
 97  3  7  1 24 29.9970000  0  7  4  9 24 30  6  5 10               -0.002596100
 -30814158.798 9 -23435721.38947  21832753.153    21832753.2894   21832756.8944
        -0.000          -0.000
 -26486093.121 9 -20315048.16247  22206638.118    22206637.7654   22206642.6164
        -0.000          -0.000
 -36132835.986 9 -28129468.13349  19745682.135    19745681.8794   19745686.3784
        -0.000          -0.000
 -23427417.734 9 -17647954.23147  21209858.991    21209859.2304   21209862.9124
        -0.000          -0.000
 -12336833.797 9  -9583107.19445  23393745.339    23393745.2874   23393750.3464
        -0.000          -0.000
 -36377727.045 9 -28069852.83949  19646172.350    19646171.8084   19646175.7404
        -0.000          -0.000
 -21105665.308 9 -16145788.69947  21593539.175    21593538.3244   21593543.3694
        -0.000          -0.000
 97  3  7  1 24 59.9970000  0  7  4  9 24 30  6  5 10               -0.002614391
 -30754430.128 9 -23389179.56947  21844119.185    21844119.3004   21844122.9004
        -0.000          -0.000
 -26433428.653 9 -20274010.92747  22216659.759    22216659.4574   22216664.3404
        -0.000          -0.000
 -36129331.207 9 -28126737.12349  19746349.091    19746348.8474   19746353.3224
        -0.000          -0.000
 -23538590.874 9 -17734582.62747  21188703.528    21188703.6964   21188707.3424
        -0.000          -0.000
 -12434255.476 9  -9659020.11445  23375206.755    23375206.4824   23375211.6964
        -0.000          -0.000
 -36437166.852 9 -28116169.56249  19634861.353    19634860.7994   19634864.7104
        -0.000          -0.000
 -21215362.615 9 -16231267.08247  21572664.447    21572663.5964   21572668.6774
        -0.000          -0.000
 97  3  7  1 25 29.9970000  0  7  4  9 24 30  6  5 10               -0.002632692
 -30694535.619 9 -23342508.51647  21855516.717    21855516.8114   21855520.3934
        -0.000          -0.000
 -26380534.536 9 -20232794.74547  22226725.167    22226724.8294   22226729.7504
        -0.000          -0.000
 -36125384.597 9 -28123661.83749  19747100.093    19747099.8274   19747104.2794
        -0.000          -0.000
 -23649450.028 9 -17820966.37247  21167607.866    21167607.9904   21167611.5894
        -0.000          -0.000
 -12531657.678 9  -9734917.86745  23356671.746    23356671.3434   23356676.6314
        -0.000          -0.000
 -36496095.675 9 -28162088.12249  19623647.539    19623646.9824   19623650.8894
        -0.000          -0.000
 -21324725.563 9 -16316484.94047  21551853.400    21551852.5534   21551857.5144
        -0.000          -0.000
 97  3  7  1 25 59.9970000  0  7  4  9 24 30  6  5 10               -0.002651020
 -30634509.620 9 -23295735.01647  21866939.279    21866939.3734   21866942.9864
        -0.000          -0.000
 -26327427.778 9 -20191412.87547  22236830.877    22236830.6034   22236835.5904
        -0.000          -0.000
 -36121012.049 9 -28120254.64649  19747932.132    19747931.8914   19747936.3504
        -0.000          -0.000
 -23760008.893 9 -17907116.10948  21146569.328    21146569.3754   21146572.9474
        -0.000          -0.000
 -12629056.885 9  -9810813.30246  23338137.178    23338136.9054   23338141.9454
        -0.000          -0.000
 -36554542.249 9 -28207630.90249  19612525.472    19612524.9324   19612528.8224
        -0.000          -0.000
 -21433778.130 9 -16401460.92347  21531101.397    21531100.5294   21531105.5244
        -0.000          -0.000
 97  3  7  1 26 29.9970000  0  7  4  9 24 30  6  5 10               -0.002669376
 -30574362.517 9 -23248867.14847  21878384.964    21878385.0494   21878388.6094
        -0.000          -0.000
 -26274128.034 9 -20149880.62247  22246973.356    22246973.1014   22246978.1024
        -0.000          -0.000
 -36116243.075 9 -28116538.55449  19748839.658    19748839.4434   19748843.8894
        -0.000          -0.000
 -23870272.430 9 -17993035.72948  21125586.831    21125586.8714   21125590.4504
        -0.000          -0.000
 -12726470.796 9  -9886720.17846  23319599.824    23319599.6274   23319604.6574
        -0.000          -0.000
 -36612533.237 9 -28252818.67749  19601490.135    19601489.5914   19601493.4864
        -0.000          -0.000
 -21542545.550 9 -16486214.71747  21510403.579    21510402.7184   21510407.7744
        -0.000          -0.000
 97  3  7  1 26 59.9970000  0  7  4  9 24 30  6  5 10               -0.002687744
 -30514093.968 9 -23201904.63147  21889853.650    21889853.7394   21889857.2854
        -0.000          -0.000
 -26220636.922 9 -20108199.24947  22257152.266    22257152.0844   22257157.0584
        -0.000          -0.000
 -36111082.902 9 -28112517.63049  19749821.598    19749821.3634   19749825.8024
        -0.000          -0.000
 -23980233.659 9 -18078719.78848  21104661.741    21104661.8474   21104665.4754
        -0.000          -0.000
 -12823878.340 9  -9962622.10846  23301063.827    23301063.5304   23301068.5984
        -0.000          -0.000
 -36670069.079 9 -28297651.79349  19590541.420    19590540.8914   19590544.8114
        -0.000          -0.000
 -21651009.687 9 -16570732.19647  21489763.482    21489762.6374   21489767.7364
        -0.000          -0.000
 97  3  7  1 27 29.9970000  0  7  4  9 24 30  6  5 10               -0.002706121
 -30453703.779 9 -23154847.34847  21901345.382    21901345.5644   21901349.1284
        -0.000          -0.000
 -26166960.271 9 -20066373.29147  22267366.630    22267366.4634   22267371.3374
        -0.000          -0.000
 -36105529.270 9 -28108190.11649  19750878.395    19750878.1524   19750882.6144
        -0.000          -0.000
 -24089892.251 9 -18164168.02548  21083794.238    21083794.4134   21083798.0684
        -0.000          -0.000
 -12921262.029 9 -10038505.44446  23282532.119    23282531.8494   23282537.0604
        -0.000          -0.000
 -36727144.770 9 -28342126.35149  19579680.274    19579679.7204   19579683.6734
        -0.000          -0.000
 -21759161.970 9 -16655006.67147  21469182.744    21469181.8954   21469186.9654
        -0.000          -0.000
 97  3  7  1 27 59.9970000  0  7  4  9 24 30  6  5 10               -0.002724500
 -30393177.947 9 -23107684.35947  21912863.127    21912863.2314   21912866.7954
        -0.000          -0.000
 -26113122.240 9 -20024421.59747  22277611.797    22277611.6304   22277616.3784
        -0.000          -0.000
 -36099590.348 9 -28103562.37849  19752008.504    19752008.2694   19752012.7644
        -0.000          -0.000
 -24199263.889 9 -18249392.66448  21062981.416    21062981.6614   21062985.2724
        -0.000          -0.000
 -13018616.250 9 -10114365.82646  23264006.205    23264005.9834   23264011.1504
        -0.000          -0.000
 -36783751.345 9 -28386235.36749  19568908.330    19568907.8074   19568911.8064
        -0.000          -0.000
 -21867001.376 9 -16739037.32347  21448661.616    21448660.7224   21448665.7654
        -0.000          -0.000
 97  3  7  1 28 29.9970000  0  7  4  9 24 30  6  5 10               -0.002742855
 -30332475.866 9 -23060384.03447  21924414.386    21924414.5044   21924418.0384
        -0.000          -0.000
 -26059101.473 9 -19982327.50347  22287891.821    22287891.5644   22287896.2654
        -0.000          -0.000
 -36093248.337 9 -28098620.54749  19753215.296    19753215.1044   19753219.6134
        -0.000          -0.000
 -24308329.027 9 -18334378.46848  21042227.117    21042227.2994   21042230.8674
        -0.000          -0.000
 -13115905.206 9 -10190175.33246  23245492.809    23245492.5704   23245497.5564
        -0.000          -0.000
 -36839844.792 9 -28429944.54349  19558234.155    19558233.6274   19558237.6194
        -0.000          -0.000
 -21974486.491 9 -16822791.92947  21428207.770    21428206.9214   21428211.9534
        -0.000          -0.000
 97  3  7  1 28 59.9970000  0  7  4  9 24 30  6  5 10               -0.002761224
 -30271635.565 9 -23012976.01047  21935991.843    21935992.0094   21935995.6164
        -0.000          -0.000
 -26004938.652 9 -19940122.74147  22298198.687    22298198.4784   22298203.1974
        -0.000          -0.000
 -36086539.234 9 -28093392.66549  19754491.973    19754491.7704   19754496.2584
        -0.000          -0.000
 -24417128.135 9 -18419156.97648  21021523.383    21021523.5424   21021527.0634
        -0.000          -0.000
 -13213178.457 9 -10265972.63646  23226982.044    23226981.9564   23226987.0204
        -0.000          -0.000
 -36895456.362 9 -28473278.22949  19547651.615    19547651.0834   19547655.0724
        -0.000          -0.000
 -22081667.916 9 -16906309.89947  21407811.832    21407810.9614   21407816.0244
        -0.000          -0.000
 97  3  7  1 29 29.9970000  0  7  4  9 24 30  6  5 10               -0.002779602
 -30210632.585 9 -22965441.22047  21947600.300    21947600.4624   21947604.0604
        -0.000          -0.000
 -25950626.567 9 -19897801.64447  22308533.972    22308533.7434   22308538.4934
        -0.000          -0.000
 -36079451.742 9 -28087869.93849  19755840.660    19755840.4664   19755844.9164
        -0.000          -0.000
 -24525651.141 9 -18503720.34048  21000872.228    21000872.3194   21000875.8154
        -0.000          -0.000
 -13310440.492 9 -10341761.17646  23208473.513    23208473.5784   23208478.7064
        -0.000          -0.000
 -36950575.944 9 -28516228.54949  19537162.699    19537162.1844   19537166.1444
        -0.000          -0.000
 -22188557.732 9 -16989600.63747  21387471.249    21387470.4224   21387475.5784
        -0.000          -0.000
 97  3  7  1 29 59.9970000  0  7  4  9 24 30  6  5 10               -0.002797975
 -30149455.611 9 -22917770.84547  21959241.910    21959242.0234   21959245.6224
        -0.000          -0.000
 -25896173.370 9 -19855370.59147  22318896.195    22318895.9204   22318900.5764
        -0.000          -0.000
 -36071998.322 9 -28082062.06949  19757258.987    19757258.8144   19757263.2584
        -0.000          -0.000
 -24633897.850 9 -18588068.41148  20980273.557    20980273.6694   20980277.1674
        -0.000          -0.000
 -13407702.674 9 -10417549.85246  23189965.180    23189965.1814   23189970.2634
        -0.000          -0.000
 -37005221.448 9 -28558809.45449  19526764.002    19526763.4734   19526767.4434
        -0.000          -0.000
 -22295144.559 9 -17072655.27547  21367188.381    21367187.5844   21367192.6924
        -0.000          -0.000
 97  3  7  1 30 29.9970000  0  7  4  9 24 30  6  5 10               -0.002816352
 -30088130.872 9 -22869985.33047  21970911.579    21970911.7044   21970915.3324
        -0.000          -0.000
 -25841574.832 9 -19812826.28047  22329285.918    22329285.6274   22329290.2954
        -0.000          -0.000
 -36064197.962 9 -28075983.85949  19758743.365    19758743.1674   19758747.6224
        -0.000          -0.000
 -24741865.487 9 -18672199.01648  20959728.024    20959728.0924   20959731.6384
        -0.000          -0.000
 -13504985.519 9 -10493354.59446  23171452.885    23171452.8774   23171457.9974
        -0.000          -0.000
 -37059424.545 9 -28601045.62649  19516449.507    19516448.9744   19516452.9144
        -0.000          -0.000
 -22401452.228 9 -17155492.37847  21346958.716    21346957.9084   21346962.9434
        -0.000          -0.000
 97  3  7  1 30 59.9970000  0  7  4  9 24 30  6  5 10               -0.002834709
 -30026629.181 9 -22822061.93547  21982614.976    21982615.0924   21982618.6574
        -0.000          -0.000
 -25786791.179 9 -19770137.75047  22339710.766    22339710.5304   22339715.3814
        -0.000          -0.000
 -36055994.618 9 -28069591.63949  19760304.361    19760304.1564   19760308.6394
        -0.000          -0.000
 -24849506.873 9 -18756075.40548  20939244.502    20939244.5534   20939248.1334
        -0.000          -0.000
 -13602248.026 9 -10569143.50546  23152944.642    23152944.5204   23152949.5074
        -0.000          -0.000
 -37113156.557 9 -28642914.72249  19506224.627    19506224.0724   19506228.0294
        -0.000          -0.000
 -22507440.068 9 -17238080.26847  21326789.996    21326789.1814   21326794.1504
        -0.000          -0.000
 97  3  7  1 31 29.9970000  0  7  4  9 24 30  6  5 10               -0.002853070
 -29965015.481 9 -22774051.26547  21994339.657    21994339.7464   21994343.3884
        -0.000          -0.000
 -25731868.269 9 -19727340.68847  22350162.118    22350161.8664   22350166.9324
        -0.000          -0.000
 -36047424.081 9 -28062913.28949  19761935.317    19761935.0974   19761939.5954
        -0.000          -0.000
 -24956873.275 9 -18839737.52748  20918813.165    20918813.3274   20918816.9764
        -0.000          -0.000
 -13699519.618 9 -10644939.49346  23134434.417    23134434.2454   23134439.2484
        -0.000          -0.000
 -37166470.903 9 -28684458.36549  19496079.193    19496078.6664   19496082.6444
        -0.000          -0.000
 -22613120.973 9 -17320429.00347  21306679.502    21306678.6834   21306683.6854
        -0.000          -0.000
 97  3  7  1 31 59.9970000  0  7  4  9 24 30  6  5 10               -0.002871415
 -29903279.370 9 -22725945.19947  22006087.523    22006087.7234   22006091.3454
        -0.000          -0.000
 -25676770.920 9 -19684407.71047  22360646.694    22360646.4974   22360651.6184
        -0.000          -0.000
 -36038462.740 9 -28055930.42049  19763640.588    19763640.3864   19763644.8814
        -0.000          -0.000
 -25063945.354 9 -18923170.30848  20898437.899    20898438.1234   20898441.8114
        -0.000          -0.000
 -13796766.157 9 -10720715.96846  23115928.764    23115928.7064   23115933.8054
        -0.000          -0.000
 -37219337.073 9 -28725652.78149  19486019.120    19486018.5904   19486022.5814
        -0.000          -0.000
 -22718440.238 9 -17402495.94047  21286637.861    21286637.0784   21286642.1104
        -0.000          -0.000
 97  3  7  1 32 29.9970000  0  7  4  9 24 30  6  5 10               -0.002889754
 -29841431.586 9 -22677752.11547  22017856.737    22017856.9754   22017860.5664
        -0.000          -0.000
 -25621500.084 9 -19641339.54747  22371164.374    22371164.2154   22371169.3724
        -0.000          -0.000
 -36029098.881 9 -28048633.90049  19765422.459    19765422.2334   19765426.7344
        -0.000          -0.000
 -25170716.311 9 -19006368.44248  20878120.042    20878120.2984   20878123.9314
        -0.000          -0.000
 -13893971.665 9 -10796460.45546  23097431.234    23097431.1414   23097436.0954
        -0.000          -0.000
 -37271727.808 9 -28766476.72749  19476049.509    19476048.9824   19476052.9484
        -0.000          -0.000
 -22823400.402 9 -17484283.04947  21266664.591    21266663.7654   21266668.8134
        -0.000          -0.000
 97  3  7  1 32 59.9970000  0  7  4  9 24 30  6  5 10               -0.002908088
 -29779463.411 9 -22629465.23547  22029649.062    22029649.1514   22029652.7914
        -0.000          -0.000
 -25566073.413 9 -19598149.94947  22381711.802    22381711.6234   22381716.7774
        -0.000          -0.000
 -36019321.919 9 -28041015.47649  19767282.932    19767282.7254   19767287.2384
        -0.000          -0.000
 -25277180.126 9 -19089327.24348  20857860.751    20857860.9634   20857864.4734
        -0.000          -0.000
 -13991132.469 9 -10872170.11346  23078942.105    23078941.9414   23078946.9244
        -0.000          -0.000
 -37323625.556 9 -28806916.52549  19466173.745    19466173.1994   19466177.1654
        -0.000          -0.000
 -22927976.953 9 -17565771.22647  21246764.305    21246763.4924   21246768.5074
        -0.000          -0.000
 97  3  7  1 33 29.9970000  0  7  4  9 24 30  6  5 10               -0.002926432
 -29717388.709 9 -22581095.33447  22041461.472    22041461.5644   22041465.1924
        -0.000          -0.000
 -25510508.431 9 -19554852.57547  22392285.490    22392285.3234   22392290.4594
        -0.000          -0.000
 -36009164.514 9 -28033100.61149  19769215.770    19769215.5974   19769220.0984
        -0.000          -0.000
 -25383347.250 9 -19172054.85848  20837657.873    20837658.0494   20837661.5014
        -0.000          -0.000
 -14088271.307 9 -10947862.65546  23060457.159    23060456.9484   23060462.0814
        -0.000          -0.000
 -37375027.767 9 -28846970.19049  19456392.217    19456391.6904   19456395.6414
        -0.000          -0.000
 -23032189.334 9 -17646975.65247  21226933.321    21226932.5114   21226937.5354
        -0.000          -0.000
 97  3  7  1 33 59.9970000  0  7  4  9 24 30  6  5 10               -0.002944802
 -29655214.197 9 -22532647.66647  22053292.765    22053293.0034   22053296.5964
        -0.000          -0.000
 -25454830.965 9 -19511467.56047  22402880.571    22402880.3984   22402885.5084
        -0.000          -0.000
 -35998654.297 9 -28024910.82349  19771215.819    19771215.6424   19771220.1544
        -0.000          -0.000
 -25489206.938 9 -19254542.90948  20817513.451    20817513.5754   20817517.0864
        -0.000          -0.000
 -14185415.727 9 -11023559.55946  23041971.206    23041970.9664   23041976.0734
        -0.000          -0.000
 -37425939.944 9 -28886642.01149  19446703.942    19446703.4274   19446707.3524
        -0.000          -0.000
 -23136070.593 9 -17727922.06647  21207165.361    21207164.5454   21207169.5324
        -0.000          -0.000
 97  3  7  1 34 29.9970000  0  7  4  9 24 30  6  5 10               -0.002963199
 -29592930.934 9 -22484115.25347  22065144.824    22065145.0384   22065148.6844
        -0.000          -0.000
 -25399038.277 9 -19467992.75147  22413497.658    22413497.4684   22413502.5054
        -0.000          -0.000
 -35987774.960 9 -28016433.41149  19773286.060    19773285.8794   19773290.4114
        -0.000          -0.000
 -25594722.407 9 -19336762.74548  20797434.483    20797434.6064   20797438.1754
        -0.000          -0.000
 -14282558.481 9 -11099255.14046  23023485.394    23023485.1534   23023490.3344
        -0.000          -0.000
 -37476345.612 9 -28925919.15249  19437112.034    19437111.5184   19437115.4684
        -0.000          -0.000
 -23239617.091 9 -17808607.62647  21187461.099    21187460.2974   21187465.2104
        -0.000          -0.000
 97  3  7  1 34 59.9970000  0  7  4  9 24 30  6  5 10               -0.002981617
 -29530531.380 9 -22435492.22947  22077019.135    22077019.2784   22077022.9364
        -0.000          -0.000
 -25343121.043 9 -19424420.89647  22424138.486    22424138.2424   22424143.2754
        -0.000          -0.000
 -35976531.938 9 -28007672.60949  19775425.505    19775425.3284   19775429.8784
        -0.000          -0.000
 -25699886.556 9 -19418708.82648  20777422.330    20777422.5204   20777426.1074
        -0.000          -0.000
 -14379706.703 9 -11174954.99946  23004998.510    23004998.3214   23005003.5474
        -0.000          -0.000
 -37526236.834 9 -28964795.42749  19427618.007    19427617.5004   19427621.4714
        -0.000          -0.000
 -23342815.611 9 -17889022.01847  21167823.054    21167822.2424   21167827.1954
        -0.000          -0.000
 97  3  7  1 35 29.9970000  0  7  4  9 24 30  6  5 10               -0.003000056
 -29468025.953 9 -22386786.69847  22088913.630    22088913.6634   22088917.3244
        -0.000          -0.000
 -25287070.333 9 -19380745.03347  22434804.615    22434804.3984   22434809.4054
        -0.000          -0.000
 -35964939.506 9 -27998639.53449  19777631.430    19777631.2814   19777635.8374
        -0.000          -0.000
 -25804707.537 9 -19500387.49848  20757475.503    20757475.7294   20757479.3484
        -0.000          -0.000
 -14476863.981 9 -11250661.89346  22986510.298    22986509.9504   22986515.0074
        -0.000          -0.000
 -37575615.642 9 -29003272.41849  19418221.480    19418220.9854   19418224.9804
        -0.000          -0.000
 -23445676.496 9 -17969173.32647  21148249.264    21148248.4634   21148253.4204
        -0.000          -0.000
 97  3  7  1 35 59.9960000  0  7  4  9 24 30  6  5 10               -0.003018517
 -29405430.834 9 -22338011.28147  22100824.967    22100825.0974   22100828.8034
        -0.000          -0.000
 -25230894.537 9 -19336971.70546  22445494.461    22445494.2684   22445499.2874
        -0.000          -0.000
 -35953012.315 9 -27989345.61549  19779901.121    19779900.9404   19779905.5094
        -0.000          -0.000
 -25909196.115 9 -19581807.15548  20737592.006    20737592.2044   20737595.8134
        -0.000          -0.000
 -14574032.576 9 -11326377.60546  22968019.677    22968019.2514   22968024.3894
        -0.000          -0.000
 -37624506.068 9 -29041368.85249  19408917.906    19408917.4164   19408921.4214
        -0.000          -0.000
 -23548203.286 9 -18049064.29747  21128739.015    21128738.2194   21128743.2584
        -0.000          -0.000
 97  3  7  1 36 29.9960000  0  7  4  9 24 30  6  5 10               -0.003036970
 -29342704.202 9 -22289133.38146  22112761.324    22112761.5644   22112765.2734
        -0.000          -0.000
 -25174558.359 9 -19293073.40046  22456214.771    22456214.5474   22456219.6644
        -0.000          -0.000
 -35940721.418 9 -27979768.28149  19782239.982    19782239.8104   19782244.3954
        -0.000          -0.000
 -26013343.485 9 -19662960.93348  20717773.400    20717773.6044   20717777.2474
        -0.000          -0.000
 -14671177.878 9 -11402075.19746  22949533.298    22949533.0394   22949538.1834
        -0.000          -0.000
 -37672871.162 9 -29079055.93349  19399714.364    19399713.8584   19399717.8924
        -0.000          -0.000
 -23650357.510 9 -18128664.96947  21109299.651    21109298.8574   21109303.9024
        -0.000          -0.000
 97  3  7  1 36 59.9960000  0  7  4  9 24 30  6  5 10               -0.003055395
 -29279831.463 9 -22240141.65046  22124725.651    22124725.8314   22124729.5834
        -0.000          -0.000
 -25118063.936 9 -19249051.79646  22466965.173    22466964.9844   22466970.1614
        -0.000          -0.000
 -35928071.843 9 -27969911.45949  19784647.090    19784646.9244   19784651.5154
        -0.000          -0.000
 -26117155.929 9 -19743853.73448  20698018.508    20698018.7604   20698022.3804
        -0.000          -0.000
 -14768292.576 9 -11477748.90846  22931052.923    22931052.7024   22931057.8634
        -0.000          -0.000
 -37720720.432 9 -29116341.07649  19390608.922    19390608.4414   19390612.4594
        -0.000          -0.000
 -23752121.132 9 -18207961.26647  21089934.667    21089933.8824   21089938.9334
        -0.000          -0.000
 97  3  7  1 37 29.9960000  0  7  4  9 24 30  6  5 10               -0.003073802
 -29216846.047 9 -22191062.11346  22136711.570    22136711.6034   22136715.2764
        -0.000          -0.000
 -25061439.718 9 -19204929.04146  22477740.509    22477740.2744   22477745.3544
        -0.000          -0.000
 -35915091.848 9 -27959797.17449  19787117.091    19787116.8944   19787121.5164
        -0.000          -0.000
 -26220652.913 9 -19824500.71848  20678323.653    20678323.9344   20678327.5284
        -0.000          -0.000
 -14865398.043 9 -11553415.43846  22912574.562    22912574.2244   22912579.1784
        -0.000          -0.000
 -37768106.588 9 -29153265.35349  19381591.654    19381591.1844   19381595.1544
        -0.000          -0.000
 -23853528.920 9 -18286980.28347  21070637.416    21070636.6024   21070641.6904
        -0.000          -0.000
 97  3  7  1 37 59.9960000  0  7  4  9 24 30  6  5 10               -0.003092169
 -29153713.721 9 -22141868.09146  22148725.250    22148725.2874   22148728.9654
        -0.000          -0.000
 -25004664.213 9 -19160688.39146  22488544.626    22488544.3554   22488549.3084
        -0.000          -0.000
 -35901746.868 9 -27949398.47549  19789656.536    19789656.3664   19789660.9654
        -0.000          -0.000
 -26323786.921 9 -19904864.86248  20658697.930    20658698.1714   20658701.7734
        -0.000          -0.000
 -14962453.479 9 -11629042.99946  22894105.503    22894105.1714   22894110.0904
        -0.000          -0.000
 -37815000.814 9 -29189806.30649  19372667.985    19372667.4914   19372671.4714
        -0.000          -0.000
 -23954543.655 9 -18365693.03347  21051414.940    21051414.1204   21051419.2394
        -0.000          -0.000
 97  3  7  1 38 29.9960000  0  7  4  9 24 30  6  5 10               -0.003110495
 -29090427.181 9 -22092553.90246  22160768.041    22160768.2804   22160771.9544
        -0.000          -0.000
 -24947744.527 9 -19116335.39946  22499376.090    22499375.8264   22499380.7654
        -0.000          -0.000
 -35888021.394 9 -27938703.29349  19792268.445    19792268.2484   19792272.8394
        -0.000          -0.000
 -26426543.918 9 -19984935.23848  20639143.858    20639144.0984   20639147.7064
        -0.000          -0.000
 -15059455.770 9 -11704629.13946  22875646.503    22875646.2204   22875651.0704
        -0.000          -0.000
 -37861393.413 9 -29225956.38149  19363839.769    19363839.2834   19363843.2834
        -0.000          -0.000
 -24055148.782 9 -18444086.60447  21032270.362    21032269.5534   21032274.6654
        -0.000          -0.000
 97  3  7  1 38 59.9960000  0  7  4  9 24 30  6  5 10               -0.003128790
 -29027016.043 9 -22043142.62446  22172834.827    22172835.0664   22172838.6924
        -0.000          -0.000
 -24890690.145 9 -19071877.44046  22510233.191    22510232.9704   22510237.8504
        -0.000          -0.000
 -35873934.888 9 -27927726.78849  19794948.987    19794948.8424   19794953.4054
        -0.000          -0.000
 -26528934.459 9 -20064720.06048  20619659.500    20619659.7874   20619663.3714
        -0.000          -0.000
 -15156422.727 9 -11780187.75646  22857194.261    22857194.1044   22857198.8474
        -0.000          -0.000
 -37907308.945 9 -29261734.71449  19355102.305    19355101.8324   19355105.8254
        -0.000          -0.000
 -24155365.291 9 -18522177.35948  21013199.756    21013198.9654   21013204.0904
        -0.000          -0.000
 97  3  7  1 39 29.9960000  0  7  4  9 24 30  6  5 10               -0.003147071
 -28963495.568 9 -21993646.15046  22184922.437    22184922.5784   22184926.1944
        -0.000          -0.000
 -24833497.285 9 -19027311.58146  22521116.660    22521116.4464   22521121.2514
        -0.000          -0.000
 -35859481.036 9 -27916464.03849  19797699.517    19797699.3084   19797703.8934
        -0.000          -0.000
 -26630948.782 9 -20144211.72248  20600246.891    20600247.1264   20600250.7014
        -0.000          -0.000
 -15253343.640 9 -11855710.48846  22838750.726    22838750.5424   22838755.4264
        -0.000          -0.000
 -37952711.756 9 -29297113.52049  19346462.457    19346461.9734   19346465.9634
        -0.000          -0.000
 -24255186.576 9 -18599960.14248  20994204.380    20994203.5554   20994208.6544
        -0.000          -0.000
 97  3  7  1 39 59.9960000  0  7  4  9 24 30  6  5 10               -0.003165338
 -28899847.648 9 -21944050.36546  22197034.178    22197034.4034   22197037.9974
        -0.000          -0.000
 -24776163.929 9 -18982636.24746  22532026.757    22532026.5634   22532031.4434
        -0.000          -0.000
 -35844631.094 9 -27904892.64849  19800525.276    19800525.1024   19800529.7174
        -0.000          -0.000
 -26732578.082 9 -20223403.37048  20580907.575    20580907.7644   20580911.3384
        -0.000          -0.000
 -15350201.667 9 -11931184.23246  22820319.086    22820319.0324   22820323.7654
        -0.000          -0.000
 -37997546.862 9 -29332049.96449  19337930.562    19337930.1004   19337934.0824
        -0.000          -0.000
 -24354566.084 9 -18677398.69048  20975293.030    20975292.2384   20975297.3144
        -0.000          -0.000
 97  3  7  1 40 29.9960000  0  7  4  9 24 30  6  5 10               -0.003183616
 -28836107.344 9 -21894382.59846  22209163.505    22209163.7364   22209167.3444
        -0.000          -0.000
 -24718725.313 9 -18937878.90946  22542956.962    22542956.7754   22542961.7364
        -0.000          -0.000
 -35829413.634 9 -27893034.88349  19803421.072    19803420.9074   19803425.5064
        -0.000          -0.000
 -26833868.097 9 -20302330.63848  20561632.731    20561632.8984   20561636.5194
        -0.000          -0.000
 -15447037.560 9 -12006640.72846  22801891.670    22801891.7994   22801896.4264
        -0.000          -0.000
 -38041844.346 9 -29366567.47749  19329501.062    19329500.5954   19329504.5574
        -0.000          -0.000
 -24453527.324 9 -18754511.31448  20956461.280    20956460.4844   20956465.5724
        -0.000          -0.000
 97  3  7  1 40 59.9960000  0  7  4  9 24 30  6  5 10               -0.003201895
 -28772267.227 9 -21844637.04746  22221311.818    22221312.0764   22221315.6714
        -0.000          -0.000
 -24661164.640 9 -18893026.44646  22553910.394    22553910.2734   22553915.2844
        -0.000          -0.000
 -35813811.928 9 -27880877.70149  19806389.930    19806389.7824   19806394.3754
        -0.000          -0.000
 -26934806.608 9 -20380984.01248  20542424.696    20542424.9154   20542428.6044
        -0.000          -0.000
 -15543834.218 9 -12082066.65646  22783471.947    22783471.9014   22783476.6384
        -0.000          -0.000
 -38085587.935 9 -29400653.38949  19321176.957    19321176.4884   19321180.4444
        -0.000          -0.000
 -24552056.996 9 -18831287.65248  20937711.668    20937710.8944   20937715.9804
        -0.000          -0.000
 97  3  7  1 41 29.9960000  0  7  4  9 24 30  6  5 10               -0.003220190
 -28708337.119 9 -21794821.38546  22233477.327    22233477.5744   22233481.2304
        -0.000          -0.000
 -24603518.217 9 -18848107.16346  22564880.236    22564880.0294   22564885.0844
        -0.000          -0.000
 -35797834.270 9 -27868427.56549  19809430.410    19809430.2474   19809434.8184
        -0.000          -0.000
 -27035406.862 9 -20459373.80648  20523281.026    20523281.2584   20523284.9644
        -0.000          -0.000
 -15640615.397 9 -12157480.52446  22765055.041    22765055.0504   22765059.7394
        -0.000          -0.000
 -38128793.387 9 -29434319.96849  19312955.255    19312954.7604   19312958.7284
        -0.000          -0.000
 -24650169.458 9 -18907738.88948  20919041.512    20919040.7204   20919045.7634
        -0.000          -0.000
 97  3  7  1 41 59.9960000  0  7  4  9 24 30  6  5 10               -0.003238474
 -28644285.395 9 -21744910.95246  22245666.015    22245666.2364   22245669.9324
        -0.000          -0.000
 -24545761.302 9 -18803101.77746  22575870.915    22575870.7804   22575875.8994
        -0.000          -0.000
 -35781464.610 9 -27855671.98149  19812545.456    19812545.3104   19812549.8744
        -0.000          -0.000
 -27135642.918 9 -20537479.81248  20504206.654    20504206.9134   20504210.5904
        -0.000          -0.000
 -15737364.066 9 -12232869.05446  22746644.562    22746644.3864   22746648.9384
        -0.000          -0.000
 -38171465.343 9 -29467570.84349  19304835.009    19304834.5414   19304838.5254
        -0.000          -0.000
 -24747846.591 9 -18983850.91548  20900454.159    20900453.3974   20900458.3674
        -0.000          -0.000
 97  3  7  1 42 29.9960000  0  7  4  9 24 30  6  5 10               -0.003256743
 -28580114.468 9 -21694907.62446  22257877.347    22257877.6124   22257881.2494
        -0.000          -0.000
 -24487893.309 9 -18758009.84346  22586882.834    22586882.6774   22586887.8304
        -0.000          -0.000
 -35764733.327 9 -27842634.61149  19815729.282    19815729.1564   19815733.7224
        -0.000          -0.000
 -27235509.794 9 -20615298.14448  20485202.580    20485202.8494   20485206.4764
        -0.000          -0.000
 -15834089.648 9 -12308239.59046  22728238.100    22728237.9884   22728242.6744
        -0.000          -0.000
 -38213630.667 9 -29500426.93549  19296811.183    19296810.6964   19296814.7124
        -0.000          -0.000
 -24845121.411 9 -19059649.45048  20881943.356    20881942.5924   20881947.4594
        -0.000          -0.000
 97  3  7  1 42 59.9960000  0  7  4  9 24 30  6  5 10               -0.003274990
 -28515827.472 9 -21644813.85446  22270110.797    22270111.0434   22270114.6894
        -0.000          -0.000
 -24429917.183 9 -18712833.65946  22597915.303    22597915.1594   22597920.4284
        -0.000          -0.000
 -35747668.178 9 -27829337.09349  19818976.650    19818976.5184   19818981.0874
        -0.000          -0.000
 -27334989.718 9 -20692814.95548  20466272.178    20466272.4444   20466276.0064
        -0.000          -0.000
 -15930790.740 9 -12383591.07046  22709836.552    22709836.3674   22709841.0334
        -0.000          -0.000
 -38255275.233 9 -29532877.24749  19288886.470    19288886.0124   19288890.0264
        -0.000          -0.000
 -24942001.554 9 -19135140.43548  20863507.647    20863506.8854   20863511.7394
        -0.000          -0.000
 97  3  7  1 43 29.9960000  0  7  4  9 24 30  6  5 10               -0.003293214
 -28451414.627 9 -21594622.02746  22282368.205    22282368.4074   22282372.1044
        -0.000          -0.000
 -24371828.258 9 -18667569.58846  22608969.149    22608969.0074   22608974.4794
        -0.000          -0.000
 -35730280.455 9 -27815788.21249  19822285.384    19822285.2784   19822289.8734
        -0.000          -0.000
 -27434060.359 9 -20770012.84148  20447419.747    20447419.9664   20447423.5094
        -0.000          -0.000
 -16027455.217 9 -12458913.99446  22691441.835    22691441.6924   22691446.4124
        -0.000          -0.000
 -38296377.619 9 -29564905.07849  19281064.932    19281064.4674   19281068.4864
        -0.000          -0.000
 -25038479.496 9 -19210318.02148  20845148.484    20845147.7254   20845152.5794
        -0.000          -0.000
 97  3  7  1 43 59.9960000  0  7  4  9 24 30  6  5 10               -0.003311407
 -28386869.269 9 -21544326.94146  22294650.697    22294650.8644   22294654.6264
        -0.000          -0.000
 -24313615.740 9 -18622209.19446  22620046.641    22620046.5284   22620051.8954
        -0.000          -0.000
 -35712574.921 9 -27801991.68449  19825654.655    19825654.5254   19825659.1024
        -0.000          -0.000
 -27532713.910 9 -20846885.72248  20428646.608    20428646.8424   20428650.3394
        -0.000          -0.000
 -16124071.290 9 -12534199.19746  22673056.210    22673056.2194   22673060.8644
        -0.000          -0.000
 -38336925.102 9 -29596500.51849  19273349.000    19273348.5584   19273352.5644
        -0.000          -0.000
 -25134539.856 9 -19285170.22348  20826868.880    20826868.0794   20826872.9074
        -0.000          -0.000
 97  3  7  1 44 29.9960000  0  7  4  9 24 30  6  5 10               -0.003329574
 -28322196.791 9 -21493932.79346  22306957.460    22306957.6554   22306961.4714
        -0.000          -0.000
 -24255293.148 9 -18576763.02546  22631145.236    22631145.0644   22631150.2984
        -0.000          -0.000
 -35694548.056 9 -27787944.76749  19829085.019    19829084.9204   19829089.5004
        -0.000          -0.000
 -27630955.631 9 -20923437.69948  20409951.877    20409952.0944   20409955.5804
        -0.000          -0.000
 -16220638.018 9 -12609445.94746  22654680.402    22654680.1724   22654684.8324
        -0.000          -0.000
 -38376908.375 9 -29627656.31349  19265740.445    19265739.9964   19265743.9884
        -0.000          -0.000
 -25230176.690 9 -19359692.40948  20808669.743    20808668.9584   20808673.7644
        -0.000          -0.000
 97  3  7  1 44 59.9960000  0  7  4  9 24 30  6  5 10               -0.003347745
 -28257440.327 9 -21443473.21646  22319280.165    22319280.4044   22319284.3344
        -0.000          -0.000
 -24196901.622 9 -18531263.13746  22642256.795    22642256.6024   22642261.7774
        -0.000          -0.000
 -35676209.119 9 -27773654.68449  19832574.828    19832574.7044   19832579.2684
        -0.000          -0.000
 -27728820.007 9 -20999695.64648  20391328.873    20391329.1474   20391332.6364
        -0.000          -0.000
 -16317177.711 9 -12684671.64546  22636309.215    22636309.1514   22636313.9434
        -0.000          -0.000
 -38416353.025 9 -29658392.40549  19258234.389    19258233.9424   19258237.9514
        -0.000          -0.000
 -25325401.911 9 -19433893.85248  20790548.925    20790548.1834   20790553.0114
        -0.000          -0.000
 97  3  7  1 45 29.9960000  0  7  4  9 24 30  6  5 10               -0.003365910
 -28192594.322 9 -21392943.86546  22331620.051    22331620.2214   22331624.1184
        -0.000          -0.000
 -24138428.744 9 -18485699.86946  22653383.766    22653383.5994   22653388.8194
        -0.000          -0.000
 -35657518.142 9 -27759090.27749  19836131.566    19836131.4824   19836136.0424
        -0.000          -0.000
 -27826314.000 9 -21075664.97948  20372776.434    20372776.6404   20372780.1664
        -0.000          -0.000
 -16413679.312 9 -12759867.66446  22617945.544    22617945.5324   22617950.2034
        -0.000          -0.000
 -38455257.509 9 -29688707.58349  19250831.163    19250830.6774   19250834.6554
        -0.000          -0.000
 -25420198.557 9 -19507761.34148  20772509.681    20772508.9414   20772513.7774
        -0.000          -0.000
 97  3  7  1 45 59.9960000  0  7  4  9 24 30  6  5 10               -0.003384058
 -28127650.454 9 -21342338.25046  22343978.604    22343978.6154   22343982.5194
        -0.000          -0.000
 -24079854.370 9 -18440057.51246  22664530.192    22664530.0024   22664535.2254
        -0.000          -0.000
 -35638444.099 9 -27744227.38549  19839761.258    19839761.1494   19839765.7354
        -0.000          -0.000
 -27923421.078 9 -21151332.82348  20354297.520    20354297.7434   20354301.3034
        -0.000          -0.000
 -16510130.188 9 -12835024.13446  22599591.622    22599591.5084   22599596.1164
        -0.000          -0.000
 -38493617.146 9 -29718598.21049  19243531.547    19243531.0914   19243535.0714
        -0.000          -0.000
 -25514537.224 9 -19581271.95948  20754557.579    20754556.8294   20754561.6784
        -0.000          -0.000
 97  3  7  1 46 29.9960000  0  7  4  9 24 30  6  5 10               -0.003402207
 -28062639.788 9 -21291680.58946  22356349.675    22356349.7924   22356353.6964
        -0.000          -0.000
 -24021190.424 9 -18394345.35146  22675693.676    22675693.4444   22675698.5784
        -0.000          -0.000
 -35618994.836 9 -27729072.10949  19843462.317    19843462.1974   19843466.7994
        -0.000          -0.000
 -28020142.148 9 -21226699.88148  20335892.076    20335892.3054   20335895.8764
        -0.000          -0.000
 -16606537.420 9 -12910146.61546  22581245.798    22581245.6994   22581250.4104
        -0.000          -0.000
 -38531438.367 9 -29748069.28849  19236334.405    19236333.9334   19236337.8974
        -0.000          -0.000
 -25608431.226 9 -19654436.08748  20736690.118    20736689.3594   20736694.2064
        -0.000          -0.000
 97  3  7  1 46 59.9960000  0  7  4  9 24 30  6  5 10               -0.003420362
 -27997573.051 9 -21240979.22346  22368731.269    22368731.5094   22368735.5404
        -0.000          -0.000
 -23962438.525 9 -18348564.67746  22686873.737    22686873.5044   22686878.7364
        -0.000          -0.000
 -35599187.341 9 -27713637.69249  19847231.541    19847231.4184   19847235.9924
        -0.000          -0.000
 -28116461.949 9 -21301754.26348  20317562.980    20317563.2244   20317566.7974
        -0.000          -0.000
 -16702906.147 9 -12985239.07946  22562907.307    22562907.3444   22562911.9384
        -0.000          -0.000
 -38568715.784 9 -29777116.62549  19229240.739    19229240.2744   19229244.2444
        -0.000          -0.000
 -25701881.799 9 -19727254.68848  20718907.010    20718906.2404   20718911.0834
        -0.000          -0.000
 97  3  7  1 47 29.9960000  0  7  4  9 24 30  6  5 10               -0.003438505
 -27932429.055 9 -21190217.66846  22381127.571    22381127.9674   22381132.0854
        -0.000          -0.000
 -23903579.962 9 -18302700.89146  22698074.116    22698073.8304   22698079.1584
        -0.000          -0.000
 -35579027.016 9 -27697928.34449  19851067.916    19851067.8024   19851072.3724
        -0.000          -0.000
 -28212349.291 9 -21376471.66248  20299316.191    20299316.4464   20299320.0204
        -0.000          -0.000
 -16799235.938 9 -13060301.19946  22544576.593    22544576.3344   22544581.0284
        -0.000          -0.000
 -38605442.010 9 -29805734.46249  19222251.967    19222251.4924   19222255.4504
        -0.000          -0.000
 -25794874.760 9 -19799716.70748  20701210.931    20701210.2104   20701215.1054
        -0.000          -0.000
 97  3  7  1 47 59.9960000  0  7  4  9 24 30  6  5 10               -0.003456637
 -27867205.636 9 -21139394.21546  22393539.265    22393539.5754   22393543.7174
        -0.000          -0.000
 -23844634.388 9 -18256769.29246  22709291.105    22709290.8054   22709296.0884
        -0.000          -0.000
 -35558546.160 9 -27681969.22949  19854965.322    19854965.1944   19854969.7514
        -0.000          -0.000
 -28307793.630 9 -21450843.86148  20281153.728    20281153.9894   20281157.5424
        -0.000          -0.000
 -16895532.676 9 -13135337.57446  22526251.921    22526251.6014   22526256.3854
        -0.000          -0.000
 -38641624.045 9 -29833928.25549  19215366.726    19215366.2694   19215370.2304
        -0.000          -0.000
 -25887407.078 9 -19871819.78548  20683602.588    20683601.8714   20683606.7514
        -0.000          -0.000
 97  3  7  1 48 29.9960000  0  7  4  9 24 30  6  5 10               -0.003474725
 -27801841.352 9 -21088461.00946  22405977.819    22405978.0144   22405982.1424
        -0.000          -0.000
 -23785560.637 9 -18210737.82146  22720532.413    22720532.1934   22720537.2934
        -0.000          -0.000
 -35537699.126 9 -27665724.78049  19858932.356    19858932.2274   19858936.7964
        -0.000          -0.000
 -28402746.225 9 -21524832.88948  20263084.843    20263085.0984   20263088.6464
        -0.000          -0.000
 -16991740.496 9 -13210304.67346  22507943.893    22507943.7954   22507948.5494
        -0.000          -0.000
 -38677197.534 9 -29861647.85849  19208597.333    19208596.8654   19208600.8404
        -0.000          -0.000
 -25979428.744 9 -19943524.94848  20666091.429    20666090.6834   20666095.5594
        -0.000          -0.000
 97  3  7  1 48 59.9960000  0  7  4  9 24 30  6  5 10               -0.003492756
 -27736326.023 9 -21037410.10646  22418445.139    22418445.2234   22418449.3164
        -0.000          -0.000
 -23726357.139 9 -18164605.23446  22731798.472    22731798.3134   22731803.2914
        -0.000          -0.000
 -35516487.888 9 -27649196.53849  19862968.695    19862968.5834   19862973.1644
        -0.000          -0.000
 -28497212.249 9 -21598442.76948  20245108.570    20245108.7934   20245112.3654
        -0.000          -0.000
 -17087870.014 9 -13285210.75346  22489651.007    22489650.8794   22489655.6624
        -0.000          -0.000
 -38712183.035 9 -29888909.28749  19201939.724    19201939.2844   19201943.3084
        -0.000          -0.000
 -26070935.158 9 -20014828.62048  20648678.311    20648677.5984   20648682.4374
        -0.000          -0.000
 97  3  7  1 49 29.9960000  0  7  4  9 24 30  6  5 10               -0.003510751
 -27670694.251 9 -20986268.46646  22430934.450    22430934.5574   22430938.6394
        -0.000          -0.000
 -23667061.769 9 -18118401.03046  22743082.007    22743081.8624   22743086.7094
        -0.000          -0.000
 -35494935.682 9 -27632402.60949  19867069.929    19867069.8244   19867074.3884
        -0.000          -0.000
 -28591232.845 9 -21671705.56448  20227216.986    20227217.2494   20227220.8344
        -0.000          -0.000
 -17183953.861 9 -13360081.23946  22471366.751    22471366.6374   22471371.4844
        -0.000          -0.000
 -38746626.729 9 -29915748.53049  19195385.293    19195384.8424   19195388.8884
        -0.000          -0.000
 -26161961.519 9 -20085758.23648  20631356.566    20631355.8104   20631360.6204
        -0.000          -0.000
 97  3  7  1 49 59.9960000  0  7  4  9 24 30  6  5 10               -0.003528708
 -27604955.398 9 -20935043.37746  22443444.019    22443444.2284   22443448.3064
        -0.000          -0.000
 -23607673.497 9 -18072124.45346  22754383.224    22754383.0994   22754387.9194
        -0.000          -0.000
 -35473032.957 9 -27615335.54349  19871237.857    19871237.7484   19871242.3584
        -0.000          -0.000
 -28684817.441 9 -21744628.61348  20209408.430    20209408.6684   20209412.2404
        -0.000          -0.000
 -17279974.207 9 -13434902.24646  22453094.597    22453094.5164   22453099.5084
        -0.000          -0.000
 -38780524.178 9 -29942162.12549  19188934.781    19188934.3474   19188938.4284
        -0.000          -0.000
 -26252509.959 9 -20156315.42748  20614125.709    20614124.9684   20614129.8624
        -0.000          -0.000
 97  3  7  1 50 29.9960000  0  7  4  9 24 30  6  5 10               -0.003546625
 -27539105.878 9 -20883732.06146  22455974.634    22455974.9624   22455979.0394
        -0.000          -0.000
 -23548173.424 9 -18025760.75946  22765705.683    22765705.6404   22765710.3814
        -0.000          -0.000
 -35450746.962 9 -27597969.83049  19875478.740    19875478.6224   19875483.2184
        -0.000          -0.000
 -28777949.236 9 -21817198.83448  20191686.065    20191686.2964   20191689.8354
        -0.000          -0.000
 -17375919.743 9 -13509664.97446  22434836.685    22434836.7054   22434841.6304
        -0.000          -0.000
 -38813857.661 9 -29968136.26749  19182591.652    19182591.1994   19182595.3024
        -0.000          -0.000
 -26342569.944 9 -20226492.01948  20596987.872    20596987.1434   20596991.9644
        -0.000          -0.000
 97  3  7  1 50 59.9960000  0  7  4  9 24 30  6  5 10               -0.003564502
 -27473152.806 9 -20832340.07146  22468525.046    22468525.3934   22468529.5154
        -0.000          -0.000
 -23488562.580 9 -17979310.74646  22777049.250    22777049.1774   22777053.9314
        -0.000          -0.000
 -35428092.888 9 -27580317.30149  19879789.646    19879789.5384   19879794.1294
        -0.000          -0.000
 -28870621.213 9 -21889410.75348  20174051.159    20174051.3854   20174054.9104
        -0.000          -0.000
 -17471797.341 9 -13584374.74546  22416591.859    22416591.8074   22416596.6004
        -0.000          -0.000
 -38846632.784 9 -29993675.32949  19176354.708    19176354.2864   19176358.3974
        -0.000          -0.000
 -26432146.393 9 -20296291.82348  20579942.031    20579941.2734   20579946.1244
        -0.000          -0.000
 97  3  7  1 51 29.9960000  0  7  4  9 24 30  6  5 10               -0.003582356
 -27407113.668 9 -20780880.98946  22481091.987    22481092.2844   22481096.3354
        -0.000          -0.000
 -23428872.220 9 -17932798.77446  22788407.938    22788407.8844   22788412.6754
        -0.000          -0.000
 -35405102.024 9 -27562402.33549  19884164.668    19884164.5394   19884169.1214
        -0.000          -0.000
 -28962845.712 9 -21961273.99248  20156501.311    20156501.5644   20156505.1284
        -0.000          -0.000
 -17567615.972 9 -13659038.56646  22398358.125    22398358.1594   22398362.8834
        -0.000          -0.000
 -38878843.254 9 -30018774.39149  19170225.294    19170224.8304   19170228.9414
        -0.000          -0.000
 -26521255.306 9 -20365727.31748  20562985.140    20562984.4024   20562989.2154
        -0.000          -0.000
 97  3  7  1 51 59.9960000  0  7  4  9 24 30  6  5 10               -0.003600174
 -27340954.399 9 -20729328.30646  22493681.832    22493681.9884   22493686.0434
        -0.000          -0.000
 -23369082.551 9 -17886209.43446  22799785.502    22799785.3774   22799790.3064
        -0.000          -0.000
 -35381757.465 9 -27544211.76449  19888606.991    19888606.8544   19888611.4374
        -0.000          -0.000
 -29054594.762 9 -22032766.74748  20139041.991    20139042.2714   20139045.8864
        -0.000          -0.000
 -17663354.295 9 -13733639.81846  22380139.895    22380139.7524   22380144.5614
        -0.000          -0.000
 -38910440.251 9 -30043395.42649  19164212.517    19164212.1024   19164216.2064
        -0.000          -0.000
 -26609864.242 9 -20434773.21248  20546123.412    20546122.6754   20546127.4504
        -0.000          -0.000
 97  3  7  1 52 29.9960000  0  7  4  9 24 30  6  5 10               -0.003617983
 -27274711.132 9 -20677710.17446  22506287.554    22506287.7014   22506291.6934
        -0.000          -0.000
 -23309232.630 9 -17839573.13946  22811174.469    22811174.3934   22811179.4634
        -0.000          -0.000
 -35358098.774 9 -27525776.41149  19893109.121    19893108.9574   19893113.5214
        -0.000          -0.000
 -29145899.155 9 -22103913.01648  20121667.326    20121667.6094   20121671.2644
        -0.000          -0.000
 -17759053.411 9 -13808210.51246  22361928.963    22361928.7694   22361933.5254
        -0.000          -0.000
 -38941445.054 9 -30067555.01049  19158312.525    19158312.0874   19158316.1804
        -0.000          -0.000
 -26697994.937 9 -20503446.45448  20529352.641    20529351.8964   20529356.7004
        -0.000          -0.000
 97  3  7  1 52 59.9960000  0  7  4  9 24 30  6  5 10               -0.003635757
 -27208352.900 9 -20626002.44446  22518915.101    22518915.2504   22518919.1654
        -0.000          -0.000
 -23249287.264 9 -17792862.47846  22822581.728    22822581.6164   22822586.7054
        -0.000          -0.000
 -35334106.517 9 -27507081.14149  19897674.632    19897674.5174   19897679.1044
        -0.000          -0.000
 -29236732.560 9 -22174692.29048  20104382.305    20104382.5864   20104386.2774
        -0.000          -0.000
 -17854681.022 9 -13882725.49246  22343731.559    22343731.4174   22343736.0844
        -0.000          -0.000
 -38971824.374 9 -30091227.21049  19152531.515    19152531.1094   19152535.1984
        -0.000          -0.000
 -26785602.521 9 -20571712.08348  20512681.463    20512680.7374   20512685.5034
        -0.000          -0.000
 97  3  7  1 53 29.9960000  0  7  4  9 24 30  6  5 10               -0.003653512
 -27141904.080 9 -20574224.13146  22531559.730    22531559.9654   22531563.8914
        -0.000          -0.000
 -23189269.421 9 -17746095.34546  22834002.816    22834002.7294   22834007.7104
        -0.000          -0.000
 -35309782.900 9 -27488127.66649  19902303.274    19902303.1524   19902307.7314
        -0.000          -0.000
 -29327114.417 9 -22245119.69948  20087183.215    20087183.4924   20087187.1714
        -0.000          -0.000
 -17950255.851 9 -13957199.35346  22325544.315    22325544.1374   22325548.7354
        -0.000          -0.000
 -39001595.340 9 -30114425.36549  19146866.302    19146865.8614   19146869.9554
        -0.000          -0.000
 -26872688.605 9 -20639571.33948  20496109.473    20496108.7594   20496113.6014
        -0.000          -0.000
 97  3  7  1 53 59.9960000  0  7  4  9 24 30  6  5 10               -0.003671261
 -27075400.848 9 -20522403.42946  22544214.830    22544215.0544   22544219.0284
        -0.000          -0.000
 -23129202.555 9 -17699290.01646  22845433.223    22845433.0354   22845438.0554
        -0.000          -0.000
 -35285142.690 9 -27468927.49749  19906992.166    19906992.0264   19906996.5994
        -0.000          -0.000
 -29417075.933 9 -22315219.57448  20070064.115    20070064.3744   20070068.0414
        -0.000          -0.000
 -18045808.147 9 -14031655.63446  22307361.166    22307361.0864   22307365.7864
        -0.000          -0.000
 -39030800.995 9 -30137183.02149  19141308.648    19141308.2284   19141312.3224
        -0.000          -0.000
 -26959263.879 9 -20707032.57648  20479634.669    20479633.9744   20479638.7974
        -0.000          -0.000
 97  3  7  1 54 29.9960000  0  7  4  9 24 30  6  5 10               -0.003688981
 -27008822.554 9 -20470524.22446  22556884.400    22556884.5444   22556888.4414
        -0.000          -0.000
 -23069056.639 9 -17652423.09446  22856878.701    22856878.4524   22856883.5094
        -0.000          -0.000
 -35260153.358 9 -27449455.28249  19911747.509    19911747.3444   19911751.9054
        -0.000          -0.000
 -29506583.508 9 -22384965.72748  20053031.349    20053031.6554   20053035.2604
        -0.000          -0.000
 -18141302.702 9 -14106066.94146  22289189.059    22289188.9954   22289193.6514
        -0.000          -0.000
 -39059434.686 9 -30159494.99049  19135859.859    19135859.4104   19135863.5404
        -0.000          -0.000
 -27045290.381 9 -20774066.18648  20463264.388    20463263.6774   20463268.5094
        -0.000          -0.000
 97  3  7  1 54 59.9960000  0  7  4  9 24 30  6  5 10               -0.003706647
 -26942122.283 9 -20418549.98046  22569577.117    22569577.2474   22569580.9974
        -0.000          -0.000
 -23008817.534 9 -17605483.56646  22868341.872    22868341.6064   22868346.7504
        -0.000          -0.000
 -35234789.409 9 -27429691.15749  19916574.061    19916573.9034   19916578.4694
        -0.000          -0.000
 -29595598.111 9 -22454327.74448  20036092.511    20036092.7924   20036096.3274
        -0.000          -0.000
 -18236703.407 9 -14180405.11546  22271034.927    22271034.8144   22271039.4274
        -0.000          -0.000
 -39087467.672 9 -30181338.87649  19130525.357    19130524.9534   19130529.0734
        -0.000          -0.000
 -27130747.823 9 -20840656.37448  20447002.410    20447001.6954   20447006.4984
        -0.000          -0.000
 97  3  7  1 55 29.9960000  0  7  4  9 24 30  6  5 10               -0.003724271
 -26875315.374 9 -20366492.65546  22582290.119    22582290.0864   22582293.8914
        -0.000          -0.000
 -22948514.760 8 -17558494.41446  22879817.079    22879816.8234   22879821.9604
        -0.000          -0.000
 -35209072.585 9 -27409652.07149  19921467.733    19921467.6154   19921472.1604
        -0.000          -0.000
 -29684132.146 9 -22523315.29548  20019245.061    20019245.3054   20019248.8364
        -0.000          -0.000
 -18332020.907 9 -14254678.44746  22252896.550    22252896.4614   22252901.1324
        -0.000          -0.000
 -39114924.829 9 -30202734.06349  19125300.466    19125300.0104   19125304.1584
        -0.000          -0.000
 -27215674.918 9 -20906833.30448  20430841.300    20430840.5634   20430845.3194
        -0.000          -0.000
 97  3  7  1 55 59.9960000  0  7  4  9 24 30  6  5 10               -0.003741868
 -26808432.843 9 -20314376.38546  22595017.449    22595017.4254   22595021.1604
        -0.000          -0.000
 -22888181.416 9 -17511481.43646  22891298.187    22891297.8754   22891303.0474
        -0.000          -0.000
 -35183039.943 9 -27389366.88949  19926421.608    19926421.4854   19926426.0544
        -0.000          -0.000
 -29772223.067 9 -22591957.56748  20002481.841    20002482.1204   20002485.6674
        -0.000          -0.000
 -18427276.366 9 -14328903.44946  22234769.933    22234769.8794   22234774.5394
        -0.000          -0.000
 -39141841.182 9 -30223707.84849  19120178.423    19120178.0164   19120182.1444
        -0.000          -0.000
 -27300121.216 9 -20972635.59348  20414771.677    20414770.9484   20414775.7124
        -0.000          -0.000
 97  3  7  1 56 29.9960000  0  7  4  9 24 30  6  5 10               -0.003759425
 -26741446.455 9 -20262179.19446  22607764.450    22607764.5304   22607768.1594
        -0.000          -0.000
 -22827800.973 9 -17464431.76646  22902788.247    22902787.9104   22902793.0304
        -0.000          -0.000
 -35156668.491 9 -27368817.70449  19931439.916    19931439.8114   19931444.3624
        -0.000          -0.000
 -29859835.504 9 -22660226.99048  19985809.711    19985810.0324   19985813.5684
        -0.000          -0.000
 -18522436.637 9 -14403054.27746  22216661.532    22216661.4354   22216666.0904
        -0.000          -0.000
 -39168173.200 9 -30244226.30649  19115167.592    19115167.1554   19115171.3334
        -0.000          -0.000
 -27384085.823 9 -21038062.53648  20398793.692    20398792.9994   20398797.7894
        -0.000          -0.000
 97  3  7  1 56 59.9960000  0  7  4  9 24 30  6  5 10               -0.003776952
 -26674373.475 9 -20209914.51746  22620527.868    22620528.1544   22620531.7374
        -0.000          -0.000
 -22767379.295 9 -17417349.96446  22914286.111    22914285.8304   22914291.0064
        -0.000          -0.000
 -35129972.530 9 -27348015.65249  19936520.039    19936519.8954   19936524.4484
        -0.000          -0.000
 -29946970.097 9 -22728124.06548  19969228.611    19969228.8904   19969232.3894
        -0.000          -0.000
 -18617515.549 9 -14477141.70646  22198568.581    22198568.5114   22198573.2104
        -0.000          -0.000
 -39193927.708 9 -30264294.75249  19110266.650    19110266.2184   19110270.3914
        -0.000          -0.000
 -27467583.344 9 -21103125.52148  20382904.654    20382903.9394   20382908.7174
        -0.000          -0.000
 97  3  7  1 57 29.9960000  0  7  4  9 24 30  6  5 10               -0.003794461
 -26607260.214 9 -20157618.47646  22633299.065    22633299.3534   22633303.0474
        -0.000          -0.000
 -22706921.128 9 -17370239.72246  22925790.925    22925790.6154   22925795.8164
        -0.000          -0.000
 -35102965.454 9 -27326971.17148  19941659.246    19941659.1174   19941663.7094
        -0.000          -0.000
 -30033646.858 9 -22795664.38948  19952734.530    19952734.7994   19952738.3174
        -0.000          -0.000
 -18712533.534 9 -14551181.66646  22180487.031    22180487.0884   22180491.7954
        -0.000          -0.000
 -39219138.773 9 -30283939.73949  19105469.100    19105468.6794   19105472.8634
        -0.000          -0.000
 -27550607.784 9 -21167819.86148  20367105.616    20367104.9164   20367109.6914
        -0.000          -0.000
 97  3  7  1 57 59.9960000  0  7  4  9 24 30  6  5 10               -0.003811935
 -26540076.394 9 -20105267.46446  22646083.695    22646083.8924   22646087.6374
        -0.000          -0.000
 -22646392.527 9 -17323074.57146  22937309.107    22937308.7424   22937314.0314
        -0.000          -0.000
 -35075615.734 9 -27305659.69848  19946863.717    19946863.5944   19946868.1764
        -0.000          -0.000
 -30119820.252 9 -22862812.48148  19936336.231    19936336.5214   19936340.0414
        -0.000          -0.000
 -18807464.801 9 -14625154.04646  22162422.294    22162422.3844   22162426.8744
        -0.000          -0.000
 -39243761.848 9 -30303126.54949  19100783.511    19100783.1134   19100787.2264
        -0.000          -0.000
 -27633098.541 9 -21232098.34848  20351408.183    20351407.4344   20351412.1914
        -0.000          -0.000
 97  3  7  1 58 29.9960000  0  7  4  9 24 30  6  5 10               -0.003829375
 -26472819.698 9 -20052859.63246  22658882.224    22658882.4524   22658886.0304
        -0.000          -0.000
 -22585799.075 9 -17275858.89746  22948839.500    22948839.2194   22948844.3194
        -0.000          -0.000
 -35047950.184 9 -27284102.12248  19952128.305    19952128.1894   19952132.7444
        -0.000          -0.000
 -30205476.084 9 -22929557.27748  19920036.453    19920036.7554   19920040.2854
        -0.000          -0.000
 -18902323.890 9 -14699070.18846  22144371.224    22144371.2214   22144375.8174
        -0.000          -0.000
 -39267793.193 9 -30321852.27349  19096210.519    19096210.0894   19096214.2484
        -0.000          -0.000
 -27715037.155 9 -21295946.59548  20335815.698    20335814.9784   20335819.7244
        -0.000          -0.000
 97  3  7  1 58 59.9960000  0  7  4  9 24 30  6  5 10               -0.003846783
 -26405499.008 9 -20000401.94346  22671693.045    22671693.1434   22671696.7974
        -0.000          -0.000
 -22525143.727 9 -17228594.95646  22960381.860    22960381.6184   22960386.3264
        -0.000          -0.000
 -35019993.590 9 -27262317.75748  19957448.255    19957448.1464   19957452.7344
        -0.000          -0.000
 -30290625.106 9 -22995907.15748  19903833.137    19903833.4434   19903836.9844
        -0.000          -0.000
 -18997125.385 9 -14772941.46446  22126330.982    22126331.0204   22126335.6624
        -0.000          -0.000
 -39291238.722 9 -30340121.51949  19091749.003    19091748.5774   19091752.6954
        -0.000          -0.000
 -27796402.778 9 -21359348.36248  20320332.298    20320331.5774   20320336.3064
        -0.000          -0.000
 97  3  7  1 59 29.9960000  0  7  4  9 24 30  6  5 10               -0.003864146
 -26338084.422 9 -19947871.10246  22684521.551    22684521.7134   22684525.4274
        -0.000          -0.000
 -22464418.633 9 -17181276.70346  22971937.468    22971937.2784   22971942.1734
        -0.000          -0.000
 -34991731.304 9 -27240295.19548  19962826.451    19962826.3134   19962830.8424
        -0.000          -0.000
 -30375262.729 9 -23061858.54348  19887727.228    19887727.4934   19887731.0244
        -0.000          -0.000
 -19091847.051 9 -14846750.52046  22108306.318    22108306.1484   22108310.6064
        -0.000          -0.000
 -39314067.917 9 -30357910.50649  19087404.734    19087404.3154   19087408.4714
        -0.000          -0.000
 -27877185.450 9 -21422295.87248  20304959.802    20304959.1094   20304963.8964
        -0.000          -0.000
 97  3  7  1 59 59.9960000  0  7  4  9 24 30  6  5 10               -0.003881472
 -26270570.595 9 -19895262.92146  22697368.919    22697369.1484   22697372.8014
        -0.000          -0.000
 -22403646.267 9 -17133921.61346  22983502.024    22983501.8134   22983506.7314
        -0.000          -0.000
 -34963183.480 9 -27218050.13048  19968258.915    19968258.7524   19968263.3164
        -0.000          -0.000
 -30459398.582 9 -23127418.94348  19871716.726    19871716.9774   19871720.5174
        -0.000          -0.000
 -19186501.462 9 -14920507.17446  22090294.100    22090293.8884   22090298.4674
        -0.000          -0.000
 -39336273.394 9 -30375213.47049  19083179.164    19083178.7304   19083182.9014
        -0.000          -0.000
 -27957419.495 9 -21484815.88448  20289691.793    20289691.0894   20289695.8804
        -0.000          -0.000
 97  3  7  2  0 29.9960000  0  7  4  9 24 30  6  5 10               -0.003898749
 -26202952.580 9 -19842573.56046  22710236.072    22710236.4214   22710240.1084
        -0.000          -0.000
 -22342810.534 9 -17086517.14846  22995078.702    22995078.5574   22995083.4994
        -0.000          -0.000
 -34934331.543 9 -27195568.09848  19973749.230    19973749.0814   19973753.6464
        -0.000          -0.000
 -30543023.341 9 -23192581.08948  19855803.399    19855803.6734   19855807.2354
        -0.000          -0.000
 -19281064.644 9 -14994192.74646  22072299.157    22072299.0354   22072303.6854
        -0.000          -0.000
 -39357848.106 9 -30392024.93849  19079073.579    19079073.1734   19079077.3954
        -0.000          -0.000
 -28037103.499 9 -21546907.29748  20274528.442    20274527.7174   20274532.4894
        -0.000          -0.000
 97  3  7  2  0 59.9960000  0  7  4  9 24 30  6  5 10               -0.003915984
 -26135253.804 9 -19789821.25546  22723118.564    22723119.0024   22723122.7284
        -0.000          -0.000
 -22281920.406 9 -17039070.29146  23006665.782    23006665.6674   23006670.4844
        -0.000          -0.000
 -34905161.501 9 -27172838.19548  19979300.091    19979299.9384   19979304.5214
        -0.000          -0.000
 -30626158.265 9 -23257361.54348  19839983.281    19839983.5854   19839987.1234
        -0.000          -0.000
 -19375539.394 9 -15067809.40546  22054321.318    22054321.1714   22054325.7084
        -0.000          -0.000
 -39378811.706 9 -30408360.20949  19075084.339    19075083.9144   19075088.1354
        -0.000          -0.000
 -28116263.614 9 -21608590.48348  20259464.752    20259464.0354   20259468.8164
        -0.000          -0.000
 97  3  7  2  1 29.9960000  0  7  4  9 24 30  6  5 10               -0.003933205
 -26067522.918 9 -19737043.95746  22736007.167    22736007.6794   22736011.4174
        -0.000          -0.000
 -22221018.588 8 -16991614.32445  23018255.058    23018254.8644   23018259.7364
        -0.000          -0.000
 -34875695.166 9 -27149877.41348  19984907.268    19984907.1674   19984911.7744
        -0.000          -0.000
 -30708848.301 9 -23321795.33248  19824247.887    19824248.1594   19824251.6874
        -0.000          -0.000
 -19469971.468 9 -15141392.81246  22036351.322    22036351.2724   22036355.8104
        -0.000          -0.000
 -39399218.064 9 -30424261.27149  19071201.091    19071200.7124   19071204.9224
        -0.000          -0.000
 -28194952.384 9 -21669906.38548  20244490.735    20244490.0014   20244494.8324
        -0.000          -0.000
 97  3  7  2  1 59.9960000  0  7  4  9 24 30  6  5 10               -0.003950395
 -25999741.308 9 -19684227.09546  22748905.636    22748906.1104   22748909.7554
        -0.000          -0.000
 -22160066.310 8 -16944119.06145  23029853.833    23029853.6444   23029858.7574
        -0.000          -0.000
 -34845887.408 9 -27126650.58448  19990579.520    19990579.3804   19990584.0024
        -0.000          -0.000
 -30791036.983 9 -23385838.45248  19808607.890    19808608.1564   19808611.6354
        -0.000          -0.000
 -19564329.159 9 -15214918.25447  22018395.512    22018395.4924   22018400.0794
        -0.000          -0.000
 -39419025.766 9 -30439695.84149  19067431.883    19067431.4524   19067435.6774
        -0.000          -0.000
 -28273108.201 9 -21730807.00348  20229618.156    20229617.4074   20229622.2604
        -0.000          -0.000
 97  3  7  2  2 29.9960000  0  7  4  9 24 30  6  5 10               -0.003967561
 -25931924.102 9 -19631382.52546  22761810.954    22761811.3164   22761815.0124
        -0.000          -0.000
 -22099071.372 8 -16896590.57645  23041460.679    23041460.3504   23041465.8834
        -0.000          -0.000
 -34815742.903 9 -27103161.35148  19996315.818    19996315.6894   19996320.2974
        -0.000          -0.000
 -30872733.833 9 -23449498.32848  19793061.504    19793061.7784   19793065.1764
        -0.000          -0.000
 -19658622.819 9 -15288393.80347  22000452.047    22000452.0344   22000456.5864
        -0.000          -0.000
 -39438239.414 9 -30454667.52049  19063775.625    19063775.2334   19063779.4564
        -0.000          -0.000
 -28350722.570 9 -21791285.70648  20214848.655    20214847.9024   20214852.6534
        -0.000          -0.000
 97  3  7  2  2 59.9960000  0  7  4  9 24 30  6  5 10               -0.003984694
 -25864041.072 9 -19578486.65746  22774728.819    22774729.1134   22774732.7484
        -0.000          -0.000
 -22038025.679 8 -16849022.52345  23053077.150    23053076.9074   23053082.6294
        -0.000          -0.000
 -34785246.973 9 -27079398.28648  20002119.019    20002118.8514   20002123.4454
        -0.000          -0.000
 -30953913.648 9 -23512755.31748  19777613.472    19777613.7634   19777617.1324
        -0.000          -0.000
 -19752839.442 9 -15361809.31847  21982523.297    21982523.2064   21982527.7554
        -0.000          -0.000
 -39456828.963 9 -30469152.88049  19060238.164    19060237.7324   19060241.9584
        -0.000          -0.000
 -28427765.863 9 -21851319.42148  20200187.809    20200187.0614   20200191.7624
        -0.000          -0.000
 97  3  7  2  3 29.9960000  0  7  4  9 24 30  6  5 10               -0.004001796
 -25796092.095 9 -19525539.39546  22787659.240    22787659.3614   22787663.0634
        -0.000          -0.000
 -21976941.679 8 -16801424.63246  23064701.050    23064700.8294   23064706.4484
        -0.000          -0.000
 -34754429.741 9 -27055384.84848  20007983.327    20007983.2114   20007987.7974
        -0.000          -0.000
 -31034557.180 9 -23575594.42748  19762267.567    19762267.8174   19762271.2354
        -0.000          -0.000
 -19846977.597 9 -15435163.69047  21964609.271    21964609.2874   21964613.8474
        -0.000          -0.000
 -39474787.835 9 -30483146.80649  19056820.670    19056820.2884   19056824.4984
        -0.000          -0.000
 -28504227.362 9 -21910899.79348  20185637.680    20185636.9344   20185641.6454
        -0.000          -0.000
 97  3  7  2  3 59.9950000  0  7  4  9 24 30  6  5 10               -0.004018883
 -25728099.622 9 -19472558.24746  22800597.795    22800597.8844   22800601.5984
        -0.000          -0.000
 -21915861.008 9 -16753829.32546  23076324.213    23076324.1134   23076329.7564
        -0.000          -0.000
 -34723348.917 9 -27031166.02148  20013897.797    20013897.6674   20013902.3004
        -0.000          -0.000
 -31114662.975 9 -23638014.51848  19747023.912    19747024.1804   19747027.6304
        -0.000          -0.000
 -19941050.523 9 -15508467.23747  21946707.836    21946707.8504   21946712.4034
        -0.000          -0.000
 -39492142.542 9 -30496669.95449  19053518.164    19053517.7744   19053521.9784
        -0.000          -0.000
 -28580126.266 9 -21970041.77148  20171194.551    20171193.8034   20171198.4824
        -0.000          -0.000
 97  3  7  2  4 29.9950000  0  7  4  9 24 30  6  5 10               -0.004035930
 -25660026.448 9 -19419514.22946  22813551.658    22813551.7674   22813555.5294
        -0.000          -0.000
 -21854765.440 8 -16706222.41346  23087950.252    23087950.1454   23087955.8934
        -0.000          -0.000
 -34692011.609 9 -27006747.34248  20019861.079    20019860.9094   20019865.5754
        -0.000          -0.000
 -31194219.098 9 -23700006.29948  19731884.886    19731885.1404   19731888.6284
        -0.000          -0.000
 -20035035.565 9 -15581702.29647  21928823.169    21928823.0914   21928827.6054
        -0.000          -0.000
 -39508893.965 9 -30509723.01049  19050330.506    19050330.1114   19050334.3114
        -0.000          -0.000
 -28655463.337 9 -22028745.97348  20156858.348    20156857.6284   20156862.2954
        -0.000          -0.000
 97  3  7  2  4 59.9950000  0  7  4  9 24 30  6  5 10               -0.004052934
 -25591880.994 9 -19366413.88046  22826519.147    22826519.3694   22826523.0824
        -0.000          -0.000
 -21793648.497 9 -16658598.82946  23099580.494    23099580.3934   23099586.0804
        -0.000          -0.000
 -34660418.969 9 -26982129.69848  20025872.930    20025872.8074   20025877.4904
        -0.000          -0.000
 -31273211.777 9 -23761559.02748  19716853.068    19716853.3364   19716856.8384
        -0.000          -0.000
 -20128927.106 9 -15654864.50347  21910956.080    21910956.0314   21910960.6384
        -0.000          -0.000
 -39525052.383 9 -30522313.98449  19047255.662    19047255.2404   19047259.4634
        -0.000          -0.000
 -28730239.834 9 -22087013.35448  20142628.905    20142628.1594   20142632.7934
        -0.000          -0.000
 97  3  7  2  5 29.9950000  0  7  4  9 24 30  6  5 10               -0.004069886
 -25523660.839 9 -19313255.31046  22839500.922    22839501.2724   22839504.9804
        -0.000          -0.000
 -21732490.951 9 -16610943.61446  23111218.446    23111218.4164   23111224.0844
        -0.000          -0.000
 -34628548.852 9 -26957295.83948  20031937.586    20031937.4584   20031942.1244
        -0.000          -0.000
 -31351628.214 9 -23822662.73848  19701930.911    19701931.1674   19701934.6694
        -0.000          -0.000
 -20222725.029 9 -15727953.77147  21893106.829    21893106.8474   21893111.3784
        -0.000          -0.000
 -39540615.965 9 -30534441.44949  19044293.987    19044293.6004   19044297.7774
        -0.000          -0.000
 -28804431.832 9 -22144825.28248  20128510.608    20128509.8534   20128514.4834
        -0.000          -0.000
 97  3  7  2  5 59.9950000  0  7  4  9 24 30  6  5 10               -0.004086788
 -25455364.806 9 -19260037.61146  22852497.234    22852497.5554   22852501.2324
        -0.000          -0.000
 -21671289.705 9 -16563254.34646  23122864.771    23122864.6644   23122870.3554
        -0.000          -0.000
 -34596368.050 9 -26932219.88348  20038061.421    20038061.2594   20038065.8874
        -0.000          -0.000
 -31429480.400 9 -23883326.77748  19687116.124    19687116.3834   19687119.8964
        -0.000          -0.000
 -20316445.652 9 -15800982.78547  21875272.511    21875272.4144   21875276.9024
        -0.000          -0.000
 -39555585.917 9 -30546106.35249  19041445.301    19041444.9024   19041449.1064
        -0.000          -0.000
 -28878037.141 9 -22202180.05248  20114503.922    20114503.1894   20114507.7944
        -0.000          -0.000
 97  3  7  2  6 29.9950000  0  7  4  9 24 30  6  5 10               -0.004103643
 -25386998.460 9 -19206765.15846  22865506.822    22865507.1194   22865511.0624
        -0.000          -0.000
 -21610047.512 9 -16515533.14446  23134518.873    23134518.7754   23134524.2654
        -0.000          -0.000
 -34563850.833 9 -26906881.78148  20044249.216    20044249.0954   20044253.7054
        -0.000          -0.000
 -31506796.402 9 -23943573.00148  19672403.363    19672403.6284   19672407.1504
        -0.000          -0.000
 -20410103.196 9 -15873962.65547  21857449.971    21857449.9024   21857454.4574
        -0.000          -0.000
 -39569961.086 9 -30557307.77949  19038709.793    19038709.3764   19038713.5434
        -0.000          -0.000
 -28951058.204 9 -22259079.56048  20100608.468    20100607.7294   20100612.3764
        -0.000          -0.000
 97  3  7  2  6 59.9950000  0  7  4  9 24 30  6  5 10               -0.004120445
 -25318539.409 9 -19153420.42945  22878534.174    22878534.3894   22878538.3844
        -0.000          -0.000
 -21548749.657 9 -16467768.57346  23146183.408    23146183.3504   23146188.7444
        -0.000          -0.000
 -34530950.555 9 -26881245.19848  20050509.931    20050509.8014   20050514.3824
        -0.000          -0.000
 -31583544.023 9 -24003376.34148  19657798.747    19657799.0394   19657802.5484
        -0.000          -0.000
 -20503688.066 9 -15946885.90947  21839641.321    21839641.2914   21839645.8064
        -0.000          -0.000
 -39583707.287 9 -30568019.11149  19036093.995    19036093.5874   19036097.7684
        -0.000          -0.000
 -29023457.168 9 -22315494.31948  20086831.365    20086830.6174   20086835.2744
        -0.000          -0.000
 97  3  7  2  7 29.9950000  0  7  4  9 24 30  6  5 10               -0.004137201
 -25249986.098 9 -19100002.25145  22891579.426    22891579.7794   22891583.6764
        -0.000          -0.000
 -21487427.598 9 -16419985.13945  23157852.782    23157852.6834   23157857.9274
        -0.000          -0.000
 -34497687.855 9 -26855326.20248  20056839.592    20056839.4794   20056844.0524
        -0.000          -0.000
 -31659725.803 9 -24062738.75848  19643301.932    19643302.1654   19643305.6644
        -0.000          -0.000
 -20597211.083 9 -16019760.95247  21821844.614    21821844.4724   21821848.9204
        -0.000          -0.000
 -39596837.146 9 -30578250.17049  19033595.460    19033595.0464   19033599.2024
        -0.000          -0.000
 -29095232.815 9 -22371423.38148  20073172.910    20073172.1924   20073176.8344
        -0.000          -0.000
 97  3  7  2  7 59.9950000  0  7  4  9 24 30  6  5 10               -0.004153912
 -25181341.497 8 -19046512.95745  22904642.064    22904642.2064   22904646.1104
        -0.000          -0.000
 -21426096.677 9 -16372194.82545  23169523.635    23169523.5534   23169528.8474
        -0.000          -0.000
 -34464090.058 9 -26829146.09348  20063233.112    20063232.9534   20063237.5374
        -0.000          -0.000
 -31735348.753 9 -24121665.72748  19628911.326    19628911.5774   19628915.1024
        -0.000          -0.000
 -20690654.004 9 -16092573.59047  21804062.747    21804062.7324   21804067.2584
        -0.000          -0.000
 -39609348.282 9 -30587999.11249  19031214.668    19031214.2744   19031218.4484
        -0.000          -0.000
 -29166409.630 9 -22426885.81348  20059628.441    20059627.6894   20059632.3034
        -0.000          -0.000
 97  3  7  2  8 29.9950000  0  7  4  9 24 30  6  5 10               -0.004170583
 -25112621.636 8 -18992964.98945  22917718.956    22917719.1834   22917723.0894
        -0.000          -0.000
 -21364775.806 8 -16324412.33745  23181192.601    23181192.2754   23181197.7474
        -0.000          -0.000
 -34430206.804 9 -26802743.55748  20069680.812    20069680.6994   20069685.2804
        -0.000          -0.000
 -31810427.191 9 -24180168.40548  19614624.357    19614624.6084   19614628.1614
        -0.000          -0.000
 -20784012.884 9 -16165320.74047  21786297.120    21786297.1304   21786301.6844
        -0.000          -0.000
 -39621255.756 9 -30597277.66349  19028948.825    19028948.4034   19028952.5374
        -0.000          -0.000
 -29237007.378 9 -22481897.03248  20046194.096    20046193.3594   20046197.9174
        -0.000          -0.000
 97  3  7  2  8 59.9950000  0  7  4  9 24 30  6  5 10               -0.004187203
 -25043819.050 8 -18939352.58945  22930811.633    22930811.8084   22930815.7964
        -0.000          -0.000
 -21303448.696 8 -16276624.98745  23192862.679    23192862.4164   23192867.7064
        -0.000          -0.000
 -34396045.466 9 -26776124.33248  20076181.492    20076181.3794   20076185.9714
        -0.000          -0.000
 -31884939.323 9 -24238229.80448  19600445.165    19600445.4144   19600448.9534
        -0.000          -0.000
 -20877261.953 9 -16237982.32147  21768552.436    21768552.3754   21768556.8644
        -0.000          -0.000
 -39632540.095 9 -30606070.66349  19026801.476    19026801.0604   19026805.1634
        -0.000          -0.000
 -29306996.362 9 -22536433.89148  20032875.627    20032874.8994   20032879.4184
        -0.000          -0.000
 97  3  7  2  9 29.9950000  0  7  4  9 24 30  6  5 10               -0.004203777
 -24974963.493 8 -18885698.94045  22943914.187    22943914.5894   22943918.5224
        -0.000          -0.000
 -21242118.685 8 -16228835.34545  23204533.473    23204532.9864   23204538.3234
        -0.000          -0.000
 -34361629.987 9 -26749307.06848  20082730.561    20082730.4554   20082735.0034
        -0.000          -0.000
 -31958917.377 9 -24295875.03448  19586367.572    19586367.8304   19586371.3934
        -0.000          -0.000
 -20970391.712 9 -16310550.94347  21750830.392    21750830.3544   21750834.7144
        -0.000          -0.000
 -39643209.856 9 -30614384.76049  19024771.115    19024770.6754   19024774.7694
        -0.000          -0.000
 -29376395.204 9 -22590510.88748  20019669.439    20019668.7224   20019673.2924
        -0.000          -0.000
 97  3  7  2  9 59.9950000  0  7  4  9 24 30  6  5 10               -0.004220307
 -24906070.420 8 -18832016.00545  22957024.314    22957024.6234   22957028.3544
        -0.000          -0.000
 -21180780.352 8 -16181039.26145  23216205.652    23216205.4154   23216210.8554
        -0.000          -0.000
 -34326955.388 9 -26722287.89648  20089328.922    20089328.8074   20089333.3514
        -0.000          -0.000
 -32032380.860 9 -24353119.30248  19572387.880    19572388.1584   19572391.7454
        -0.000          -0.000
 -21063397.804 9 -16383023.19247  21733131.816    21733131.8364   21733136.2414
        -0.000          -0.000
 -39653248.123 9 -30622206.78949  19022860.836    19022860.4484   19022864.4934
        -0.000          -0.000
 -29445213.005 9 -22644135.13248  20006573.848    20006573.1384   20006577.6904
        -0.000          -0.000
 97  3  7  2 10 29.9950000  0  7  4  9 24 30  6  5 10               -0.004236802
 -24837153.092 9 -18778314.19245  22970138.916    22970139.0844   22970142.9044
        -0.000          -0.000
 -21119441.323 8 -16133242.62045  23227878.137    23227877.9154   23227883.4364
        -0.000          -0.000
 -34292023.017 9 -26695067.86048  20095976.317    20095976.2054   20095980.7504
        -0.000          -0.000
 -32105324.777 9 -24409958.71248  19558507.099    19558507.4074   19558510.9474
        -0.000          -0.000
 -21156296.541 9 -16455411.79847  21715453.871    21715453.8344   21715458.2264
        -0.000          -0.000
 -39662664.080 9 -30629543.90549  19021069.045    19021068.5984   19021072.6944
        -0.000          -0.000
 -29513434.297 9 -22697294.55948  19993591.743    19993591.0254   19993595.6004
        -0.000          -0.000
 97  3  7  2 10 59.9950000  0  7  4  9 24 30  6  5 10               -0.004253267
 -24768214.500 8 -18724595.82145  22983257.753    22983257.6124   22983261.6514
        -0.000          -0.000
 -21058107.860 8 -16085450.33145  23239549.586    23239549.3354   23239554.7574
        -0.000          -0.000
 -34256818.917 9 -26667636.09048  20102675.345    20102675.2774   20102679.8114
        -0.000          -0.000
 -32177742.762 9 -24466388.30648  19544726.401    19544726.6974   19544730.2544
        -0.000          -0.000
 -21249096.477 9 -16527723.39847  21697794.684    21697794.5904   21697798.8774
        -0.000          -0.000
 -39671451.275 9 -30636391.07349  19019396.854    19019396.4564   19019400.5304
        -0.000          -0.000
 -29581054.071 9 -22749985.27948  19980724.072    19980723.3534   19980727.9134
        -0.000          -0.000
 97  3  7  2 11 29.9950000  0  7  4  9 24 30  6  5 10               -0.004269713
 -24699270.326 9 -18670873.09345  22996377.373    22996377.3794   22996381.2084
        -0.000          -0.000
 -20996795.604 8 -16037674.56045  23251216.918    23251216.6384   23251222.0324
        -0.000          -0.000
 -34221351.265 9 -26639998.95748  20109424.702    20109424.5554   20109429.0714
        -0.000          -0.000
 -32249636.390 9 -24522409.31348  19531045.458    19531045.7784   19531049.3244
        -0.000          -0.000
 -21341813.675 9 -16599970.54047  21680150.909    21680150.9834   21680155.2994
        -0.000          -0.000
 -39679624.483 9 -30642759.81049  19017841.568    19017841.1434   19017845.2314
        -0.000          -0.000
 -29648103.231 9 -22802231.36148  19967965.048    19967964.3364   19967968.8754
        -0.000          -0.000
 97  3  7  2 11 59.9950000  0  7  4  9 24 30  6  5 10               -0.004286123
 -24630283.567 9 -18617117.17046  23009505.153    23009505.1714   23009508.8744
        -0.000          -0.000
 -20935493.666 9 -15989906.84645  23262882.301    23262882.0424   23262887.4164
        -0.000          -0.000
 -34185595.931 9 -26612137.65048  20116228.658    20116228.5554   20116233.0674
        -0.000          -0.000
 -32320960.804 9 -24577986.77049  19517472.920    19517473.2344   19517476.7124
        -0.000          -0.000
 -21434444.964 9 -16672150.73447  21662523.853    21662523.9074   21662528.2054
        -0.000          -0.000
 -39687179.785 9 -30648647.06549  19016403.853    19016403.4684   19016407.5134
        -0.000          -0.000
 -29714552.791 9 -22854010.22548  19955320.154    19955319.4104   19955323.9974
        -0.000          -0.000
 97  3  7  2 12 29.9950000  0  7  4  9 24 30  6  5 10               -0.004302512
 -24561273.252 9 -18563342.88446  23022637.518    23022637.4704   23022641.2024
        -0.000          -0.000
 -20874236.778 9 -15942174.21946  23274539.380    23274539.0314   23274544.3624
        -0.000          -0.000
 -34149585.385 9 -26584077.48448  20123081.207    20123081.1514   20123085.6614
        -0.000          -0.000
 -32391730.635 9 -24633132.08249  19504005.966    19504006.2274   19504009.6934
        -0.000          -0.000
 -21527021.358 9 -16744288.15447  21644907.060    21644907.0734   21644911.5144
        -0.000          -0.000
 -39694167.839 9 -30654092.30849  19015074.072    19015073.6584   19015077.7264
        -0.000          -0.000
 -29780429.571 9 -22905342.76248  19942784.180    19942783.4584   19942788.0384
        -0.000          -0.000
 97  3  7  2 12 59.9950000  0  7  4  9 24 30  6  5 10               -0.004318877
 -24492238.058 9 -18509549.22746  23035774.529    23035774.2964   23035778.1704
        -0.000          -0.000
 -20813029.576 9 -15894480.31446  23286186.794    23286186.4694   23286191.9094
        -0.000          -0.000
 -34113326.817 9 -26555824.04748  20129981.004    20129980.9144   20129985.4204
        -0.000          -0.000
 -32461959.646 9 -24687855.98749  19490641.806    19490642.0894   19490645.5544
        -0.000          -0.000
 -21619562.764 9 -16816398.32447  21627297.025    21627297.0044   21627301.3944
        -0.000          -0.000
 -39700603.852 9 -30659107.39149  19013849.394    19013848.9764   19013853.0334
        -0.000          -0.000
 -29845756.591 9 -22956246.92048  19930352.847    19930352.1144   19930356.7214
        -0.000          -0.000
 97  3  7  2 13 29.9950000  0  7  4  9 24 30  6  5 10               -0.004335204
 -24423158.233 9 -18455720.80646  23048919.937    23048919.7254   23048923.5834
        -0.000          -0.000
 -20751848.523 9 -15846806.76946  23297829.158    23297828.8684   23297834.3264
        -0.000          -0.000
 -34076805.914 9 -26527366.19648  20136930.675    20136930.5734   20136935.0644
        -0.000          -0.000
 -32531625.847 9 -24742141.32949  19477384.760    19477385.0474   19477388.5024
        -0.000          -0.000
 -21712054.239 9 -16888469.57147  21609696.546    21609696.4594   21609700.8134
        -0.000          -0.000
 -39706478.682 9 -30663685.18849  19012731.422    19012731.0104   19012735.0934
        -0.000          -0.000
 -29910506.194 9 -23006701.14148  19918031.378    19918030.6544   19918035.2294
        -0.000          -0.000
 97  3  7  2 13 59.9950000  0  7  4  9 24 30  6  5 10               -0.004351468
 -24353996.226 9 -18401828.29946  23062081.056    23062080.9144   23062084.6074
        -0.000          -0.000
 -20690661.049 9 -15799128.22746  23309472.733    23309472.4784   23309477.9254
        -0.000          -0.000
 -34039990.718 9 -26498679.02748  20143936.386    20143936.2834   20143940.7824
        -0.000          -0.000
 -32600702.451 9 -24795967.24349  19464239.911    19464240.1674   19464243.6734
        -0.000          -0.000
 -21804466.327 9 -16960478.96447  21592111.078    21592110.9934   21592115.3944
        -0.000          -0.000
 -39711760.459 9 -30667800.85949  19011726.346    19011725.9064   19011730.0004
        -0.000          -0.000
 -29974630.503 9 -23056668.11348  19905828.901    19905828.1824   19905832.7634
        -0.000          -0.000
 97  3  7  2 14 29.9950000  0  7  4  9 24 30  6  5 10               -0.004367666
 -24284753.117 9 -18347872.63746  23075257.676    23075257.4724   23075261.2424
        -0.000          -0.000
 -20629455.005 9 -15751435.21746  23321119.912    23321119.6354   23321125.0094
        -0.000          -0.000
 -34002889.429 9 -26469768.92748  20150996.493    20150996.3954   20151000.8934
        -0.000          -0.000
 -32669191.986 9 -24849335.70949  19451206.682    19451206.9704   19451210.5294
        -0.000          -0.000
 -21896779.778 9 -17032411.51047  21574544.418    21574544.3344   21574548.7084
        -0.000          -0.000
 -39716414.318 9 -30671427.25349  19010840.675    19010840.2594   19010844.3654
        -0.000          -0.000
 -30038119.361 9 -23106139.93348  19893747.361    19893746.6264   19893751.2344
        -0.000          -0.000
 97  3  7  2 14 59.9950000  0  7  4  9 24 30  6  5 10               -0.004383818
 -24215466.102 9 -18293882.75846  23088442.585    23088442.3744   23088446.2144
        -0.000          -0.000
 -20568251.791 9 -15703744.40746  23332766.511    23332766.1824   23332771.6174
        -0.000          -0.000
 -33965534.608 9 -26440661.27148  20158104.867    20158104.7744   20158109.2714
        -0.000          -0.000
 -32737120.795 9 -24902267.24749  19438280.216    19438280.5284   19438284.1144
        -0.000          -0.000
 -21989011.688 9 -17104280.51247  21556993.279    21556993.1844   21556997.5904
        -0.000          -0.000
 -39720447.918 9 -30674570.32149  19010073.133    19010072.6914   19010076.8014
        -0.000          -0.000
 -30100981.736 9 -23155123.58548  19881784.928    19881784.2374   19881788.8584
        -0.000          -0.000
 97  3  7  2 15 29.9950000  0  7  4  9 24 30  6  5 10               -0.004399939
 -24146170.111 9 -18239885.87745  23101629.029    23101628.9354   23101632.8074
        -0.000          -0.000
 -20507076.242 8 -15656075.16646  23344407.713    23344407.3334   23344412.9644
        -0.000          -0.000
 -33927950.022 9 -26411374.57848  20165256.982    20165256.8834   20165261.4214
        -0.000          -0.000
 -32804500.383 9 -24954770.81549  19425458.359    19425458.6254   19425462.2064
        -0.000          -0.000
 -22081156.223 9 -17176081.41747  21539458.764    21539458.6634   21539462.9564
        -0.000          -0.000
 -39723873.341 9 -30677239.48749  19009421.210    19009420.8224   19009424.9464
        -0.000          -0.000
 -30163228.212 9 -23203627.31648  19869939.836    19869939.1374   19869943.7044
        -0.000          -0.000
 97  3  7  2 15 59.9950000  0  7  4  9 24 30  6  5 10               -0.004416016
 -24076841.087 8 -18185863.25945  23114821.750    23114821.7624   23114825.8404
        -0.000          -0.000
 -20445915.264 8 -15608417.27945  23356046.110    23356045.8864   23356051.4884
        -0.000          -0.000
 -33890114.330 9 -26381892.21848  20172456.827    20172456.7394   20172461.2934
        -0.000          -0.000
 -32871294.556 9 -25006818.21949  19412747.777    19412748.0444   19412751.7174
        -0.000          -0.000
 -22173174.480 9 -17247783.93147  21521948.193    21521948.1064   21521952.3904
        -0.000          -0.000
 -39726664.711 9 -30679414.58249  19008890.055    19008889.6204   19008893.7364
        -0.000          -0.000
 -30224848.124 9 -23251642.81848  19858213.939    19858213.2154   19858217.7864
        -0.000          -0.000
 97  3  7  2 16 29.9950000  0  7  4  9 24 30  6  5 10               -0.004432059
 -24007493.273 8 -18131826.00845  23128018.094    23128018.1364   23128022.2034
        -0.000          -0.000
 -20384794.656 8 -15560790.86445  23367676.809    23367676.6744   23367682.4444
        -0.000          -0.000
 -33852038.021 9 -26352222.36348  20179702.525    20179702.4234   20179707.0054
        -0.000          -0.000
 -32937501.451 9 -25058408.00449  19400149.006    19400149.2964   19400152.9474
        -0.000          -0.000
 -22265075.852 9 -17319395.36547  21504459.882    21504459.8724   21504464.2504
        -0.000          -0.000
 -39728838.787 9 -30681108.67049  19008476.308    19008475.9264   19008480.0554
        -0.000          -0.000
 -30285862.834 9 -23299186.72748  19846603.222    19846602.4934   19846607.1104
        -0.000          -0.000
 97  3  7  2 16 59.9950000  0  7  4  9 24 30  6  5 10               -0.004448072
 -23938136.143 8 -18077781.49945  23141216.147    23141216.0304   23141220.4784
        -0.000          -0.000
 -20323722.473 8 -15513202.19345  23379298.453    23379298.2794   23379304.1434
        -0.000          -0.000
 -33813701.803 9 -26322349.98148  20186997.720    20186997.5634   20187002.1494
        -0.000          -0.000
 -33003109.826 9 -25109531.40249  19387664.146    19387664.3994   19387668.0144
        -0.000          -0.000
 -22356869.069 9 -17390922.51947  21486992.105    21486992.1154   21486996.5334
        -0.000          -0.000
 -39730408.091 9 -30682331.51049  19008177.727    19008177.3034   19008181.4594
        -0.000          -0.000
 -30346281.361 9 -23346266.08048  19835105.945    19835105.2034   19835109.8364
        -0.000          -0.000
 97  3  7  2 17 29.9950000  0  7  4  9 24 30  6  5 10               -0.004464067
 -23868785.305 8 -18023741.89145  23154413.072    23154412.9834   23154417.5514
        -0.000          -0.000
 -20262721.607 8 -15465669.02945  23390906.471    23390906.4134   23390911.9044
        -0.000          -0.000
 -33775107.752 9 -26292276.69248  20194341.849    20194341.7884   20194346.3494
        -0.000          -0.000
 -33068135.900 9 -25160201.06749  19375290.035    19375290.3264   19375293.9374
        -0.000          -0.000
 -22448575.137 9 -17462381.77147  21469541.050    21469541.0564   21469545.4164
        -0.000          -0.000
 -39731392.833 9 -30683098.84749  19007990.310    19007989.9224   19007994.0984
        -0.000          -0.000
 -30406127.878 9 -23392899.71648  19823717.494    19823716.7964   19823721.4334
        -0.000          -0.000
 97  3  7  2 17 59.9950000  0  7  4  9 24 30  6  5 10               -0.004480057
 -23799456.668 8 -17969719.57345  23167605.609    23167605.5224   23167610.1544
        -0.000          -0.000
 -20201809.091 8 -15418204.72445  23402497.610    23402497.6694   23402502.7934
        -0.000          -0.000
 -33736267.355 9 -26262011.44448  20201732.943    20201732.8414   20201737.3634
        -0.000          -0.000
 -33132598.041 9 -25210431.30449  19363023.281    19363023.5984   19363027.2134
        -0.000          -0.000
 -22540216.624 9 -17533790.69747  21452102.280    21452102.2594   21452106.7304
        -0.000          -0.000
 -39731799.651 9 -30683415.85949  19007912.897    19007912.4864   19007916.6944
        -0.000          -0.000
 -30465401.856 9 -23439087.21448  19812438.029    19812437.3054   19812441.9254
        -0.000          -0.000
 97  3  7  2 18 29.9950000  0  7  4  9 24 30  6  5 10               -0.004496027
 -23730135.630 8 -17915703.21345  23180796.575    23180796.9274   23180801.4704
        -0.000          -0.000
 -20140957.382 8 -15370787.84445  23414077.372    23414077.3014   23414082.6414
        -0.000          -0.000
 -33697163.024 9 -26231540.52748  20209174.263    20209174.1704   20209178.6784
        -0.000          -0.000
 -33196486.918 9 -25260214.83749  19350865.685    19350865.9644   19350869.5274
        -0.000          -0.000
 -22631774.255 9 -17605134.28447  21434679.413    21434679.3914   21434683.8404
        -0.000          -0.000
 -39731591.582 9 -30683253.73149  19007952.485    19007952.1084   19007956.2954
        -0.000          -0.000
 -30524054.355 9 -23484790.44848  19801276.783    19801276.0624   19801280.6734
        -0.000          -0.000
 97  3  7  2 18 59.9950000  0  7  4  9 24 30  6  5 10               -0.004511980
 -23660833.785 8 -17861701.77745  23193984.297    23193984.7194   23193989.0744
        -0.000          -0.000
 -20080168.267 8 -15323419.68145  23425645.485    23425645.4434   23425650.6124
        -0.000          -0.000
 -33657813.223 9 -26200878.34248  20216662.288    20216662.1864   20216666.6724
        -0.000          -0.000
 -33259822.301 9 -25309567.07849  19338813.381    19338813.6384   19338817.1854
        -0.000          -0.000
 -22723248.118 9 -17676412.59347  21417272.584    21417272.4814   21417276.8694
        -0.000          -0.000
 -39730773.575 9 -30682616.32849  19008108.168    19008107.7714   19008111.9784
        -0.000          -0.000
 -30582076.528 9 -23530002.51048  19790235.499    19790234.7964   19790239.4464
        -0.000          -0.000
 97  3  7  2 19 29.9950000  0  7  4  9 24 30  6  5 10               -0.004527904
 -23591527.570 8 -17807696.96145  23207172.848    23207173.1684   23207177.7634
        -0.000          -0.000
 -20019431.922 8 -15276092.67045  23437202.946    23437202.8134   23437208.4074
        -0.000          -0.000
 -33618226.617 9 -26170031.63548  20224195.386    20224195.2514   20224199.7164
        -0.000          -0.000
 -33322586.598 9 -25358474.32449  19326869.690    19326869.9864   19326873.5064
        -0.000          -0.000
 -22814627.375 9 -17747617.18347  21399883.513    21399883.5294   21399887.9954
        -0.000          -0.000
 -39729345.356 9 -30681503.43049  19008379.975    19008379.5834   19008383.7634
        -0.000          -0.000
 -30639448.870 9 -23574708.22048  19779317.913    19779317.1844   19779321.8214
        -0.000          -0.000
 97  3  7  2 19 59.9950000  0  7  4  9 24 30  6  5 10               -0.004543784
 -23522186.148 8 -17753664.68345  23220368.352    23220368.5034   23220372.9194
        -0.000          -0.000
 -19958737.686 8 -15228798.50045  23448752.586    23448752.6364   23448758.2984
        -0.000          -0.000
 -33578411.715 9 -26139007.03248  20231771.886    20231771.7664   20231776.2594
        -0.000          -0.000
 -33384751.041 9 -25406914.14349  19315040.254    19315040.5164   19315044.0254
        -0.000          -0.000
 -22905906.852 9 -17818744.02747  21382513.793    21382513.6144   21382518.0594
        -0.000          -0.000
 -39727301.279 9 -30679910.65049  19008768.929    19008768.5234   19008772.7124
        -0.000          -0.000
 -30696165.363 9 -23618902.87048  19768525.092    19768524.3654   19768529.0484
        -0.000          -0.000
 97  3  7  2 20 29.9950000  0  7  4  9 24 30  6  5 10               -0.004559598
 -23452773.881 9 -17699577.19645  23233577.202    23233577.3994   23233581.5734
        -0.000          -0.000
 -19898068.252 8 -15181523.60245  23460297.741    23460297.6544   23460303.0894
        -0.000          -0.000
 -33538358.077 9 -26107796.40248  20239393.859    20239393.7194   20239398.2574
        -0.000          -0.000
 -33446293.366 9 -25454869.20349  19303329.096    19303329.3834   19303332.9104
        -0.000          -0.000
 -22997072.512 9 -17889782.17847  21365165.391    21365165.3344   21365169.7354
        -0.000          -0.000
 -39724644.221 9 -30677840.21849  19009274.573    19009274.1734   19009278.3594
        -0.000          -0.000
 -30752230.828 9 -23662590.23448  19757856.186    19757855.4614   19757860.1054
        -0.000          -0.000
 97  3  7  2 20 59.9950000  0  7  4  9 24 30  6  5 10               -0.004575344
 -23383285.830 9 -17645430.64245  23246800.396    23246800.6054   23246804.7464
        -0.000          -0.000
 -19837425.460 8 -15134269.48245  23471837.709    23471837.5254   23471843.0664
        -0.000          -0.000
 -33498064.037 9 -26076398.44648  20247061.486    20247061.3814   20247065.9324
        -0.000          -0.000
 -33507204.494 9 -25502332.41949  19291738.101    19291738.4074   19291741.9164
        -0.000          -0.000
 -23088136.021 9 -17960740.73247  21347836.581    21347836.5304   21347840.8954
        -0.000          -0.000
 -39721393.778 9 -30675307.41249  19009893.079    19009892.7154   19009896.8674
        -0.000          -0.000
 -30807669.051 9 -23705788.83448  19747306.583    19747305.8754   19747310.5044
        -0.000          -0.000
 97  3  7  2 21 29.9950000  0  6  4 24 30  6  5 10                  -0.004590956
 -23313707.306 9 -17591213.62445  23260040.679    23260041.0684   23260045.0484
        -0.000          -0.000
 -33457504.728 9 -26044793.79048  20254779.677    20254779.5684   20254784.1094
        -0.000          -0.000
 -33567467.593 9 -25549290.67249  19280270.425    19280270.7064   19280274.2154
        -0.000          -0.000
 -23179088.183 9 -18031612.53247  21330528.921    21330528.8724   21330533.3124
        -0.000          -0.000
 -39717532.391 9 -30672298.54749  19010627.903    19010627.4974   19010631.6474
        -0.000          -0.000
 -30862475.995 9 -23748495.53248  19736877.148    19736876.4454   19736881.0954
        -0.000          -0.000
 97  3  7  2 21 59.9950000  0  6  4 24 30  6  5 10                  -0.004606541
 -23244067.163 9 -17536948.55845  23273292.870    23273293.2644   23273296.9834
        -0.000          -0.000
 -33416701.234 9 -26012998.85648  20262544.258    20262544.2124   20262548.7334
        -0.000          -0.000
 -33627122.263 9 -25595774.83049  19268918.474    19268918.7654   19268922.3204
        -0.000          -0.000
 -23269936.260 9 -18102403.20947  21313240.992    21313241.0204   21313245.4234
        -0.000          -0.000
 -39713071.671 9 -30668822.66649  19011476.728    19011476.3594   19011480.4894
        -0.000          -0.000
 -30916674.386 9 -23790728.03448  19726563.590    19726562.8754   19726567.4944
        -0.000          -0.000
 97  3  7  2 22 29.9950000  0  6  4 24 30  6  5 10                  -0.004622085
 -23174394.288 9 -17482657.98645  23286551.284    23286551.6854   23286555.3144
        -0.000          -0.000
 -33375645.606 9 -25981007.44948  20270356.932    20270356.8544   20270361.3554
        -0.000          -0.000
 -33686184.974 9 -25641797.72049  19257679.170    19257679.4964   19257683.0884
        -0.000          -0.000
 -23360675.788 9 -18173109.31347  21295973.886    21295973.8844   21295978.1754
        -0.000          -0.000
 -39708009.558 9 -30664878.16349  19012440.056    19012439.6724   19012443.7824
        -0.000          -0.000
 -30970254.337 9 -23832478.62648  19716367.640    19716366.9034   19716371.5734
        -0.000          -0.000
 97  3  7  2 22 59.9950000  0  6  4 24 30  6  5 10                  -0.004637605
 -23104719.534 8 -17428365.98445  23299809.857    23299810.4174   23299814.0374
        -0.000          -0.000
 -33334350.867 9 -25948829.72748  20278215.073    20278214.9844   20278219.4514
        -0.000          -0.000
 -33744670.879 9 -25687371.15149  19246549.719    19246549.9814   19246553.5764
        -0.000          -0.000
 -23451322.931 9 -18243743.42747  21278724.379    21278724.3164   21278728.6024
        -0.000          -0.000
 -39702346.248 9 -30660465.19949  19013517.755    19013517.3664   19013521.5054
        -0.000          -0.000
 -31023216.227 9 -23873747.62048  19706289.314    19706288.5904   19706293.2364
        -0.000          -0.000
 97  3  7  2 23 29.9950000  0  6  4 24 30  6  5 10                  -0.004653085
 -23035050.071 8 -17374078.09345  23313067.334    23313067.9304   23313071.6054
        -0.000          -0.000
 -33292824.207 9 -25916471.29148  20286117.289    20286117.2034   20286121.6924
        -0.000          -0.000
 -33802579.590 9 -25732494.82549  19235529.975    19235530.2804   19235533.9274
        -0.000          -0.000
 -23541863.337 9 -18314294.37247  21261495.140    21261495.0234   21261499.3264
        -0.000          -0.000
 -39696075.573 9 -30655578.95749  19014711.038    19014710.6204   19014714.7524
        -0.000          -0.000
 -31075545.009 9 -23914523.27848  19696331.430    19696330.7444   19696335.3694
        -0.000          -0.000
 97  3  7  2 23 59.9950000  0  6  4 24 30  6  5 10                  -0.004668514
 -22965387.466 8 -17319795.52745  23326323.647    23326324.3814   23326327.9484
        -0.000          -0.000
 -33251075.500 9 -25883939.83048  20294061.752    20294061.6734   20294066.1824
        -0.000          -0.000
 -33859895.311 9 -25777156.42749  19224623.177    19224623.4904   19224627.1124
        -0.000          -0.000
 -23632292.981 9 -18384759.00347  21244286.917    21244286.7764   21244291.1114
        -0.000          -0.000
 -39689195.876 9 -30650218.16349  19016020.129    19016019.7534   19016023.9064
        -0.000          -0.000
 -31127223.026 9 -23954791.85348  19686497.465    19686496.7424   19686501.3064
        -0.000          -0.000
 97  3  7  2 24 29.9950000  0  6  4 24 30  6  5 10                  -0.004683920
 -22895736.746 8 -17265522.28045  23339577.748    23339578.4474   23339582.2314
        -0.000          -0.000
 -33209096.188 9 -25851228.67448  20302050.169    20302050.0834   20302054.6344
        -0.000          -0.000
 -33916598.364 9 -25821340.62649  19213832.965    19213833.2604   19213836.8794
        -0.000          -0.000
 -23722627.696 9 -18455149.67247  21227096.717    21227096.5974   21227100.9964
        -0.000          -0.000
 -39681703.197 9 -30644379.71849  19017445.981    19017445.5664   19017449.7334
        -0.000          -0.000
 -31178244.117 9 -23994548.53648  19676788.422    19676787.7334   19676792.2674
        -0.000          -0.000
 97  3  7  2 24 59.9950000  0  6  4 24 30  6  5 10                  -0.004699293
 -22826081.318 8 -17211245.33945  23352832.746    23352833.2794   23352837.1344
        -0.000          -0.000
 -33166880.383 9 -25818333.24048  20310083.549    20310083.4624   20310088.0584
        -0.000          -0.000
 -33972661.208 9 -25865025.95549  19203164.587    19203164.8764   19203168.4564
        -0.000          -0.000
 -23812857.386 9 -18525458.49547  21209926.517    21209926.4444   21209930.8394
        -0.000          -0.000
 -39673586.020 9 -30638054.65249  19018990.650    19018990.2574   19018994.4064
        -0.000          -0.000
 -31228593.084 9 -24033781.48448  19667207.306    19667206.6264   19667211.1924
        -0.000          -0.000
 97  3  7  2 25 29.9950000  0  6  4 24 30  6  5 10                  -0.004714621
 -22756412.187 8 -17156957.69045  23366090.278    23366090.6934   23366095.0744
        -0.000          -0.000
 -33124430.245 9 -25785255.20948  20318161.565    20318161.4794   20318166.0614
        -0.000          -0.000
 -34028080.582 9 -25908209.88049  19192618.681    19192618.9764   19192622.5144
        -0.000          -0.000
 -23902982.541 9 -18595685.85947  21192776.284    21192776.2374   21192780.5414
        -0.000          -0.000
 -39664833.796 9 -30631234.74249  19020656.170    19020655.7644   19020659.9014
        -0.000          -0.000
 -31278264.416 9 -24072486.40548  19657755.108    19657754.4504   19657759.0164
        -0.000          -0.000
 97  3  7  2 25 59.9950000  0  6  4 24 30  6  5 10                  -0.004729916
 -22686729.560 8 -17102659.54545  23379350.361    23379350.6824   23379355.0394
        -0.000          -0.000
 -33081745.223 9 -25751994.15448  20326284.227    20326284.1564   20326288.7834
        -0.000          -0.000
 -34082852.171 9 -25950889.04049  19182196.024    19182196.2924   19182199.8154
        -0.000          -0.000
 -23993015.012 9 -18665841.01647  21175643.587    21175643.5474   21175647.9274
        -0.000          -0.000
 -39655443.241 9 -30623917.43349  19022443.123    19022442.7374   19022446.8404
        -0.000          -0.000
 -31327271.774 9 -24110673.94648  19648429.328    19648428.6364   19648433.1874
        -0.000          -0.000
 97  3  7  2 26 29.9950000  0  6  4 24 30  6  5 10                  -0.004745168
 -22617006.282 8 -17048329.71945  23392618.397    23392618.4084   23392622.8054
        -0.000          -0.000
 -33038799.282 9 -25718529.78748  20334456.578    20334456.4894   20334461.1324
        -0.000          -0.000
 -34136963.683 9 -25993053.85249  19171898.924    19171899.2304   19171902.7084
        -0.000          -0.000
 -24082939.716 9 -18735912.20147  21158531.595    21158531.4944   21158535.7494
        -0.000          -0.000
 -39645396.674 9 -30616088.94449  19024354.933    19024354.5434   19024358.6604
        -0.000          -0.000
 -31375610.801 9 -24148340.70948  19639230.702    19639230.0144   19639234.5664
        -0.000          -0.000
 97  3  7  2 26 59.9950000  0  5 24 30  6  5 10                     -0.004760450
 -32995632.722 9 -25684893.49948  20342670.902    20342670.8024   20342675.4204
        -0.000          -0.000
 -34190451.052 9 -26034732.31349  19161720.645    19161720.9274   19161724.3724
        -0.000          -0.000
 -24172767.894 9 -18805908.15047  21141437.786    21141437.6984   21141441.9694
        -0.000          -0.000
 -39634724.568 9 -30607773.01749  19026385.760    19026385.3484   19026389.4754
        -0.000          -0.000
 -31423309.468 9 -24185508.48648  19630153.964    19630153.2684   19630157.8194
        -0.000          -0.000
 97  3  7  2 27 29.9950000  0  5 24 30  6  5 10                     -0.004775735
 -32952237.812 9 -25651079.28548  20350928.703    20350928.5954   20350933.1934
        -0.000          -0.000
 -34243314.535 9 -26075924.63749  19151661.010    19151661.3014   19151664.7734
        -0.000          -0.000
 -24262485.527 9 -18875817.98447  21124364.814    21124364.9264   21124369.2304
        -0.000          -0.000
 -39623431.376 9 -30598973.13049  19028534.750    19028534.3404   19028538.4834
        -0.000          -0.000
 -31470365.567 9 -24222175.56748  19621199.486    19621198.7874   19621203.3134
        -0.000          -0.000
 97  3  7  2 27 59.9950000  0  5 24 30  6  5 10                     -0.004790986
 -32908611.521 9 -25617084.76748  20359230.531    20359230.3984   20359234.9614
        -0.000          -0.000
 -34295552.933 9 -26116629.88049  19141720.333    19141720.6634   19141724.1024
        -0.000          -0.000
 -24352086.806 9 -18945637.14647  21107314.488    21107314.4404   21107318.6634
        -0.000          -0.000
 -39611547.898 9 -30589713.28449  19030796.093    19030795.7044   19030799.8714
        -0.000          -0.000
 -31516784.475 9 -24258346.13048  19612366.229    19612365.5524   19612370.0814
        -0.000          -0.000
 97  3  7  2 28 29.9950000  0  6 24 17 30  6  5 10                  -0.004805898
 -32864713.745 9 -25582878.70448  20367583.924    20367583.8654   20367588.4234
        -0.000          -0.000
  -4455930.43918  -3138566.02755  23516167.608    23516167.2275   23516173.6245
        -0.000          -0.000
 -34347139.278 9 -26156827.03149  19131903.775    19131904.0694   19131907.5454
        -0.000          -0.000
 -24441520.873 9 -19015326.00247  21090295.696    21090295.6534   21090299.8944
        -0.000          -0.000
 -39599047.733 9 -30579972.90249  19033174.784    19033174.3784   19033178.5734
        -0.000          -0.000
 -31562506.139 9 -24293973.38548  19603665.622    19603664.9554   19603669.5444
        -0.000          -0.000
 97  3  7  2 28 59.9950000  0  6 24 17 30  6  5 10                  -0.004820846
 -32820581.767 9 -25548490.15048  20375982.028    20375981.9114   20375986.4704
        -0.000          -0.000
  -4570781.109 8  -3228060.02945  23494312.071    23494311.7774   23494318.0454
        -0.000          -0.000
 -34398111.625 9 -26196545.74549  19122203.978    19122204.3134   19122207.8144
        -0.000          -0.000
 -24530819.653 9 -19084909.45347  21073302.609    21073302.6064   21073306.8574
        -0.000          -0.000
 -39585975.613 9 -30569786.84149  19035662.342    19035661.9364   19035666.1444
        -0.000          -0.000
 -31607558.764 9 -24329079.31748  19595092.455    19595091.7804   19595096.3314
        -0.000          -0.000
 97  3  7  2 29 29.9950000  0  6 24 17 30  6  5 10                  -0.004835721
 -32776193.956 9 -25513902.24748  20384428.718    20384428.6044   20384433.1844
        -0.000          -0.000
  -4685436.842 8  -3317402.12045  23472493.676    23472493.1524   23472499.9324
        -0.000          -0.000
 -34448459.602 9 -26235777.93149  19112623.109    19112623.4064   19112626.9254
        -0.000          -0.000
 -24619975.861 9 -19154381.81647  21056336.851    21056336.7814   21056340.9694
        -0.000          -0.000
 -39572330.682 9 -30559154.43349  19038258.859    19038258.4784   19038262.6784
        -0.000          -0.000
 -31651935.752 9 -24363658.77748  19586647.829    19586647.1464   19586651.6964
        -0.000          -0.000
 97  3  7  2 29 59.9950000  0  6 24 17 30  6  5 10                  -0.004850532
 -32731560.956 9 -25479123.28848  20392922.081    20392921.9944   20392926.5974
        -0.000          -0.000
  -4799900.179 8  -3406594.28445  23450711.995    23450711.2894   23450718.2064
        -0.000          -0.000
 -34498190.448 9 -26274529.24349  19103159.625    19103159.9584   19103163.4934
        -0.000          -0.000
 -24708993.644 9 -19223746.29147  21039397.139    21039397.1094   21039401.4234
        -0.000          -0.000
 -39558106.001 9 -30548070.27149  19040965.765    19040965.3544   19040969.5874
        -0.000          -0.000
 -31695643.043 9 -24397716.40048  19578330.611    19578329.9044   19578334.4454
        -0.000          -0.000
 97  3  7  2 30 29.9950000  0  6 24 17 30  6  5 10                  -0.004865278
 -32686681.305 9 -25444152.13148  20401462.470    20401462.2924   20401466.8754
        -0.000          -0.000
  -4914152.103 8  -3495621.72845  23428970.783    23428970.0614   23428976.6074
        -0.000          -0.000
 -34547286.747 9 -26312786.09749  19093816.933    19093817.2554   19093820.8034
        -0.000          -0.000
 -24797860.372 9 -19292993.08447  21022486.354    21022486.3954   21022490.6684
        -0.000          -0.000
 -39543275.587 9 -30536514.11149  19043787.836    19043787.4804   19043791.7204
        -0.000          -0.000
 -31738669.744 9 -24431243.68448  19570142.858    19570142.1634   19570146.7184
        -0.000          -0.000
 97  3  7  2 30 59.9950000  0  6 24 17 30  6  5 10                  -0.004879987
 -32641581.365 9 -25409009.32048  20410044.654    20410044.5104   20410049.1274
        -0.000          -0.000
  -5028198.764 8  -3584489.20145  23407268.294    23407267.8874   23407274.0324
        -0.000          -0.000
 -34595742.998 9 -26350544.21449  19084596.059    19084596.3694   19084599.9024
        -0.000          -0.000
 -24886598.911 9 -19362139.98347  21005599.994    21005599.9864   21005604.2144
        -0.000          -0.000
 -39527847.970 9 -30524492.59849  19046723.648    19046723.2684   19046727.5084
        -0.000          -0.000
 -31781048.334 9 -24464265.95548  19562078.464    19562077.7654   19562082.2584
        -0.000          -0.000
 97  3  7  2 31 29.9950000  0  6 24 17 30  6  5 10                  -0.004894655
 -32596275.025 9 -25373705.67048  20418666.148    20418666.0224   20418670.6244
        -0.000          -0.000
  -5142012.261 8  -3673174.94745  23385610.343    23385609.6794   23385615.7714
        -0.000          -0.000
 -34643545.696 9 -26387793.07149  19075499.495    19075499.8164   19075503.3504
        -0.000          -0.000
 -24975202.967 9 -19431182.08447  20988739.227    20988739.2084   20988743.4434
        -0.000          -0.000
 -39511808.304 9 -30511994.16349  19049775.890    19049775.5454   19049779.7724
        -0.000          -0.000
 -31822770.038 9 -24496776.35948  19554139.036    19554138.3324   19554142.8254
        -0.000          -0.000
 97  3  7  2 31 59.9950000  0  6 24 17 30  6  5 10                  -0.004909291
 -32550763.827 9 -25338242.40848  20427326.643    20427326.5364   20427331.1394
        -0.000          -0.000
  -5255582.300 8  -3761671.03945  23363998.759    23363998.2204   23364004.0324
        -0.000          -0.000
 -34690661.941 9 -26424507.03249  19066533.592    19066533.9034   19066537.4414
        -0.000          -0.000
 -25063661.825 9 -19500111.05447  20971906.137    20971906.0924   20971910.2644
        -0.000          -0.000
 -39495128.053 9 -30498996.57349  19052950.066    19052949.7074   19052953.8914
        -0.000          -0.000
 -31863803.332 9 -24528750.34848  19546330.642    19546329.9274   19546334.4474
        -0.000          -0.000
 97  3  7  2 32 29.9950000  0  6 24 17 30  6  5 10                  -0.004923920
 -32505078.365 9 -25302643.33948  20436020.225    20436020.1584   20436024.7544
        -0.000          -0.000
  -5368930.343 8  -3849994.13045  23342428.968    23342428.7634   23342434.6134
        -0.000          -0.000
 -34737106.787 9 -26460697.82349  19057695.444    19057695.7324   19057699.2874
        -0.000          -0.000
 -25152018.470 9 -19568960.37147  20955092.388    20955092.3124   20955096.4784
        -0.000          -0.000
 -39477836.470 9 -30485522.62249  19056240.515    19056240.1494   19056244.3584
        -0.000          -0.000
 -31904182.560 9 -24560214.67048  19538646.676    19538645.9874   19538650.5544
        -0.000          -0.000
 97  3  7  2 32 59.9950000  0  6 24 17 30  6  5 10                  -0.004938521
 -32459198.988 9 -25266893.17248  20444750.815    20444750.7144   20444755.3144
        -0.000          -0.000
  -5482035.678 8  -3938128.11945  23320905.611    23320905.4034   23320911.4654
        -0.000          -0.000
 -34782867.592 9 -26496355.59249  19048987.455    19048987.7504   19048991.2934
        -0.000          -0.000
 -25240250.091 9 -19637712.26347  20938302.424    20938302.4054   20938306.5384
        -0.000          -0.000
 -39459905.539 9 -30471550.47349  19059652.681    19059652.2974   19059656.4964
        -0.000          -0.000
 -31943882.402 9 -24591149.59948  19531092.129    19531091.4174   19531095.9684
        -0.000          -0.000
 97  3  7  2 33 29.9950000  0  6 24 17 30  6  5 10                  -0.004953082
 -32413112.248 9 -25230981.41948  20453520.843    20453520.7524   20453525.3224
        -0.000          -0.000
  -5594884.124 9  -4026061.93045  23299431.140    23299430.9204   23299437.3084
        -0.000          -0.000
 -34827936.814 9 -26531474.47249  19040411.055    19040411.3584   19040414.9224
        -0.000          -0.000
 -25328335.945 9 -19706350.58047  20921540.377    20921540.2594   20921544.3664
        -0.000          -0.000
 -39441321.635 9 -30457069.52149  19063189.102    19063188.7294   19063192.9254
        -0.000          -0.000
 -31982877.359 9 -24621535.27348  19523671.675    19523670.9644   19523675.4544
        -0.000          -0.000
 97  3  7  2 33 59.9950000  0  6 24 17 30  6  5 10                  -0.004967604
 -32366809.396 9 -25194901.27548  20462331.926    20462331.8624   20462336.4644
        -0.000          -0.000
  -5707496.611 8  -4113811.87045  23278001.726    23278001.4054   23278007.8184
        -0.000          -0.000
 -34872331.498 9 -26566067.73449  19031962.979    19031963.3064   19031966.8644
        -0.000          -0.000
 -25416290.591 9 -19774886.64247  20904802.935    20904802.8864   20904807.1104
        -0.000          -0.000
 -39422100.510 9 -30442092.03449  19066846.753    19066846.3574   19066850.5884
        -0.000          -0.000
 -32021192.922 9 -24651391.54148  19516380.427    19516379.7024   19516384.2394
        -0.000          -0.000
 97  3  7  2 34 29.9950000  0  6 24 17 30  6  5 10                  -0.004982053
 -32320261.328 9 -25158630.05148  20471189.784    20471189.6904   20471194.2954
        -0.000          -0.000
  -5819848.825 8  -4201359.01645  23256621.919    23256621.6264   23256628.0154
        -0.000          -0.000
 -34916061.513 9 -26600143.07249  19023641.413    19023641.7374   19023645.2794
        -0.000          -0.000
 -25504088.760 9 -19843300.79947  20888095.555    20888095.5524   20888099.6394
        -0.000          -0.000
 -39402234.406 9 -30426611.96149  19070627.170    19070626.7904   19070631.0044
        -0.000          -0.000
 -32058819.973 9 -24680711.31448  19509220.208    19509219.4884   19509224.0484
        -0.000          -0.000
 97  3  7  2 34 59.9950000  0  6 24 17 30  6  5 10                  -0.004996406
 -32273458.597 9 -25122160.38848  20480096.039    20480095.9444   20480100.5274
        -0.000          -0.000
  -5931927.823 9  -4288693.23745  23235293.950    23235293.5024   23235300.0894
        -0.000          -0.000
 -34959133.461 9 -26633705.63049  19015445.106    19015445.4114   19015448.9454
        -0.000          -0.000
 -25591702.417 9 -19911571.15647  20871423.292    20871423.1854   20871427.3584
        -0.000          -0.000
 -39381723.758 9 -30410629.64849  19074530.212    19074529.8284   19074534.0514
        -0.000          -0.000
 -32095729.514 9 -24709471.98448  19502196.589    19502195.8814   19502200.4074
        -0.000          -0.000
 97  3  7  2 35 29.9950000  0  6 24 17 30  6  5 10                  -0.005010664
 -32226401.382 9 -25085492.43148  20489050.740    20489050.6354   20489055.2484
        -0.000          -0.000
  -6043745.964 9  -4375824.21145  23214015.686    23214015.1514   23214021.8824
        -0.000          -0.000
 -35001556.219 9 -26666762.32449  19007372.294    19007372.6404   19007376.1444
        -0.000          -0.000
 -25679157.654 9 -19979718.07647  20854780.885    20854780.9164   20854785.1504
        -0.000          -0.000
 -39360595.293 9 -30394165.91649  19078550.842    19078550.4444   19078554.6564
        -0.000          -0.000
 -32131941.911 9 -24737689.42448  19495305.558    19495304.8414   19495309.3794
        -0.000          -0.000
 97  3  7  2 35 59.9940000  0  6 24 17 30  6  5 10                  -0.005024824
 -32179087.843 9 -25048624.74248  20498054.196    20498054.1124   20498058.7284
        -0.000          -0.000
  -6155296.312 9  -4462746.51345  23192788.221    23192787.8774   23192794.4764
        -0.000          -0.000
 -35043328.862 9 -26699312.44149  18999423.220    18999423.5634   18999427.0534
        -0.000          -0.000
 -25766453.837 9 -20047741.06947  20838169.197    20838169.1064   20838173.2094
        -0.000          -0.000
 -39338850.846 9 -30377222.20549  19082688.655    19082688.2604   19082692.5014
        -0.000          -0.000
 -32167466.567 9 -24765370.96948  19488545.332    19488544.6514   19488549.2094
        -0.000          -0.000
 97  3  7  2 36 29.9940000  0  6 24 17 30  6  5 10                  -0.005038914
 -32131565.514 9 -25011594.35048  20507097.372    20507097.2724   20507101.8624
        -0.000          -0.000
  -6266614.849 8  -4549488.17445  23171604.913    23171604.5824   23171610.9884
        -0.000          -0.000
 -35084471.709 9 -26731371.79949  18991593.979    18991594.3034   18991597.7804
        -0.000          -0.000
 -25853625.545 9 -20115667.05047  20821580.934    20821580.8304   20821584.9524
        -0.000          -0.000
 -39316527.987 9 -30359827.77549  19086936.544    19086936.1394   19086940.3834
        -0.000          -0.000
 -32202320.953 9 -24792530.22248  19481912.761    19481912.0734   19481916.6094
        -0.000          -0.000
 97  3  7  2 36 59.9940000  0  6 24 17 30  6  5 10                  -0.005052931
 -32083814.234 9 -24974385.55848  20516184.088    20516183.9724   20516188.5784
        -0.000          -0.000
  -6377666.970 8  -4636022.25445  23150472.324    23150472.0224   23150478.1694
        -0.000          -0.000
 -35124923.616 9 -26762892.76649  18983896.271    18983896.6024   18983900.0324
        -0.000          -0.000
 -25940646.831 9 -20183475.81747  20805021.104    20805021.1644   20805025.3864
        -0.000          -0.000
 -39293604.465 9 -30341965.30449  19091298.722    19091298.3494   19091302.5864
        -0.000          -0.000
 -32236476.262 9 -24819144.73648  19475413.251    19475412.5424   19475417.1214
        -0.000          -0.000
 97  3  7  2 37 29.9940000  0  6 24 17 30  6  5 10                  -0.005066883
 -32035836.563 9 -24937000.36348  20525313.955    20525313.8514   20525318.4554
        -0.000          -0.000
  -6488445.360 8  -4722343.01745  23129391.861    23129391.3964   23129397.8054
        -0.000          -0.000
 -35164662.700 9 -26793858.28749  18976334.204    18976334.5174   18976337.9364
        -0.000          -0.000
 -26027517.777 9 -20251167.46347  20788490.220    20788490.2274   20788494.3604
        -0.000          -0.000
 -39270063.524 9 -30323621.72949  19095778.431    19095778.0484   19095782.2724
        -0.000          -0.000
 -32269934.256 9 -24845215.89148  19469046.371    19469045.6804   19469050.3154
        -0.000          -0.000
 97  3  7  2 37 59.9940000  0  6 24 17 30  6  5 10                  -0.005080782
 -31987665.676 9 -24899464.60748  20534480.575    20534480.4454   20534485.0024
        -0.000          -0.000
  -6598956.322 8  -4808455.37845  23108362.481    23108361.9144   23108368.2654
        -0.000          -0.000
 -35203701.383 9 -26824278.04549  18968905.381    18968905.7104   18968909.1274
        -0.000          -0.000
 -26114236.400 9 -20318740.39847  20771988.316    20771988.2324   20771992.3444
        -0.000          -0.000
 -39245913.322 9 -30304803.40449  19100374.079    19100373.6864   19100377.9044
        -0.000          -0.000
 -32302689.571 9 -24870739.50448  19462813.196    19462812.4954   19462817.1464
        -0.000          -0.000
 97  3  7  2 38 29.9940000  0  6 24 17 30  6  5 10                  -0.005094621
 -31939291.882 9 -24861770.73748  20543685.787    20543685.6924   20543690.2104
        -0.000          -0.000
  -6709191.023 8  -4894352.49745  23087385.591    23087385.1364   23087391.2474
        -0.000          -0.000
 -35242026.454 9 -26854141.73449  18961612.423    18961612.7294   18961616.1414
        -0.000          -0.000
 -26200790.714 9 -20386185.29247  20755517.377    20755517.3944   20755521.5654
        -0.000          -0.000
 -39221149.387 9 -30285506.83549  19105086.518    19105086.1344   19105090.3504
        -0.000          -0.000
 -32334719.624 9 -24895697.97648  19456718.058    19456717.3754   19456722.0024
        -0.000          -0.000
 97  3  7  2 38 59.9940000  0  6 24 17 30  6  5 10                  -0.005108395
 -31890703.080 9 -24823909.33648  20552931.987    20552931.8314   20552936.3474
        -0.000          -0.000
  -6819149.538 8  -4980034.45245  23066461.489    23066460.7224   23066466.3714
        -0.000          -0.000
 -35279643.355 9 -26883453.61049  18954454.153    18954454.4644   18954457.9124
        -0.000          -0.000
 -26287170.615 9 -20453494.29747  20739079.939    20739079.9244   20739084.0154
        -0.000          -0.000
 -39195754.013 9 -30265718.23849  19109919.155    19109918.7584   19109922.9814
        -0.000          -0.000
 -32366027.451 9 -24920093.67748  19450760.331    19450759.6494   19450764.2464
        -0.000          -0.000
 97  3  7  2 39 29.9940000  0  6 24 17 30  6  5 10                  -0.005122094
 -31841890.170 9 -24785873.29648  20562220.703    20562220.6414   20562225.1954
        -0.000          -0.000
  -6928821.158 8  -5065492.76945  23045591.312    23045590.5904   23045596.2774
        -0.000          -0.000
 -35316551.104 9 -26912212.89849  18947430.848    18947431.1564   18947434.6094
        -0.000          -0.000
 -26373357.813 9 -20520653.13747  20722679.022    20722678.9884   20722683.1554
        -0.000          -0.000
 -39169712.726 9 -30245426.32949  19114874.622    19114874.2284   19114878.4724
        -0.000          -0.000
 -32396588.376 9 -24943907.37848  19444944.777    19444944.1054   19444948.6824
        -0.000          -0.000
 97  3  7  2 39 59.9940000  0  6 24 17 30  6  5 10                  -0.005135722
 -31792860.496 9 -24747668.36048  20571550.719    20571550.6724   20571555.2324
        -0.000          -0.000
  -7038237.558 8  -5150752.27745  23024769.968    23024769.3034   23024775.3104
        -0.000          -0.000
 -35352781.512 9 -26940444.38849  18940536.410    18940536.7094   18940540.2004
        -0.000          -0.000
 -26459370.036 9 -20587675.62447  20706311.211    20706311.2994   20706315.5274
        -0.000          -0.000
 -39143059.263 9 -30224657.39849  19119946.587    19119946.1874   19119950.4394
        -0.000          -0.000
 -32426425.007 9 -24967156.69248  19439267.071    19439266.4064   19439270.9484
        -0.000          -0.000
 97  3  7  2 40 29.9940000  0  6 24 17 30  6  5 10                  -0.005149282
 -31743594.951 9 -24709279.63048  20580925.700    20580925.5924   20580930.1834
        -0.000          -0.000
  -7147400.016 8  -5235813.91645  23003996.723    23003996.3854   23004002.3304
        -0.000          -0.000
 -35388321.193 9 -26968137.65249  18933773.408    18933773.7114   18933777.2584
        -0.000          -0.000
 -26545203.797 9 -20654559.08047  20689977.792    20689977.7564   20689981.8974
        -0.000          -0.000
 -39115782.443 9 -30203402.74449  19125137.201    19125136.8134   19125141.0734
        -0.000          -0.000
 -32455548.029 9 -24989849.95148  19433725.137    19433724.4534   19433728.9824
        -0.000          -0.000
 97  3  7  2 40 59.9940000  0  6 24 17 30  6  5 10                  -0.005162763
 -31694081.355 9 -24670697.60248  20590347.809    20590347.7194   20590352.3374
        -0.000          -0.000
  -7256290.445 9  -5320663.56445  22983275.279    22983275.0204   22983281.0974
        -0.000          -0.000
 -35423158.512 9 -26995283.61749  18927144.069    18927144.3814   18927147.9434
        -0.000          -0.000
 -26630842.345 9 -20721290.39547  20673681.442    20673681.3294   20673685.4214
        -0.000          -0.000
 -39087860.503 9 -30181645.39449  19130450.613    19130450.2254   19130454.4684
        -0.000          -0.000
 -32483941.597 9 -25011974.80548  19428322.060    19428321.3834   19428325.8434
        -0.000          -0.000
 97  3  7  2 41 29.9940000  0  6 24 17 30  6  5 10                  -0.005176177
 -31644340.784 9 -24631938.72048  20599813.127    20599812.9964   20599817.6704
        -0.000          -0.000
  -7364934.490 9  -5405321.22845  22962601.103    22962600.8824   22962606.8514
        -0.000          -0.000
 -35457319.400 9 -27021902.48949  18920643.464    18920643.7614   18920647.3404
        -0.000          -0.000
 -26716316.239 9 -20787893.40247  20657416.020    20657416.0294   20657420.3054
        -0.000          -0.000
 -39059319.939 9 -30159406.00149  19135881.693    19135881.2854   19135885.5294
        -0.000          -0.000
 -32511629.707 9 -25033549.94248  19423053.187    19423052.5104   19423056.9864
        -0.000          -0.000
 97  3  7  2 41 59.9940000  0  6 24 17 30  6  5 10                  -0.005189520
 -31594356.922 9 -24592990.26048  20609324.786    20609324.6214   20609329.3164
        -0.000          -0.000
  -7473316.649 9  -5489774.82645  22941976.799    22941976.2914   22941982.3754
        -0.000          -0.000
 -35490789.667 9 -27047983.22049  18914274.273    18914274.5804   18914278.1624
        -0.000          -0.000
 -26801613.403 9 -20854358.72047  20641184.621    20641184.5754   20641188.7624
        -0.000          -0.000
 -39030137.090 9 -30136666.13449  19141435.022    19141434.6214   19141438.8574
        -0.000          -0.000
 -32538626.127 9 -25054586.10748  19417915.955    19417915.2474   19417919.7134
        -0.000          -0.000
 97  3  7  2 42 29.9940000  0  6 24 17 30  6  5 10                  -0.005202797
 -31544140.830 9 -24553860.84547  20618880.550    20618880.4064   20618885.1274
        -0.000          -0.000
  -7581422.446 9  -5574013.08146  22921404.942    22921404.4124   22921410.6044
        -0.000          -0.000
 -35523552.616 9 -27073512.79149  18908039.690    18908039.9764   18908043.5734
        -0.000          -0.000
 -26886732.540 9 -20920685.30147  20624987.047    20624986.9694   20624991.0674
        -0.000          -0.000
 -39000303.831 9 -30113419.45549  19147112.093    19147111.7004   19147115.9264
        -0.000          -0.000
 -32564926.930 9 -25075080.22948  19412911.098    19412910.4124   19412914.8744
        -0.000          -0.000
 97  3  7  2 42 59.9940000  0  6 24 17 30  6  5 10                  -0.005216008
 -31493712.045 9 -24514565.68747  20628476.820    20628476.6934   20628481.3804
        -0.000          -0.000
  -7689255.310 9  -5658038.65246  22900885.104    22900884.5874   22900890.7814
        -0.000          -0.000
 -35555618.309 9 -27098499.05049  18901937.777    18901938.0814   18901941.6654
        -0.000          -0.000
 -26971679.879 9 -20986878.02147  20608821.867    20608821.9004   20608826.0854
        -0.000          -0.000
 -38969838.719 9 -30089680.42249  19152909.411    19152909.0374   19152913.2744
        -0.000          -0.000
 -32590527.655 9 -25095028.83548  19408039.438    19408038.7244   19408043.2234
        -0.000          -0.000
 97  3  7  2 43 29.9940000  0  6 24 17 30  6  5 10                  -0.005229171
 -31443091.462 9 -24475121.08747  20638109.622    20638109.4644   20638114.1634
        -0.000          -0.000
  -7796829.487 9  -5741862.65746  22880414.486    22880413.8794   22880420.1504
        -0.000          -0.000
 -35586987.550 9 -27122942.61549  18895968.437    18895968.7134   18895972.2964
        -0.000          -0.000
 -27056468.703 9 -21052947.21548  20592687.161    20592687.1894   20592691.3884
        -0.000          -0.000
 -38938773.585 9 -30065473.84149  19158820.904    19158820.5144   19158824.7844
        -0.000          -0.000
 -32615457.165 9 -25114454.42248  19403295.491    19403294.7794   19403299.2534
        -0.000          -0.000
 97  3  7  2 43 59.9940000  0  6 24 17 30  6  5 10                  -0.005242275
 -31392279.466 9 -24435527.32447  20647778.785    20647778.6414   20647783.3414
        -0.000          -0.000
  -7904118.888 9  -5825464.75746  22859998.042    22859997.5034   22860003.7584
        -0.000          -0.000
 -35617635.456 9 -27146824.10449  18890136.299    18890136.5914   18890140.1984
        -0.000          -0.000
 -27141081.020 9 -21118878.89848  20576586.042    20576585.9864   20576590.1934
        -0.000          -0.000
 -38907106.909 9 -30040798.52249  19164846.861    19164846.4934   19164850.7514
        -0.000          -0.000
 -32639689.398 9 -25133336.67048  19398684.190    19398683.4914   19398687.9554
        -0.000          -0.000
 97  3  7  2 44 29.9940000  0  6 24 17 30  6  5 10                  -0.005255328
 -31341303.848 9 -24395806.05247  20657479.117    20657479.0254   20657483.6564
        -0.000          -0.000
  -8011137.838 9  -5908856.10646  22839633.085    22839632.4814   22839638.6764
        -0.000          -0.000
 -35647580.681 9 -27170158.04949  18884437.913    18884438.1964   18884441.8044
        -0.000          -0.000
 -27225537.563 9 -21184689.17448  20560514.427    20560514.4524   20560518.5504
        -0.000          -0.000
 -38874869.031 9 -30015678.10649  19170981.534    19170981.1464   19170985.4424
        -0.000          -0.000
 -32663218.530 9 -25151671.04548  19394206.744    19394206.0314   19394210.5074
        -0.000          -0.000
 97  3  7  2 44 59.9940000  0  6 24 17 30  6  5 10                  -0.005268314
 -31290144.894 9 -24355941.93347  20667214.336    20667214.2854   20667218.8354
        -0.000          -0.000
  -8117872.923 9  -5992026.27046  22819321.998    22819321.4134   22819327.5294
        -0.000          -0.000
 -35676820.106 9 -27192942.02249  18878873.819    18878874.1074   18878877.7274
        -0.000          -0.000
 -27309821.238 9 -21250364.74548  20544475.802    20544475.7864   20544479.8594
        -0.000          -0.000
 -38842051.762 9 -29990106.22549  19177226.421    19177226.0534   19177230.3714
        -0.000          -0.000
 -32686032.099 9 -25169447.84648  19389865.406    19389864.7264   19389869.2164
        -0.000          -0.000
 97  3  7  2 45 29.9940000  0  6 24 17 30  6  5 10                  -0.005281214
 -31238787.806 9 -24315923.41747  20676987.358    20676987.2304   20676991.7734
        -0.000          -0.000
  -8224308.387 9  -6074962.95846  22799067.994    22799067.4754   22799073.4524
        -0.000          -0.000
 -35705351.675 9 -27215174.41549  18873444.421    18873444.7164   18873448.3684
        -0.000          -0.000
 -27393933.942 9 -21315907.10948  20528469.549    20528469.6164   20528473.7954
        -0.000          -0.000
 -38808647.370 9 -29964076.83749  19183583.132    19183582.7124   19183587.0554
        -0.000          -0.000
 -32708127.944 9 -25186665.37748  19385660.688    19385660.0074   19385664.5084
        -0.000          -0.000
 97  3  7  2 45 59.9940000  0  6 24 17 30  6  5 10                  -0.005294023
 -31187236.999 9 -24275753.95947  20686797.217    20686797.0484   20686801.5834
        -0.000          -0.000
  -8330451.164 8  -6157671.57546  22778869.555    22778868.9974   22778875.1294
        -0.000          -0.000
 -35733201.438 9 -27236875.53649  18868144.742    18868145.0754   18868148.7184
        -0.000          -0.000
 -27477888.960 9 -21381326.58948  20512493.593    20512493.5664   20512497.6664
        -0.000          -0.000
 -38774647.876 9 -29937583.73749  19190052.984    19190052.6034   19190056.9524
        -0.000          -0.000
 -32729498.060 9 -25203317.41348  19381594.052    19381593.3824   19381597.9024
        -0.000          -0.000
 97  3  7  2 46 29.9940000  0  6 24 17 30  6  5 10                  -0.005306739
 -31135479.220 9 -24235423.23347  20696646.401    20696646.2104   20696650.7634
        -0.000          -0.000
  -8436313.956 8  -6240161.99946  22758724.385    22758723.8934   22758730.1944
        -0.000          -0.000
 -35760383.791 9 -27258056.60049  18862972.106    18862972.4164   18862976.0764
        -0.000          -0.000
 -27561682.216 9 -21446620.02648  20496548.299    20496548.2154   20496552.3554
        -0.000          -0.000
 -38740059.851 9 -29910632.04049  19196634.889    19196634.4964   19196638.8324
        -0.000          -0.000
 -32750170.038 9 -25219425.44548  19377660.288    19377659.6254   19377664.1334
        -0.000          -0.000
 97  3  7  2 46 59.9940000  0  6 24 17 30  6  5 10                  -0.005319373
 -31083513.552 9 -24194930.50647  20706535.140    20706534.9344   20706539.4924
        -0.000          -0.000
  -8541915.396 8  -6322448.79646  22738629.088    22738628.4954   22738634.8514
        -0.000          -0.000
 -35786897.984 9 -27278717.01249  18857926.604    18857926.9294   18857930.5584
        -0.000          -0.000
 -27645316.078 9 -21511789.25548  20480633.140    20480633.1434   20480637.3244
        -0.000          -0.000
 -38704898.800 9 -29883233.82349  19203325.793    19203325.4044   19203329.7354
        -0.000          -0.000
 -32770156.819 9 -25234999.54848  19373856.940    19373856.2684   19373860.7614
        -0.000          -0.000
 97  3  7  2 47 29.9940000  0  6 24 17 30  6  5 10                  -0.005331933
 -31031348.980 9 -24154282.79647  20716461.567    20716461.4624   20716466.1044
        -0.000          -0.000
  -8647253.138 8  -6404530.11345  22718583.795    22718583.3224   22718589.7204
        -0.000          -0.000
 -35812737.962 9 -27298852.06549  18853009.433    18853009.7834   18853013.4164
        -0.000          -0.000
 -27728783.753 9 -21576828.99748  20464749.864    20464749.8284   20464753.9674
        -0.000          -0.000
 -38669159.600 9 -29855385.10449  19210126.785    19210126.3964   19210130.7194
        -0.000          -0.000
 -32789458.117 9 -25250039.51448  19370184.045    19370183.3714   19370187.8394
        -0.000          -0.000
 97  3  7  2 47 59.9940000  0  6 24 17 30  6  5 10                  -0.005344435
 -30978992.418 9 -24113485.47747  20726424.626    20726424.5454   20726429.2224
        -0.000          -0.000
  -8752338.740 8  -6486414.95245  22698586.485    22698586.1364   22698592.5754
        -0.000          -0.000
 -35837892.279 9 -27318452.83249  18848222.765    18848223.0874   18848226.7034
        -0.000          -0.000
 -27812071.350 9 -21641728.40948  20448900.773    20448900.7304   20448904.8354
        -0.000          -0.000
 -38632842.303 9 -29827085.92349  19217037.715    19217037.3224   19217041.6684
        -0.000          -0.000
 -32808073.280 9 -25264544.82348  19366641.699    19366641.0244   19366645.4924
        -0.000          -0.000
 97  3  7  2 48 29.9940000  0  6 24 17 30  6  5 10                  -0.005356888
 -30926443.115 9 -24072537.97447  20736424.418    20736424.2824   20736428.9704
        -0.000          -0.000
  -8857169.714 8  -6568101.37445  22678637.649    22678637.2974   22678643.6124
        -0.000          -0.000
 -35862337.186 9 -27337500.81949  18843571.036    18843571.3674   18843574.9854
        -0.000          -0.000
 -27895172.157 9 -21706482.28248  20433087.152    20433087.1484   20433091.2144
        -0.000          -0.000
 -38595947.693 9 -29798336.88949  19224058.524    19224058.1224   19224062.4684
        -0.000          -0.000
 -32825999.622 9 -25278513.39348  19363230.447    19363229.7554   19363234.2194
        -0.000          -0.000
 97  3  7  2 48 59.9940000  0  6 24 17 30  6  5 10                  -0.005369298
 -30873719.618 9 -24031454.72647  20746457.356    20746457.2564   20746461.9284
        -0.000          -0.000
  -8961732.684 8  -6649578.98245  22658740.093    22658739.7014   22658745.8764
        -0.000          -0.000
 -35886054.401 9 -27355981.77349  18839057.839    18839058.1714   18839061.7814
        -0.000          -0.000
 -27978089.810 9 -21771093.42748  20417308.392    20417308.4114   20417312.5114
        -0.000          -0.000
 -38558456.299 9 -29769122.83249  19231192.920    19231192.5224   19231196.8894
        -0.000          -0.000
 -32843201.630 9 -25291917.55448  19359957.045    19359956.3614   19359960.7974
        -0.000          -0.000
 97  3  7  2 49 29.9940000  0  6 24 17 30  6  5 10                  -0.005381668
 -30820831.109 9 -23990242.90547  20756521.638    20756521.6094   20756526.2724
        -0.000          -0.000
  -9066025.762 9  -6730846.29345  22638893.903    22638893.3604   22638899.3104
        -0.000          -0.000
 -35909047.033 9 -27373898.11549  18834682.451    18834682.7604   18834686.4044
        -0.000          -0.000
 -28060826.389 9 -21835563.48448  20401564.077    20401564.1014   20401568.2254
        -0.000          -0.000
 -38520352.341 9 -29739431.44949  19238443.870    19238443.5034   19238447.8474
        -0.000          -0.000
 -32859677.685 9 -25304756.03048  19356821.751    19356821.0424   19356825.4804
        -0.000          -0.000
 97  3  7  2 49 59.9940000  0  6 24 17 30  6  5 10                  -0.005394027
 -30767806.427 9 -23948924.97247  20766611.963    20766611.8844   20766616.5564
        -0.000          -0.000
  -9170094.962 9  -6811939.15345  22619090.117    22619089.6704   22619095.3404
        -0.000          -0.000
 -35931341.428 9 -27391270.37449  18830439.952    18830440.2874   18830443.9334
        -0.000          -0.000
 -28143417.744 9 -21899920.38648  20385847.560    20385847.5714   20385851.6154
        -0.000          -0.000
 -38481677.474 9 -29709295.19849  19245803.471    19245803.0784   19245807.4434
        -0.000          -0.000
 -32875453.859 9 -25317049.14648  19353819.628    19353818.9204   19353823.3664
        -0.000          -0.000
 97  3  7  2 50 29.9940000  0  6 24 17 30  6  5 10                  -0.005406345
 -30714615.442 9 -23907477.45547  20776733.991    20776733.8264   20776738.4974
        -0.000          -0.000
  -9273890.612 9  -6892818.87045  22599338.471    22599337.9244   22599343.6424
        -0.000          -0.000
 -35952899.225 9 -27408068.66449  18826337.645    18826337.9674   18826341.6314
        -0.000          -0.000
 -28225822.190 9 -21964131.62648  20370166.551    20370166.5274   20370170.5744
        -0.000          -0.000
 -38442398.623 9 -29678688.31449  19253277.982    19253277.5934   19253281.9464
        -0.000          -0.000
 -32890491.293 9 -25328766.62248  19350958.086    19350957.3914   19350961.8704
        -0.000          -0.000
 97  3  7  2 50 59.9940000  0  6 24 17 30  6  5 10                  -0.005418611
 -30661254.441 9 -23865897.45047  20786888.277    20786888.1274   20786892.8004
        -0.000          -0.000
  -9377403.926 9  -6973478.57645  22579640.463    22579640.0404   22579645.6344
        -0.000          -0.000
 -35973732.444 9 -27424302.34549  18822373.184    18822373.5224   18822377.1944
        -0.000          -0.000
 -28308025.079 9 -22028185.82348  20354523.706    20354523.6964   20354527.8434
        -0.000          -0.000
 -38402527.106 9 -29647619.60949  19260865.271    19260864.8714   19260869.2374
        -0.000          -0.000
 -32904793.286 9 -25339911.02648  19348236.469    19348235.7754   19348240.2764
        -0.000          -0.000
 97  3  7  2 51 29.9940000  0  6 24 17 30  6  5 10                  -0.005430800
 -30607698.655 9 -23824165.67647  20797079.590    20797079.4424   20797084.1204
        -0.000          -0.000
  -9480620.179 9  -7053906.82145  22559999.249    22559998.6384   22560004.2204
        -0.000          -0.000
 -35993850.844 9 -27439979.02349  18818544.825    18818545.1224   18818548.8044
        -0.000          -0.000
 -28390009.536 9 -22092069.80648  20338922.593    20338922.5874   20338926.7064
        -0.000          -0.000
 -38362071.393 9 -29616095.69149  19268563.676    19268563.3014   19268567.6684
        -0.000          -0.000
 -32918376.513 9 -25350495.35448  19345651.632    19345650.9554   19345655.4794
        -0.000          -0.000
 97  3  7  2 51 59.9940000  0  6 24 17 30  6  5 10                  -0.005442914
 -30553972.126 9 -23782300.85447  20807303.449    20807303.2844   20807307.9244
        -0.000          -0.000
  -9583553.529 9  -7134114.58846  22540411.656    22540411.1284   22540416.8514
        -0.000          -0.000
 -36013289.990 9 -27455126.41649  18814845.685    18814845.9934   18814849.6584
        -0.000          -0.000
 -28471800.973 9 -22155803.39248  20323358.277    20323358.1724   20323362.2734
        -0.000          -0.000
 -38321077.328 9 -29584152.28249  19276364.623    19276364.2214   19276368.6044
        -0.000          -0.000
 -32931280.403 9 -25360550.33448  19343196.058    19343195.3854   19343199.9144
        -0.000          -0.000
 97  3  7  2 52 29.9940000  0  6 24 17 30  6  5 10                  -0.005454926
 -30500062.072 9 -23740293.01647  20817562.182    20817561.9924   20817566.6784
        -0.000          -0.000
  -9686181.368 9  -7214084.32646  22520882.322    22520881.7484   22520887.4184
        -0.000          -0.000
 -36032062.277 9 -27469754.17449  18811273.499    18811273.7964   18811277.4434
        -0.000          -0.000
 -28553399.858 9 -22219386.92848  20307830.505    20307830.4324   20307834.5584
        -0.000          -0.000
 -38279534.292 9 -29551781.09749  19284270.009    19284269.6284   19284273.9984
        -0.000          -0.000
 -32943511.479 9 -25370081.03848  19340868.601    19340867.9064   19340872.4344
        -0.000          -0.000
 97  3  7  2 52 59.9940000  0  6 24 17 30  6  5 10                  -0.005466838
 -30445967.966 9 -23698141.77747  20827855.854    20827855.7554   20827860.4644
        -0.000          -0.000
  -9788515.255 9  -7293824.98846  22501408.708    22501408.2394   22501413.9934
        -0.000          -0.000
 -36050179.252 9 -27483871.30449  18807825.982    18807826.2734   18807829.8994
        -0.000          -0.000
 -28634820.937 9 -22282831.91548  20292336.525    20292336.5084   20292340.5934
        -0.000          -0.000
 -38237440.001 9 -29518980.36549  19292280.302    19292279.9224   19292284.2894
        -0.000          -0.000
 -32955086.462 9 -25379100.50448  19338665.877    19338665.2214   19338669.7564
        -0.000          -0.000
 97  3  7  2 53 29.9940000  0  6 24 17 30  6  5 10                  -0.005478678
 -30391721.008 9 -23655871.42347  20838178.774    20838178.6194   20838183.3224
        -0.000          -0.000
  -9890588.630 9  -7373362.67346  22481984.860    22481984.3664   22481990.0094
        -0.000          -0.000
 -36067653.794 9 -27497487.83649  18804500.727    18804501.0254   18804504.6194
        -0.000          -0.000
 -28716105.964 9 -22346170.89148  20276868.543    20276868.4664   20276872.5354
        -0.000          -0.000
 -38194813.686 9 -29485765.06349  19300391.877    19300391.4774   19300395.8534
        -0.000          -0.000
 -32966040.622 9 -25387636.21248  19336581.401    19336580.7344   19336585.2814
        -0.000          -0.000
 97  3  7  2 53 59.9940000  0  6 24 17 30  6  5 10                  -0.005490477
 -30337344.122 9 -23613499.82347  20848526.397    20848526.2164   20848530.8734
        -0.000          -0.000
  -9992428.610 9  -7452718.45746  22462605.366    22462604.8924   22462610.5694
        -0.000          -0.000
 -36084475.595 9 -27510595.73449  18801299.668    18801299.9314   18801303.5104
        -0.000          -0.000
 -28797275.990 9 -22409420.25848  20261422.437    20261422.3694   20261426.4404
        -0.000          -0.000
 -38151659.595 9 -29452138.49848  19308603.868    19308603.4624   19308607.8234
        -0.000          -0.000
 -32976377.238 9 -25395690.70948  19334614.407    19334613.7254   19334618.2734
        -0.000          -0.000
 97  3  7  2 54 29.9940000  0  6 24 17 30  6  5 10                  -0.005502251
 -30282855.100 9 -23571040.84547  20858895.361    20858895.1574   20858899.8254
        -0.000          -0.000
 -10094039.550 9  -7531895.78146  22443269.503    22443268.9584   22443274.5204
        -0.000          -0.000
 -36100635.414 9 -27523187.80749  18798224.559    18798224.8404   18798228.4104
        -0.000          -0.000
 -28878326.183 9 -22472576.24148  20245999.123    20245999.0074   20246003.1064
        -0.000          -0.000
 -38107968.905 9 -29418093.81348  19316917.851    19316917.4564   19316921.8494
        -0.000          -0.000
 -32986081.785 9 -25403252.69248  19332767.653    19332767.0044   19332771.5624
        -0.000          -0.000
 97  3  7  2 54 59.9940000  0  6 24 17 30  6  5 10                  -0.005514014
 -30228264.179 9 -23528502.47547  20869283.600    20869283.4164   20869288.0864
        -0.000          -0.000
 -10195430.441 9  -7610901.63746  22423975.362    22423974.7954   22423980.4124
        -0.000          -0.000
 -36116126.677 9 -27535258.92749  18795276.671    18795276.9604   18795280.5164
        -0.000          -0.000
 -28959246.426 9 -22535630.96448  20230600.341    20230600.3274   20230604.4394
        -0.000          -0.000
 -38063746.814 9 -29383635.05848  19325333.000    19325332.6214   19325337.0394
        -0.000          -0.000
 -32995136.940 9 -25410308.65248  19331044.535    19331043.8574   19331048.3924
        -0.000          -0.000
 97  3  7  2 55 29.9940000  0  6 24 17 30  6  5 10                  -0.005525767
 -30173578.712 9 -23485890.42047  20879689.760    20879689.6624   20879694.3614
        -0.000          -0.000
 -10296607.392 9  -7689740.79446  22404721.953    22404721.4744   22404727.1474
        -0.000          -0.000
 -36130964.174 9 -27546820.61749  18792453.150    18792453.4354   18792457.0064
        -0.000          -0.000
 -29040027.974 9 -22598577.61848  20215228.123    20215228.1194   20215232.2354
        -0.000          -0.000
 -38019013.283 9 -29348777.77848  19333845.487    19333845.1284   19333849.5254
        -0.000          -0.000
 -33003531.019 9 -25416849.48948  19329447.164    19329446.4834   19329451.0224
        -0.000          -0.000
 97  3  7  2 55 59.9940000  0  6 24 17 30  6  5 10                  -0.005537493
 -30118789.150 9 -23443197.25547  20890115.766    20890115.7644   20890120.4364
        -0.000          -0.000
 -10397552.770 9  -7768399.49546  22385512.491    22385512.0534   22385517.8794
        -0.000          -0.000
 -36145149.701 9 -27557874.28849  18789753.697    18789754.0044   18789757.5924
        -0.000          -0.000
 -29120639.940 9 -22661392.13548  20199888.239    20199888.1984   20199892.3564
        -0.000          -0.000
 -37973744.693 9 -29313503.57048  19342459.821    19342459.4444   19342463.8514
        -0.000          -0.000
 -33011230.470 9 -25422849.05448  19327982.021    19327981.3574   19327985.9004
        -0.000          -0.000
